     2              OBSERVATION DATA    GPS                 RINEX VERSION / TYPE
teqc 1997Jul24 19970813                                     PGM / RUN BY / DATE
                                                            COMMENT
BIT 2 OF LLI FLAGS DATA COLLECTED UNDER A-S CONDITION       COMMENT
BIT 2 OF LLI FLAGS DATA COLLECTED UNDER A-S CONDITION       COMMENT
Original Marker Name: 55487.PINY                            COMMENT
Campaign Name: TREX12                                       COMMENT
4-Character Station Name: PINY                              COMMENT
6-Character Antenna Code: TI4100                            COMMENT
Vertical Measurement Point: PAE                             COMMENT
Vertical Offset to Rinex Ref. Point: 0.0000                 COMMENT
Radial Measurement Point: RRP                               COMMENT
Radial Offset to Rinex Ref. Point: 0.0000                   COMMENT
Antenna Height from Field Measurement: 1.6690 m             COMMENT
Original XYZ: -2279903.7709 -4592836.3643 3782591.4212      COMMENT
New XYZ position is based on association with SCEC monument COMMENT
E1D0K5S1+0011. Position of that monument is believed to be  COMMENT
valid to within 1 m horizontally; vertical accuracy         COMMENT
should be no worse than 3-times this value.                 COMMENT
                                                            COMMENT
Revised Rinex header created by UCSD GPS archive for        COMMENT
GSAC on 02-Jun-1999 (1999:153) 02:16:30 GMT                 COMMENT
For assistance contact dagnew@ucsd.edu or hjohnson@ucsd.edu COMMENT
                                                            COMMENT
PINYON FLAT NCMN 1981                                       MARKER NAME
5 NATIONAL GEODETIC SURVEY                                  OBSERVER / AGENCY
UT04 TI 4100 1.5                                            REC # / TYPE / VERS
108 TI 4100                                                 ANT # / TYPE
 -2369636.0000 -4761325.0000  3511116.0000                  APPROX POSITION XYZ
        1.6690        0.0000        0.0000                  ANTENNA: DELTA H/E/N
     1     1     0                                          WAVELENGTH FACT L1/2
     4    P1    P2    L1    L2                              # / TYPES OF OBSERV
    30                                                      INTERVAL
  1988     3    21     2    41   59.000000                  TIME OF FIRST OBS
  1988     3    21     8    35   59.000000                  TIME OF LAST OBS
     0                                                      # OF SATELLITES
                                                            END OF HEADER
 88  3 21  2 41 59.0800000  0  2G 6G11
  22040162.076    22040166.888      931197.539 9  -1733366.796 9
  24093391.653    24093397.586      523416.876 8  -2040754.689 8
 88  3 21  2 42 29.0800000  0  2G 6G11
  22028468.762    22028474.555      869752.250 9  -1781246.199 8
  24071829.450    24071837.974      410115.518 8  -2129041.361 8
 88  3 21  2 42 59.0800000  0  2G 6G11
  22016784.079    22016785.935      808344.351 8  -1829096.430 8
  24050283.359    24050290.091      296888.771 9  -2217269.898 7
 88  3 21  2 43 29.0800000  0  2G 6G11
  22005106.259    22005110.810      746975.168 9  -1876916.509 8
  24028751.749    24028757.915      183740.091 8  -2305437.627 7
 88  3 21  2 43 59.0800000  0  2G 6G11
  21993437.235    21993441.318      685645.681 9  -1924705.716 8
  24007235.892    24007242.856       70672.195 8  -2393542.365 7
 88  3 21  2 44 29.0800000  0  2G 6G11
  21981774.206    21981777.867      624356.735 8  -1972463.285 9
  23985734.196    23985743.610      -42312.457 9  -2481582.237 7
 88  3 21  2 44 59.0800000  0  2G 6G11
  21970116.361    21970121.698      563108.912 8  -2020188.797 8
  23964251.958    23964258.679     -155210.915 7  -2569554.919 8
 88  3 21  2 45 29.0800000  0  2G 6G11
  21958470.434    21958475.563      501903.737 8  -2067881.072 9
  23942783.484    23942791.914     -268019.694 8  -2657457.748 8
 88  3 21  2 45 59.0800000  0  2G 6G11
  21946833.424    21946836.142      440741.853 8  -2115539.611 9
  23921335.092    23921342.388     -380736.054 8  -2745288.556 8
 88  3 21  2 46 29.0800000  0  2G 6G11
  21935202.075    21935204.718      379624.451 9  -2163163.521 7
  23899905.005    23899912.469     -493357.351 8  -2833045.305 7
 88  3 21  2 46 59.0800000  0  2G 6G11
  21923580.889    21923583.965      318552.356 9  -2210752.148 7
  23878491.499    23878499.452     -605880.780 9  -2920725.798 8
 88  3 21  2 47 29.0800000  0  2G 6G11
  21911967.287    21911971.928      257526.586 8  -2258304.655 7
  23857097.576    23857105.413     -718303.739 8  -3008327.981 7
 88  3 21  2 47 59.0800000  0  2G 6G11
  21900363.848    21900368.457      196549.767 8  -2305819.005 8
  23835725.023    23835731.977     -830621.575 7  -3095848.241 6
 88  3 21  2 48 29.0800000  0  2G 6G11
  21888768.290    21888773.604      135621.739 8  -2353295.318 9
  23814372.659    23814378.105     -942832.510 8  -3183285.234 8
 88  3 21  2 48 59.0800000  0  2G 6G11
  21877184.446    21877189.691       74743.689 9  -2400732.698 9
  23793039.947    23793045.137    -1054933.736 8  -3270636.717 8
 88  3 21  2 49 29.0800000  0  2G 6G11
  21865610.451    21865613.240       13917.074 9  -2448130.027 8
  23771729.299    23771734.741    -1166921.667 8  -3357899.939 8
 88  3 21  2 49 59.0800000  0  2G 6G11
  21854045.041    21854050.250      -46857.080 9  -2495486.487 9
  23750439.687    23750445.443    -1278793.559 7  -3445072.729 7
 88  3 21  2 50 29.0800000  0  2G 6G11
  21842489.102    21842493.765     -107577.642 8  -2542801.168 8
  23729175.373    23729180.880    -1390546.693 7  -3532153.009 8
 88  3 21  2 50 59.0800000  0  2G 6G11
  21830944.768    21830949.580     -168243.841 8  -2590073.470 8
  23707933.029    23707938.545    -1502178.408 8  -3619138.682 7
 88  3 21  2 51 29.0800000  0  2G 6G11
  21819413.217    21819416.268     -228853.965 9  -2637302.079 9
  23686712.219    23686718.885    -1613685.212 9  -3706027.013 7
 88  3 21  2 51 59.0800000  0  2G 6G11
  21807890.163    21807894.117     -289406.757 9  -2684486.026 9
  23665516.377    23665524.131    -1725064.323 8  -3792815.831 8
 88  3 21  2 52 29.0800000  0  2G 6G11
  21796375.698    21796381.814     -349901.310 9  -2731624.604 9
  23644347.857    23644353.910    -1836312.632 7  -3879502.742 9
 88  3 21  2 52 59.0800000  0  3G 6G 8G11
  21784875.817    21784879.824     -410336.324 8  -2778716.780 8
                  20851760.688    -3815566.015 9
  23623205.020    23623210.183    -1947427.115 8  -3966085.354 8
 88  3 21  2 53 29.0800000  0  3G 6G 8G11
  21773388.393    21773391.031     -470710.572 8  -2825761.597 8
  20838566.052    20838571.699    -3885037.319 9   5108832.532 8
  23602084.762    23602091.427    -2058404.785 8  -4052561.369 9
 88  3 21  2 53 59.0800000  0  3G 6G 8G11
  21761910.422    21761915.917     -531023.071 9  -2872758.321 8
  20825455.078    20825461.991    -3953931.656 9   5055148.681 8
  23580992.956    23580998.651    -2169243.504 7  -4138929.069 8
 88  3 21  2 54 29.0800000  0  3G 6G 8G11
  21750446.203    21750450.906     -591272.917 9  -2919706.210 9
  20812456.147    20812461.708    -4022247.173 9   5001915.856 8
  23559928.206    23559934.365    -2279940.205 9  -4225186.199 8
 88  3 21  2 54 59.0800000  0  3G 6G 8G11
  21738992.510    21738996.503     -651458.733 9  -2966604.185 9
  20799565.734    20799569.830    -4089981.346 8   4949136.014 8
  23538890.161    23538896.192    -2390492.030 9  -4311330.393 8
 88  3 21  2 55 29.0800000  0  3G 6G 8G11
  21727550.837    21727555.292     -711579.109 8  -3013451.173 8
  20786788.082    20786791.526    -4157131.136 8   4896811.567 8
  23517880.845    23517887.125    -2500896.036 8  -4397359.385 8
 88  3 21  2 55 59.0800000  0  3G 6G 8G11
  21716124.919    21716128.907     -771632.716 9  -3060246.163 8
  20774121.171    20774126.664    -4223694.232 9   4844944.241 8
  23496899.673    23496906.329    -2611148.904 8  -4483270.660 8
 88  3 21  2 56 29.0800000  0  3G 6G 8G11
  21704710.152    21704713.404     -831618.435 9  -3106988.287 9
  20761567.745    20761570.096    -4289668.461 9   4793535.787 7
  23475948.862    23475955.642    -2721248.100 7  -4569062.139 8
 88  3 21  2 56 59.0800000  0  3G 6G 8G11
  21693307.023    21693311.706     -891534.249 9  -3153675.871 8
  20749125.267    20749129.616    -4355050.214 8   4742588.979 7
  23455029.056    23455033.020    -2831189.670 8  -4654730.795 8
 88  3 21  2 57 29.0800000  0  3G 6G 8G11
  21681918.974    21681924.452     -951379.683 8  -3200308.624 9
  20736796.378    20736800.902    -4419838.144 9   4692104.899 8
  23434137.402    23434143.398    -2940971.608 8  -4740275.067 8
 88  3 21  2 57 59.0800000  0  3G 6G 8G11
  21670545.296    21670548.224    -1011153.537 9  -3246885.594 8
  20724583.017    20724584.794    -4484029.645 9   4642085.594 7
  23413276.493    23413282.999    -3050591.027 8  -4825692.738 7
 88  3 21  2 58 29.0800000  0  3G 6G 8G11
  21659184.752    21659187.525    -1070853.261 9  -3293404.851 8
  20712480.469    20712486.846    -4547621.005 9   4592533.918 8
  23392448.396    23392455.435    -3160043.943 8  -4910980.646 7
 88  3 21  2 58 59.0800000  0  3G 6G 8G11
  21647838.388    21647841.311    -1130479.234 9  -3339866.648 9
  20700493.456    20700498.610    -4610611.902 9   4543450.128 8
  23371651.327    23371658.852    -3269329.105 8  -4996137.841 7
 88  3 21  2 59 29.0800000  0  3G 6G 8G11
  21636504.615    21636510.196    -1190029.602 8  -3386269.456 8
  20688621.513    20688625.317    -4672998.630 8   4494837.143 9
  23350887.618    23350894.903    -3378443.319 9  -5081161.842 9
 88  3 21  2 59 59.0800000  0  3G 6G 8G11
  21625188.806    21625193.934    -1249503.000 9  -3432612.306 9
  20676865.244    20676868.812    -4734779.466 8   4446696.271 7
  23330156.468    23330163.227    -3487383.497 7  -5166050.196 8
 88  3 21  3  0 29.0800000  0  3G 6G 8G11
  21613886.510    21613889.615    -1308899.562 8  -3478895.312 8
  20665223.019    20665228.363    -4795953.553 9   4399028.204 8
  23309459.841    23309466.360    -3596148.140 7  -5250801.764 8
 88  3 21  3  0 59.0800000  0  3G 6G 8G11
  21602597.158    21602600.283    -1368216.481 9  -3525116.305 7
  20653699.255    20653703.575    -4856517.091 8   4351835.867 7
  23288797.306    23288803.091    -3704733.064 8  -5335413.329 7
 88  3 21  3  1 29.0800000  0  3G 6G 8G11
  21591325.999    21591329.094    -1427451.800 7  -3571273.644 9
  20642289.416    20642294.896    -4916467.257 8   4305121.493 7
  23268168.938    23268176.566    -3813134.853 7  -5419882.177 8
 88  3 21  3  1 59.0800000  0  3G 6G 8G11
  21580070.106    21580073.951    -1486604.896 9  -3617366.913 9
  20630999.222    20631005.305    -4975802.409 8   4258886.363 8
  23247575.291    23247584.245    -3921351.436 8  -5504206.709 8
 88  3 21  3  2 29.0800000  0  3G 6G 8G11
  21568830.489    21568832.631    -1545672.795 9  -3663393.831 9
  20619826.206    20619829.756    -5034519.069 8   4213133.148 6
  23227018.231    23227025.568    -4029378.376 8  -5588383.486 7
 88  3 21  3  2 59.0800000  0  3G 6G 8G11
  21557603.811    21557608.825    -1604654.944 8  -3709353.907 9
  20608770.774    20608775.321    -5092615.774 8   4167863.031 8
  23206498.961    23206506.268    -4137213.281 7  -5672410.614 8
 88  3 21  3  3 29.0800000  0  3G 6G 8G11
  21546396.257    21546400.349    -1663549.596 8  -3755245.798 9
  20597834.308    20597837.998    -5150090.178 9   4123077.832 7
  23186016.943    23186021.415    -4244853.116 8  -5756285.723 7
 88  3 21  3  3 59.0800000  0  3G 6G 8G11
  21535207.612    21535210.790    -1722355.005 9  -3801068.165 8
  20587016.072    20587020.123    -5206939.993 9   4078779.293 8
  23165571.192    23165575.981    -4352294.993 8  -5840006.609 8
 88  3 21  3  4 29.0800000  0  3G 6G 8G11
  21524035.668    21524039.012    -1781070.357 9  -3846820.380 9
  20576317.131    20576320.672    -5263163.531 9   4034968.778 8
  23145162.968    23145169.211    -4459536.705 9  -5923571.519 7
 88  3 21  3  4 59.0800000  0  3G 6G 8G11
  21512877.890    21512882.480    -1839694.482 9  -3892501.501 9
  20565737.114    20565741.638    -5318759.053 8   3991647.615 7
  23124793.719    23124801.049    -4566575.032 8  -6006977.944 9
 88  3 21  3  5 29.0800000  0  3G 6G 8G11
  21501738.862    21501744.098    -1898225.677 8  -3938110.146 9
  20555278.035    20555281.996    -5373724.388 9   3948817.512 8
  23104463.550    23104470.324    -4673407.126 9  -6090223.683 8
 88  3 21  3  5 59.0800000  0  3G 6G 8G11
  21490620.209    21490624.034    -1956662.153 9  -3983645.033 9
  20544938.517    20544943.774    -5428056.786 8   3906480.603 8
  23084173.438    23084182.009    -4780030.042 9  -6173306.387 7
 88  3 21  3  6 29.0800000  0  3G 6G 8G11
  21479518.952    21479522.896    -2015001.943 9  -4029104.638 9
  20534720.918    20534725.740    -5481753.929 9   3864638.705 7
  23063925.555    23063931.951    -4886440.184 7  -6256223.328 8
 88  3 21  3  6 59.0800000  0  3G 6G 8G11
  21468433.898    21468439.435    -2073244.206 8  -4074488.189 9
  20524623.319    20524626.488    -5534814.496 8   3823292.856 7
  23043717.128    23043723.055    -4992635.304 9  -6338972.706 7
 88  3 21  3  7 29.0800000  0  3G 6G 8G11
  21457370.493    21457375.711    -2131387.489 9  -4119794.563 9
  20514647.914    20514652.696    -5587236.430 8   3782444.622 8
  23023551.135    23023556.722    -5098612.701 8  -6421552.454 8
 88  3 21  3  7 59.0800000  0  3G 6G 8G11
  21446326.587    21446329.339    -2189429.802 8  -4165022.292 8
  20504793.429    20504797.890    -5639017.800 8   3742095.548 8
  23003425.960    23003431.291    -5204369.340 8  -6503960.152 7
 88  3 21  3  8 29.0800000  0  3G 6G 8G11
  21435300.406    21435303.611    -2247370.149 8  -4210170.626 8
  20495061.143    20495066.596    -5690156.881 9   3702246.942 7
  22983342.023    22983348.867    -5309902.721 7  -6586193.901 8
 88  3 21  3  8 59.0800000  0  3G 6G 8G11
  21424292.559    21424297.085    -2305206.572 8  -4255237.957 8
  20485453.743    20485458.092    -5740651.408 9   3662900.583 8
  22963303.300    22963310.442    -5415209.576 7  -6668251.112 8
 88  3 21  3  9 29.0800000  0  3G 6G 8G11
  21413308.322    21413312.940    -2362937.272 9  -4300222.856 9
  20475967.598    20475972.436    -5790499.616 9   3624057.876 7
  22943309.417    22943315.325    -5520286.831 7  -6750129.427 9
 88  3 21  3  9 59.0800000  0  3G 6G 8G11
  21402343.412    21402346.995    -2420560.940 9  -4345124.390 9
  20466604.660    20466608.925    -5839699.753 8   3585720.136 7
  22923357.477    22923362.518    -5625131.995 9  -6831826.903 8
 88  3 21  3 10 29.0800000  0  3G 6G 8G11
  21391397.906    21391401.616    -2478075.995 8  -4389941.308 7
  20457366.473    20457371.439    -5888250.201 8   3547888.654 7
  22903449.049    22903457.373    -5729742.177 8  -6913341.274 8
 88  3 21  3 10 59.0800000  0  3G 6G 8G11
  21380472.084    21380477.150    -2535480.660 8  -4434672.174 9
  20448251.339    20448256.601    -5936149.163 8   3510564.832 7
  22883588.933    22883594.706    -5834114.334 8  -6994670.183 7
 88  3 21  3 11 29.0800000  0  3G 6G 8G11
  21369572.669    21369574.652    -2592773.242 9  -4479315.716 8
  20439260.642    20439265.020    -5983394.772 8   3473750.102 7
  22863772.950    22863779.222    -5938245.439 8  -7075811.262 8
 88  3 21  3 11 59.0800000  0  3G 6G 8G11
  21358692.149    21358696.757    -2649951.982 9  -4523870.572 8
  20430395.110    20430399.170    -6029985.430 9   3437445.741 7
  22844004.102    22844011.747    -6042132.646 8  -7156762.263 8
 88  3 21  3 12 29.0800000  0  3G 6G 8G11
  21347831.134    21347836.739    -2707015.779 9  -4568335.812 9
  20421652.852    20421659.046    -6075919.422 9   3401653.047 7
  22824283.934    22824286.721    -6145773.693 9  -7237521.477 8
 88  3 21  3 12 59.0800000  0  3G 6G 8G11
  21336994.994    21336998.280    -2763963.090 8  -4612710.279 8
  20413038.225    20413042.377    -6121195.538 9   3366372.991 8
  22804606.849    22804612.975    -6249166.038 8  -7318086.901 8
 88  3 21  3 13 29.0800000  0  3G 6G 8G11
  21326181.893    21326183.640    -2820791.538 9  -4656992.216 8
  20404548.058    20404551.369    -6165811.543 8   3331607.316 7
  22784980.447    22784985.449    -6352305.774 8  -7398455.483 8
 88  3 21  3 13 59.0800000  0  3G 6G 8G11
  21315389.677    21315394.986    -2877499.688 8  -4701180.366 9
  20396185.045    20396187.579    -6209765.856 8   3297357.231 7
  22765402.585    22765408.084    -6455190.693 8  -7478625.515 8
 88  3 21  3 14 29.0800000  0  3G 6G 8G11
  21304620.509    21304625.813    -2934085.885 9  -4745273.439 9
  20387947.414    20387948.546    -6253057.057 9   3263623.853 8
  22745870.694    22745879.328    -6557817.737 7  -7558594.576 8
 88  3 21  3 14 59.0800000  0  3G 6G 8G11
  21293879.462    21293881.144    -2990547.814 9  -4789269.709 7
  20379834.353    20379838.844    -6295683.495 9   3230408.477 8
  22726392.003    22726398.655    -6660183.604 7  -7638360.137 7
 88  3 21  3 15 29.0800000  0  3G 6G 8G11
  21283158.410    21283159.306    -3046884.540 9  -4833168.484 8
  20371849.788    20371853.683    -6337644.004 9   3197712.006 7
  22706962.422    22706969.561    -6762286.218 8  -7717920.592 7
 88  3 21  3 15 59.0800000  0  3G 6G 8G11
  21272460.213    21272464.120    -3103094.358 8  -4876968.326 8
  20363990.801    20363996.099    -6378937.081 9   3165535.604 8
  22687583.270    22687590.758    -6864122.815 7  -7797273.731 8
 88  3 21  3 16 29.0800000  0  3G 6G 8G11
  21261789.382    21261793.641    -3159176.317 9  -4920668.492 9
  20356261.485    20356265.294    -6419561.821 9   3133879.979 7
  22668255.906    22668262.642    -6965691.442 7  -7876418.073 8
 88  3 21  3 16 59.0800000  0  3G 6G 8G11
  21251143.114    21251145.523    -3215127.771 9  -4964266.999 8
  20348658.288    20348662.199    -6459516.769 9   3102746.286 8
  22648978.403    22648986.324    -7066988.373 7  -7955350.700 7
 88  3 21  3 17 29.0800000  0  3G 6G 8G11
  21240518.719    21240522.199    -3270946.651 8  -5007762.240 9
  20341183.615    20341186.910    -6498799.812 9   3072136.137 7
  22629755.773    22629762.472    -7168010.572 8  -8034069.258 8
 88  3 21  3 17 59.0800000  0  3G 6G 8G11
  21229921.728    21229926.203    -3326632.092 9  -5051153.458 9
  20333835.043    20333840.187    -6537410.410 8   3042049.997 7
  22610583.647    22610591.212    -7268756.013 8  -8112572.173 9
 88  3 21  3 18 29.0800000  0  3G 6G 8G11
  21219352.425    21219356.641    -3382181.495 9  -5094438.696 8
  20326616.140    20326620.400    -6575346.800 9   3012489.211 7
  22591466.795    22591474.290    -7369221.138 8  -8190856.637 8
 88  3 21  3 18 59.0800000  0  3G 6G 8G11
  21208810.205    21208811.225    -3437593.996 9  -5137617.247 8
  20319524.980    20319529.202    -6612608.383 9   2983454.253 7
  22572403.988    22572410.374    -7469404.133 8  -8268921.275 8
 88  3 21  3 19 29.0800000  0  3G 6G 8G11
  21198288.055    21198291.774    -3492867.370 9  -5180687.374 8
  20312564.413    20312568.815    -6649193.702 8   2954946.235 8
  22553393.217    22553399.735    -7569301.688 7  -8346763.458 8
 88  3 21  3 19 59.0800000  0  3G 6G 8G11
  21187797.928    21187800.570    -3547998.757 9  -5223646.876 9
  20305730.447    20305734.301    -6685100.424 9   2926966.998 8
  22534438.668    22534444.173    -7668910.131 8  -8424380.371 8
 88  3 21  3 20 29.0800000  0  3G 6G 8G11
  21177336.212    21177339.703    -3602986.959 9  -5266494.842 8
  20299026.990    20299032.248    -6720327.999 9   2899516.969 7
  22515539.401    22515544.600    -7768227.574 8  -8501770.567 8
 88  3 21  3 20 59.0800000  0  3G 6G 8G11
  21166895.829    21166902.770    -3657830.592 9  -5309230.103 9
  20292452.450    20292457.583    -6754875.682 9   2872596.718 8
  22496695.201    22496702.152    -7867251.649 7  -8578932.140 8
 88  3 21  3 21 29.0800000  0  3G 6G 8G11
  21156490.771    21156492.145    -3712527.857 8  -5351851.282 7
  20286008.472    20286012.936    -6788742.531 8   2846206.994 8
  22477909.002    22477913.355    -7965979.386 8  -8655862.809 8
 88  3 21  3 21 59.0800000  0  3G 6G 8G11
  21146108.036    21146111.886    -3767076.843 8  -5394357.018 8
  20279693.588    20279697.713    -6821927.322 8   2820348.761 8
  22459178.266    22459182.698    -8064408.131 8  -8732560.478 8
 88  3 21  3 22 29.0800000  0  3G 6G 8G11
  21135755.770    21135761.361    -3821475.010 8  -5436745.185 9
  20273507.296    20273511.897    -6854428.508 8   2795023.167 8
  22440504.950    22440510.931    -8162534.556 9  -8809022.572 8
 88  3 21  3 22 59.0800000  0  3G 6G 8G11
  21125433.245    21125438.567    -3875721.076 8  -5479014.774 9
  20267454.272    20267458.574    -6886245.409 8   2770230.809 8
  22421889.991    22421895.173    -8260356.359 7  -8885247.323 8
 88  3 21  3 23 29.0800000  0  3G 6G 8G11
  21115142.755    21115144.219    -3929813.889 9  -5521165.003 8
  20261528.652    20261534.250    -6917378.112 9   2745971.574 7
  22403333.622    22403339.389    -8357871.833 8  -8961233.385 8
 88  3 21  3 23 59.0800000  0  3G 6G 8G11
  21104875.686    21104880.177    -3983750.862 8  -5563193.834 9
  20255736.002    20255739.760    -6947824.770 9   2722246.928 9
  22384835.480    22384842.054    -8455077.337 8  -9036977.908 8
 88  3 21  3 24 29.0800000  0  3G 6G 8G11
  21094643.463    21094648.849    -4037529.862 8  -5605099.494 9
  20250073.277    20250076.007    -6977584.169 9   2699057.834 7
  22366398.756    22366403.830    -8551970.261 8  -9112478.835 8
 88  3 21  3 24 59.0800000  0  3G 6G 8G11
  21084442.111    21084444.667    -4091149.150 9  -5646880.728 9
  20244540.654    20244544.259    -7006655.791 9   2676404.626 8
  22348019.016    22348025.733    -8648548.046 8  -9187734.233 8
 88  3 21  3 25 29.0800000  0  3G 6G 8G11
  21074267.685    21074270.280    -4144606.589 8  -5688535.869 8
  20239139.981    20239142.941    -7035038.221 8   2654288.500 7
  22329702.178    22329707.682    -8744807.658 8  -9262741.701 7
 88  3 21  3 25 59.0800000  0  3G 6G 8G11
  21064124.509    21064130.424    -4197900.940 8  -5730063.911 9
  20233869.847    20233874.041    -7062731.994 8   2632708.954 7
  22311443.919    22311449.843    -8840747.548 8  -9337500.019 8
 88  3 21  3 26 29.0800000  0  3G 6G 8G11
  21054014.590    21054019.657    -4251036.851 9  -5608024.326 7
  20228729.445    20228733.475    -7120669.720 8   2687097.334 7
  22293250.321    22293256.119    -8953422.202 8  -9341400.275 7
 88  3 21  3 26 59.0800000  0  3G 6G 8G11
  21043937.150    21043940.627    -4303998.350 9  -5649292.530 7
  20223724.513    20223727.601    -7178090.509 8   2666593.878 7
  22275116.499    22275122.241    -9065861.871 8  -9415652.711 7
 88  3 21  3 27 29.0800000  0  3G 6G 8G11
  21033889.818    21033893.306    -4356792.640 9  -5690430.899 8
  20218847.371    20218852.355    -7203713.904 9   2646627.629 7
  22257045.040    22257051.076    -9160826.219 8  -9489650.861 8
 88  3 21  3 27 59.0800000  0  3G 6G 8G11
  21023877.705    21023879.839    -4409415.475 8  -5731435.708 8
  20214103.819    20214107.128    -7228645.010 8   2627200.844 8
  22239037.073    22239042.770    -9255459.147 8  -9563390.781 8
 88  3 21  3 28 29.0800000  0  3G 6G 8G11
  21013897.035    21013900.897    -4461863.821 9  -5772304.557 8
  20209490.574    20209494.503    -7252882.258 8   2608314.692 8
  22221092.383    22221098.732    -9349757.173 7  -9636869.741 8
 88  3 21  3 28 59.0800000  0  3G 6G 8G11
  21003948.114    21003952.942    -4514136.373 8  -5813036.381 8
  20205010.280    20205017.036    -7276425.654 8   2589969.216 7
  22203212.322    22203217.443    -9443718.466 8  -9710086.305 8
 88  3 21  3 29 29.0800000  0  3G 6G 8G11
  20994036.712    20994039.494    -4566231.743 9  -5853630.145 7
  20200662.788    20200665.864    -7299275.037 7   2572164.519 7
  22185397.584    22185400.724    -9537340.744 8  -9783038.699 8
 88  3 21  3 29 59.0800000  0  3G 6G 8G11
  20984156.723    20984159.371    -4618147.613 8  -5894084.073 8
  20196446.213    20196450.485    -7321429.648 9   2554901.213 7
  22167647.577    22167652.208    -9630621.384 8  -9855724.886 8
 88  3 21  3 30 29.0800000  0  3G 6G 8G11
  20974311.203    20974315.308    -4669881.783 9  -5934396.407 8
  20192362.571    20192366.534    -7342888.813 8   2538179.782 7
  22149960.431    22149965.944    -9723557.624 7  -9928142.720 7
 88  3 21  3 30 59.0800000  0  3G 6G 8G11
  20964502.678    20964504.512    -4721431.945 9  -5974565.328 7
  20188412.188    20188415.246    -7363651.588 9   2522001.037 7
  22132341.753    22132347.689    -9816146.208 7 -10000289.647 7
 88  3 21  3 31 29.0800000  0  3G 6G 8G11
  20954726.742    20954730.521    -4772796.364 8  -6014589.563 7
  20184592.672    20184596.340    -7383717.899 8   2506364.973 6
  22114788.373    22114794.456    -9908385.241 8 -10072164.211 7
 88  3 21  3 31 59.0800000  0  3G 6G 8G11
  20944990.141    20944993.614    -4823973.431 9  -6054467.790 8
  20180907.152    20180911.290    -7403088.220 8   2491271.240 7
  22097301.169    22097308.906   -10000272.656 7 -10143764.783 8
 88  3 21  3 32 29.0800000  0  3G 6G 8G11
  20935286.648    20935289.776    -4874960.583 9  -6094198.031 7
  20177352.596    20177357.595    -7421761.048 8   2476720.999 6
  22079885.590    22079890.420   -10091805.046 7 -10215088.673 8
 88  3 21  3 32 59.0800000  0  3G 6G 8G11
  20925620.583    20925623.725    -4925757.325 8  -6133779.897 8
  20173933.292    20173934.927    -7439737.858 8   2462713.121 6
  22062534.852    22062539.139   -10182981.563 8 -10286135.301 7
 88  3 21  3 33 29.0800000  0  3G 6G 8G11
  20915989.415    20915993.052    -4976360.929 8  -6173211.261 8
  20170645.232    20170648.031    -7457017.601 9   2449248.381 6
  22045250.193    22045259.248   -10273799.396 7 -10356902.436 8
 88  3 21  3 33 59.0800000  0  3G 6G 8G11
  20906397.365    20906402.171    -5026768.765 8  -6212490.086 8
  20167490.915    20167493.042    -7473599.496 8   2436327.436 7
  22028038.933    22028046.558   -10364255.472 8 -10427387.680 8
 88  3 21  3 34 29.0800000  0  3G 6G 8G11
  20896843.649    20896847.333    -5076979.581 7  -6251615.384 8
  20164467.985    20164471.334    -7489484.177 9   2423949.794 7
  22010895.421    22010901.647   -10454347.571 8 -10497589.303 8
 88  3 21  3 34 59.0800000  0  3G 6G 8G11
  20887326.259    20887329.486    -5126991.278 8  -6290585.506 9
  20161577.044    20161579.999    -7504671.246 8   2412115.712 7
  21993822.102    21993827.126   -10544073.300 7 -10567505.430 8
 88  3 21  3 35 29.0800000  0  3G 6G 8G11
  20877847.709    20877851.900    -5176802.128 8  -6329399.145 8
  20158819.357    20158823.749    -7519161.594 9   2400824.554 7
  21976817.581    21976822.594   -10633430.940 9 -10637134.747 8
 88  3 21  3 35 59.0800000  0  3G 6G 8G11
  20868407.680    20868412.849    -5226408.745 8  -6368053.639 9
  20156194.959    20156199.730    -7532953.085 8   2390077.955 7
  21959884.748    21959890.886   -10722416.191 9 -10706473.894 7
 88  3 21  3 36 29.0800000  0  3G 6G 8G11
  20859006.852    20859011.148    -5275809.763 7  -6406547.917 8
  20153704.483    20153706.161    -7546046.698 9   2379875.154 6
  21943021.136    21943026.399   -10811027.909 8 -10775521.967 7
 88  3 21  3 36 59.0800000  0  3G 6G 8G11
  20849645.825    20849649.157    -5325003.699 8  -6444880.834 8
  20151344.947    20151348.165    -7558443.078 9   2370215.669 6
  21926231.028    21926235.601   -10899263.841 9 -10844277.217 7
 88  3 21  3 37 29.0800000  0  3G 6G 8G11
  20840325.224    20840329.437    -5373987.915 8  -6483050.340 8
  20149118.417    20149121.312    -7570141.677 9   2361099.886 7
  21909512.491    21909517.248   -10987121.247 8 -10912737.518 7
 88  3 21  3 37 59.0800000  0  3G 6G 8G11
  20831044.713    20831047.249    -5422761.034 9  -6521055.349 9
  20147023.944    20147027.449    -7581142.890 8   2352527.544 6
  21892865.024    21892871.414   -11074598.529 9 -10980901.630 9
 88  3 21  3 38 29.0800000  0  3G 6G 8G11
  20821802.998    20821806.716    -5471320.302 8  -6558893.730 8
  20145063.978    20145068.074    -7591446.519 9   2344498.744 7
  21876290.903    21876298.888   -11161692.773 7 -11048767.237 7
 88  3 21  3 38 59.0800000  0  3G 6G 8G11
  20812604.105    20812606.398    -5519663.608 9  -6596563.815 8
  20143236.828    20143239.541    -7601052.561 9   2337013.542 6
  21859792.593    21859797.867   -11248401.221 8 -11116332.241 7
 88  3 21  3 39 29.0800000  0  3G 6G 8G11
  20803445.532    20803449.351    -5567788.450 8  -6634063.704 8
  20141541.028    20141544.323    -7609960.867 9   2330072.027 6
  21843365.643    21843371.168   -11334721.477 9 -11183594.767 8
 88  3 21  3 39 59.0800000  0  3G 6G 8G11
  20794328.830    20794332.115    -5615693.991 9  -6671392.663 8
  20139977.531    20139980.300    -7618172.474 9   2323673.385 7
  21827012.777    21827018.856   -11420652.524 9 -11250553.994 8
 88  3 21  3 40 29.0800000  0  3G 6G 8G11
  20785257.088    20785258.881    -5663377.087 9  -6708548.315 8
  20138547.891    20138552.154    -7625687.229 9   2317817.759 7
  21810736.541    21810741.092   -11506190.901 8 -11317207.244 8
 88  3 21  3 40 59.0800000  0  3G 6G 8G11
  20776225.666    20776228.947    -5710835.344 9  -6745528.778 8
  20137251.347    20137254.427    -7632504.957 8   2312505.256 6
  21794535.561    21794538.630   -11591333.766 7 -11383552.328 8
 88  3 21  3 41 29.0800000  0  3G 6G 8G11
  20767237.918    20767239.815    -5758066.874 9  -6782332.550 8
  20136086.322    20136090.157    -7638625.908 8   2307735.704 6
  21778409.889    21778413.617   -11676079.455 8 -11449587.907 8
 88  3 21  3 41 59.0800000  0  3G 6G 8G11
  20758292.925    20758296.521    -5805068.618 9  -6818957.289 8
  20135053.858    20135056.732    -7644049.690 9   2303509.408 6
  21762356.866    21762362.379   -11760424.618 9 -11515311.387 7
 88  3 21  3 42 29.0800000  0  3G 6G 8G11
  20749393.093    20749397.202    -5851840.365 9  -6855402.814 9
  20134154.803    20134158.164    -7648778.461 9   2299824.651 7
  21746382.333    21746388.321   -11844368.740 9 -11580722.376 7
 88  3 21  3 42 59.0800000  0  3G 6G 8G11
  20740535.898    20740540.933    -5898378.584 9  -6891666.323 9
  20133386.802    20133390.021    -7652811.730 9   2296681.865 7
  21730487.381    21730491.221   -11927908.495 9 -11645818.269 6
 88  3 21  3 43 29.0800000  0  3G 6G 8G11
  20731724.560    20731728.214    -5944682.003 9  -6927746.904 8
  20132751.645    20132754.783    -7656150.574 9   2294080.182 7
  21714666.845    21714672.063   -12011042.696 8 -11710598.143 8
 88  3 21  3 43 59.0800000  0  3G 6G 8G11
  20722958.829    20722962.693    -5990747.416 8  -6963642.035 7
  20132248.509    20132251.679    -7658793.960 8   2292020.439 6
  21698923.484    21698928.104   -12093767.956 8 -11775059.352 8
 88  3 21  3 44 29.0800000  0  3G 6G 8G11
  20714239.146    20714242.318    -6036572.553 9  -6999349.937 8
  20131877.967    20131880.837    -7660742.242 9   2290502.312 7
  21683260.111    21683265.577   -12176081.836 9 -11839200.014 8
 88  3 21  3 44 59.0800000  0  3G 6G 8G11
  20705565.481    20705567.893    -6082155.852 9  -7034869.376 7
  20131638.625    20131642.171    -7661996.896 9   2289524.645 7
  21667674.976    21667681.473   -12257982.568 8 -11903018.758 8
 88  3 21  3 45 29.0800000  0  3G 6G 8G11
  20696936.839    20696937.372    -6127495.326 9  -7070198.820 8
  20131530.925    20131535.795    -7662558.632 8   2289086.941 7
  21652167.303    21652174.160   -12339468.499 8 -11966514.257 8
 88  3 21  3 45 59.0800000  0  3G 6G 8G11
  20688356.869    20688358.912    -6172588.937 9  -7105336.695 9
  20131556.043    20131560.985    -7662428.651 8   2289188.257 7
  21636741.903    21636745.768   -12420537.777 8 -12029685.102 8
 88  3 21  3 46 29.0800000  0  3G 6G 8G11
  20679821.837    20679824.862    -6217434.534 8  -7140281.314 8
  20131711.891    20131714.792    -7661607.029 8   2289828.493 7
  21621393.193    21621400.639   -12501187.923 9 -12092529.359 8
 88  3 21  3 46 59.0800000  0  3G 6G 8G11
  20671335.626    20671339.857    -6262028.689 9  -7175030.011 7
  20132000.576    20132003.103    -7660093.156 9   2291008.154 7
  21606127.652    21606133.152   -12581415.503 7 -12155044.318 8
 88  3 21  3 47 29.0800000  0  3G 6G 8G11
  20662897.748    20662901.224    -6306369.659 8  -7209581.414 9
  20132419.483    20132425.425    -7657888.398 8   2292726.138 7
  21590941.723    21590947.584   -12661218.972 8 -12217228.832 8
 88  3 21  3 47 59.0800000  0  3G 6G 8G11
  20654508.124    20654512.471    -6350455.319 8  -7243933.829 8
  20132971.972    20132974.780    -7654993.762 8   2294981.713 7
  21575836.372    21575842.126   -12740595.998 9 -12279081.016 8
 88  3 21  3 48 29.0800000  0  3G 6G 8G11
  20646168.068    20646170.638    -6394283.004 8  -7278085.273 8
  20133653.673    20133656.910    -7651409.450 8   2297774.694 6
  21560813.305    21560819.723   -12819544.549 8 -12340599.349 7
 88  3 21  3 48 59.0800000  0  3G 6G 8G11
  20637878.583    20637881.033    -6437850.414 8  -7312033.894 9
  20134466.415    20134469.754    -7647136.156 8   2301104.546 7
  21545871.444    21545876.225   -12898062.529 8 -12401782.139 7
 88  3 21  3 49 29.0800000  0  3G 6G 8G11
  20629637.657    20629640.399    -6481155.991 7  -7345778.512 8
  20135409.881    20135415.289    -7642175.336 8   2304970.121 7
  21531013.126    21531018.398   -12976148.229 8 -12462628.116 8
 88  3 21  3 49 59.0800000  0  3G 6G 8G11
  20621445.563    20621450.241    -6524196.903 8  -7379316.868 8
  20136483.872    20136490.077    -7636527.562 8   2309371.000 7
  21516235.333    21516241.790   -13053799.296 8 -12523135.398 7
 88  3 21  3 50 29.0800000  0  3G 6G 8G11
  20613307.429    20613310.215    -6566971.108 8  -7412647.419 8
  20137689.804    20137695.237    -7630193.745 7   2314306.441 6
  21501543.464    21501548.351   -13131013.629 9 -12583302.365 7
 88  3 21  3 50 59.0800000  0  3G 6G 8G11
  20605217.557    20605220.986    -6609476.363 7  -7445768.367 8
  20139025.237    20139030.375    -7623174.414 8   2319776.066 6
  21486933.493    21486938.045   -13207788.979 8 -12643127.289 8
 88  3 21  3 51 29.0800000  0  3G 6G 8G11
  20597181.279    20597185.324    -6651709.967 8  -7478677.683 8
  20140492.433    20140496.499    -7615470.184 8   2325779.371 6
  21472407.445    21472412.040   -13284123.128 9 -12702608.415 7
 88  3 21  3 51 59.0800000  0  3G 6G 8G11
  20589195.179    20589203.236    -6693668.962 9  -7511372.993 8
  20142088.587    20142092.805    -7607081.346 8   2332316.132 7
  21457965.214    21457970.345   -13360013.664 8 -12761743.862 7
 88  3 21  3 52 29.0800000  0  3G 6G 8G11
  20581263.988    20581269.304    -6735352.675 9  -7543853.794 8
  20143814.383    20143817.524    -7598010.529 9   2339384.315 7
  21443608.953    21443612.935   -13435459.939 9 -12820533.161 8
 88  3 21  3 52 59.0800000  0  3G 6G 8G11
  20573386.005    20573390.220    -6776758.112 9  -7576117.764 8
  20145670.764    20145675.031    -7588257.798 8   2346983.865 7
  21429336.679    21429340.947   -13510458.974 8 -12878973.919 7
 88  3 21  3 53 29.0800000  0  3G 6G 8G11
  20565559.331    20565563.842    -6817883.604 9  -7608163.601 8
  20147655.994    20147658.815    -7577825.134 8   2355113.225 7
  21415150.907    21415154.622   -13585009.963 8 -12937065.596 7
 88  3 21  3 53 59.0800000  0  3G 6G 8G11
  20557787.628    20557791.445    -6858726.960 9  -7639989.579 8
  20149769.804    20149772.768    -7566713.455 8   2363771.674 7
  21401049.254    21401054.802   -13659110.751 9 -12994806.447 7
 88  3 21  3 54 29.0800000  0  3G 6G 8G11
  20550071.020    20550073.267    -6899286.336 8  -7671594.288 7
  20152014.275    20152016.647    -7554924.275 9   2372958.064 7
  21387034.068    21387039.533   -13732759.549 9 -13052195.100 6
 88  3 21  3 54 59.0800000  0  3G 6G 8G11
  20542405.333    20542410.783    -6939558.465 8  -7702975.158 9
  20154386.390    20154388.504    -7542457.873 8   2382672.150 7
  21373105.040    21373110.065   -13805953.860 9 -13109229.607 7
 88  3 21  3 55 29.0800000  0  3G 6G 8G11
  20534798.474    20534801.784    -6979541.501 8  -7734130.744 8
  20156887.144    20156889.104    -7529315.935 8   2392912.624 7
  21359264.005    21359268.218   -13878692.077 8 -13165908.720 7
 88  3 21  3 55 59.0800000  0  3G 6G 8G11
  20527245.505    20527247.300    -7019233.126 9  -7765059.290 7
  20159515.749    20159519.846    -7515499.551 8   2403678.660 7
  21345509.239    21345514.256   -13950972.207 9 -13222230.858 8
 88  3 21  3 56 29.0800000  0  3G 6G 8G11
  20519747.818    20519749.786    -7058631.209 9  -7795759.093 8
  20162272.544    20162275.740    -7501009.894 8   2414969.323 8
  21331840.542    21331846.941   -14022792.915 8 -13278195.026 7
 88  3 21  3 56 59.0800000  0  4G 6G 8G11G 9
  20512305.737    20512310.428    -7097736.058 8  -7826230.398 9
  20165157.409    20165161.352    -7485850.942 9   2426781.492 6
  21318261.246    21318269.019   -14094154.447 8 -13333801.389 8
  22658418.205    22658422.282   -26829266.289 7  34117366.565 7
 88  3 21  3 57 29.0800000  0  4G 6G 8G11G 9
  20504922.325    20504925.229    -7136543.417 9  -7856469.881 8
  20168169.991    20168174.126    -7470022.083 9   2439115.688 6
  21304771.242    21304776.060   -14165053.365 8 -13389047.266 8
  22641453.529    22641461.174   -26918419.743 1  34047896.925 1
 88  3 21  3 57 59.0800000  0  4G 6G 8G11G 9
  20497593.481    20497597.749    -7175050.812 9  -7886475.637 8
  20171309.251    20171313.377    -7453524.054 8   2451971.297 6
  21291367.774    21291372.187   -14235487.803 9 -13443931.207 7
  22624497.627    22624500.338   -27007528.991 1  33978461.162 1
 88  3 21  3 58 29.0800000  0  4G 6G 8G11G 9
  20490323.382    20490325.585    -7213256.045 9  -7916245.936 8
  20174575.320    20174577.971    -7436358.728 9   2465346.867 7
  21278052.992    21278058.301   -14305455.852 9 -13498451.723 7
  22607547.734    22607552.849   -27096592.384 9  33909061.155 9
 88  3 21  3 58 59.0800000  0  4G 6G 8G11G 9
  20483110.341    20483114.507    -7251156.937 9  -7945779.115 8
  20177968.405    20177970.019    -7418527.673 9   2479241.213 7
  21264828.326    21264833.324   -14374956.022 8 -13552607.678 7
  22590606.537    22590615.679   -27185607.963 1  33839698.408 1
 88  3 21  3 59 29.0800000  0  4G 6G 8G11G 9
  20475958.396    20475960.873    -7288750.916 9  -7975073.121 8
  20181488.109    20181491.618    -7400032.009 8   2493653.430 8
  21251692.823    21251696.932   -14443985.988 9 -13606397.244 7
                  20938771.937   -27895042.199 1
 88  3 21  3 59 59.0800000  0  4G 6G 8G11G 9
  20468862.177    20468865.761    -7326035.502 8  -8004126.039 8
  20185134.620    20185137.974    -7380872.628 8   2508582.828 6
  21238645.697    21238650.122   -14512543.850 8 -13659818.916 7
                  21104883.376   -28410922.306 1
 88  3 21  4  0 29.0800000  0  4G 6G 8G11G 9
  20461827.447    20461829.456    -7363008.370 8  -8032936.035 8
  20188906.887    20188909.015    -7361051.242 8   2524028.068 8
  21225690.132    21225694.656   -14580628.236 8 -13712871.676 7
                  20825335.404   -29707198.788 1
 88  3 21  4  0 59.0800000  0  4G 6G 8G11G 9
  20454850.847    20454855.136    -7399666.929 8  -8061501.150 8
  20192803.882    20192806.055    -7340569.522 9   2539987.848 7
  21212824.259    21212828.536   -14648237.095 8 -13765553.863 8
                  21092924.223   -28443673.837 1
 88  3 21  4  1 29.0800000  0  4G 6G 8G11G 9
  20447934.028    20447937.641    -7436009.646 8  -8089820.160 8
  20196826.189    20196830.482    -7319429.228 8   2556460.819 7
  21200050.256    21200054.292   -14715369.194 9 -13817864.566 8
                  20912076.535   -29141953.246 1
 88  3 21  4  1 59.0800000  0  4G 6G 8G11G 9
  20441078.919    20441082.957    -7472034.164 9  -8117891.218 9
  20200974.445    20200978.655    -7297632.122 9   2573445.586 7
  21187365.439    21187371.410   -14782023.030 8 -13869802.591 7
                  20505257.397   -30621160.796 1
 88  3 21  4  2 29.0800000  0  4G 6G 8G11G 9
  20434284.922    20434289.527    -7507737.785 9  -8145712.199 8
  20205247.235    20205251.455    -7275179.207 7   2590941.359 7
  21174773.674    21174776.227   -14848196.674 8 -13921366.433 8
                  20090457.192   -32883048.984 1
 88  3 21  4  2 59.0800000  0  4G 6G 8G11G 9
  20427552.991    20427555.694    -7543118.882 8  -8173281.885 7
  20209644.354    20209648.019    -7252072.762 8   2608946.406 6
  21162272.720    21162276.948   -14913889.056 8 -13972555.287 9
                  19684873.510   -35923483.778 1
 88  3 21  4  3 29.0800000  0  4G 6G 8G11G 9
  20420881.378    20420884.377    -7578174.924 8  -8200598.282 8
  20214164.873    20214169.888    -7228314.369 8   2627459.430 7
  21149862.364    21149868.329   -14979098.325 9 -14023367.661 8
                  18892435.564   -39744831.761 1
 88  3 21  4  3 59.0800000  0  4G 6G 8G11G 9
  20414270.728    20414275.414    -7612903.186 7  -8227659.235 8
  20218808.743    20218813.895    -7203905.289 6   2646479.526 5
  21137546.674    21137551.356   -15043822.475 8 -14073802.045 7
                  17834961.111   -44346035.666 1
 88  3 21  4  4 29.0800000  0  4G 6G 8G11G 9
  20407725.608    20407729.785    -7647301.752 8  -8254463.313 8
  20223577.935    20223582.967    -7178847.489 8   2666005.073 7
  21125321.025    21125328.235   -15108060.399 8 -14123857.542 7
                  16868428.644   -49729056.584 1
 88  3 21  4  4 59.0800000  0  3G 6G 8G11
  20401245.081    20401248.648    -7681368.510 9  -8281008.849 8
  20228469.389    20228473.014    -7153142.854 9   2686034.683 8
  21113191.665    21113197.269   -15171810.935 9 -14173533.238 7
 88  3 21  4  5 29.0800000  0  3G 6G 8G11
  20394824.753    20394829.879    -7715100.657 4  -8307293.623 4
  20233483.606    20233485.452    -7126792.595 6   2706567.351 4
  21101151.788    21101158.534   -15235071.916 6 -14222827.469 3
 88  3 21  4  5 59.0800000  0  4G 6G 8G11G 9
  20388470.606    20388473.473    -7748496.308 8  -8333316.210 7
  20238620.260    20238624.555    -7099798.671 8   2727601.575 7
  21089208.305    21089214.126   -15297842.081 9 -14271739.276 7
  22354627.350    22354630.354   -30105839.087 8  38280052.036 1
 88  3 21  4  6 29.0800000  0  4G 6G 8G11G 9
  20382179.289    20382182.414    -7781552.901 8  -8359074.582 8
  20243879.747    20243884.176    -7072162.962 8   2749135.905 7
  21077356.581    21077363.458   -15360119.746 7 -14320267.271 7
  22337871.147    22337873.866   -30193899.805 8  38211433.356 8
 88  3 21  4  6 59.0800000  0  4G 6G 8G11G 9
  20375955.056    20375956.913    -7814267.633 8  -8384566.574 6
  20249260.901    20249264.948    -7043886.859 9   2771169.231 8
  21065599.718    21065605.244   -15421902.953 9 -14368410.001 6
  22321128.978    22321132.605   -30281880.176 8  38142877.247 8
 88  3 21  4  7 29.0800000  0  4G 6G 8G11G 9
  20369795.115    20369797.503    -7846639.012 8  -8409791.037 8
  20254763.358    20254767.071    -7014972.763 9   2793699.699 7
  21053935.940    21053943.549   -15483190.926 8 -14416166.818 8
  22304403.488    22304406.292   -30369778.581 9  38074385.001 7
 88  3 21  4  7 59.0800000  0  4G 6G 8G11G 9
  20363700.304    20363703.587    -7878662.719 8  -8434744.587 8
  20260385.697    20260389.190    -6985420.638 8   2816727.331 6
  21042368.629    21042375.871   -15543980.229 8 -14463535.060 8
  22287692.143    22287694.708   -30457591.225 9  38005959.581 8
 88  3 21  4  8 29.0800000  0  4G 6G 8G11G 9
  20357673.150    20357676.413    -7910335.682 9  -8459424.809 7
  20266130.127    20266134.246    -6955231.389 9   2840251.431 7
  21030897.544    21030901.949   -15604268.655 8 -14510513.018 8
  22270997.214    22271001.760   -30545314.929 9  37937603.465 8
 88  3 21  4  8 59.0800000  0  4G 6G 8G11G 9
  20351711.930    20351716.906    -7941658.124 8  -8483831.898 7
  20271995.952    20271998.583    -6924409.461 8   2864268.515 7
  21019520.032    21019524.703   -15664057.417 8 -14557101.646 7
  22254322.527    22254325.601   -30632950.256 9  37869316.239 8
 88  3 21  4  9 29.0800000  0  4G 6G 8G11G 9
  20345819.610    20345822.582    -7972628.196 9  -8507964.401 8
  20277981.502    20277983.975    -6892957.488 8   2888776.567 7
  21008236.968    21008241.474   -15723345.645 9 -14603300.226 7
  22237662.976    22237667.335   -30720495.438 8  37801099.243 8
 88  3 21  4  9 59.0800000  0  4G 6G 8G11G 9
  20339994.650    20339997.342    -8003243.902 8  -8531820.813 7
  20284086.247    20284089.088    -6860877.660 8   2913773.838 7
  20997050.573    20997056.104   -15782132.199 9 -14649107.909 7
  22221021.728    22221023.348   -30807948.635 8  37732953.924 7
 88  3 21  4 10 29.0800000  0  4G 6G 8G11G 9
  20334235.025    20334239.263    -8033503.314 9  -8555399.567 7
  20290308.385    20290313.014    -6828172.368 8   2939258.483 7
  20985958.953    20985964.270   -15840416.373 8 -14694524.102 8
  22204398.013    22204399.444   -30895307.961 8  37664881.745 8
 88  3 21  4 10 59.0800000  0  4G 6G 8G11G 9
  20328546.768    20328550.335    -8063403.838 9  -8578698.676 7
  20296652.018    20296655.611    -6794843.500 9   2965229.042 6
  20974963.168    20974970.712   -15898196.156 9 -14739547.293 7
  22187788.997    22187794.163   -30982570.893 8  37596884.678 7
 88  3 21  4 11 29.0800000  0  4G 6G 8G11G 9
  20322925.110    20322929.313    -8092943.302 9  -8601716.437 7
  20303112.422    20303115.564    -6760892.771 9   2991684.157 7
  20964065.092    20964068.977   -15955470.320 9 -14784176.478 7
  22171205.459    22171207.915   -31069735.237 7  37528964.480 7
 88  3 21  4 11 59.0800000  0  4G 6G 8G11G 9
  20317371.822    20317374.224    -8122119.526 9  -8624451.163 7
  20309691.441    20309695.207    -6726322.889 8   3018621.735 7
  20953263.087    20953268.507   -16012238.204 9 -14828411.169 8
  22154634.515    22154639.638   -31156799.196 8  37461122.452 8
 88  3 21  4 12 29.0800000  0  4G 6G 8G11G 9
  20311889.486    20311891.977    -8150929.839 9  -8646900.751 8
  20316385.802    20316391.136    -6691135.388 8   3046040.565 7
  20942557.227    20942562.077   -16068497.581 8 -14872249.617 8
  22138087.845    22138091.965   -31243759.760 8  37393361.002 7
 88  3 21  4 12 59.0800000  0  4G 6G 8G11G 9
  20306477.359    20306481.514    -8179371.939 9  -8669063.429 7
  20323199.477    20323205.146    -6655332.033 8   3073939.286 8
  20931948.663    20931951.690   -16124247.525 9 -14915691.099 7
  22121559.118    22121564.401   -31330614.875 9  37325681.723 8
 88  3 21  4 13 29.0800000  0  4G 6G 8G11G 9
  20301135.863    20301139.405    -8207443.732 8  -8690937.557 8
  20330130.054    20330134.181    -6618915.279 9   3102315.981 8
  20921437.005    20921441.603   -16179487.204 9 -14958734.999 7
  22105052.661    22105057.574   -31417362.259 9  37258086.355 7
 88  3 21  4 13 59.0800000  0  4G 6G 8G11G 9
  20295865.383    20295868.027    -8235143.382 9  -8712521.695 6
  20337175.075    20337179.933    -6581887.764 8   3131168.581 8
  20911021.250    20911025.646   -16234215.850 9 -15001380.654 7
  22088566.233    22088570.155   -31504000.477 8  37190576.079 8
 88  3 21  4 14 29.0800000  0  4G 6G 8G11G 9
  20290664.679    20290667.442    -8262468.484 8  -8733813.984 7
  20344337.355    20344342.390    -6544251.484 8   3160495.563 8
  20900704.376    20900709.924   -16288431.686 8 -15043626.745 6
  22072101.516    22072104.764   -31590526.614 9  37123153.154 8
 88  3 21  4 14 59.0800000  0  4G 6G 8G11G 9
  20285535.757    20285541.292    -8289417.295 8  -8754813.056 8
  20351614.472    20351618.166    -6506009.201 9   3190294.745 8
  20890485.718    20890489.394   -16342134.470 7 -15085473.031 7
  22055656.882    22055660.116   -31676939.207 9  37055818.677 8
 88  3 21  4 15 29.0800000  0  4G 6G 8G11G 9
  20280480.421    20280485.514    -8315986.971 9  -8775516.714 9
  20359006.792    20359011.649    -6467162.832 9   3220564.640 8
  20880364.083    20880369.841   -16395322.297 8 -15126918.065 7
  22039234.134    22039239.151   -31763235.242 9  36988575.028 7
 88  3 21  4 15 59.0800000  0  4G 6G 8G11G 9
  20275497.533    20275502.083    -8342175.286 9  -8795923.195 8
  20366514.310    20366518.356    -6427714.713 9   3251303.431 8
  20870341.529    20870345.480   -16447993.975 7 -15167960.899 6
  22022836.844    22022841.269   -31849412.543 8  36921423.912 8
 88  3 21  4 16 29.0800000  0  4G 6G 8G11G 9
  20270586.522    20270590.567    -8367980.249 9  -8816030.943 8
  20374134.856    20374139.938    -6387666.819 8   3282509.590 7
  20860415.909    20860420.491   -16500148.912 8 -15208601.066 7
  22006460.708    22006464.271   -31935468.778 9  36854367.099 8
 88  3 21  4 16 59.0800000  0  4G 6G 8G11G 9
  20265749.934    20265752.947    -8393400.099 8  -8835838.621 9
  20381869.667    20381872.397    -6347021.961 9   3314180.918 8
  20850590.767    20850593.298   -16551786.529 8 -15248838.146 6
  21990109.666    21990112.402   -32021402.179 8  36787406.058 8
 88  3 21  4 17 29.0800000  0  4G 6G 8G11G 9
  20260986.402    20260988.964    -8418431.765 9  -8855343.797 8
  20389716.180    20389721.782    -6305781.701 8   3346316.188 8
  20840861.461    20840866.657   -16602904.929 8 -15288670.647 7
  21973779.324    21973782.377   -32107209.667 9  36720543.096 7
 88  3 21  4 17 59.0800000  0  4G 6G 8G11G 9
  20256296.766    20256299.930    -8443073.615 9  -8874545.232 7
  20397677.285    20397682.377    -6263949.173 8   3378912.954 8
  20831234.229    20831236.497   -16653503.409 8 -15328098.005 6
  21957473.540    21957478.212   -32192889.538 8  36653779.596 7
 88  3 21  4 18 29.0800000  0  4G 6G 8G11G 9
  20251682.151    20251685.828    -8467324.108 9  -8893441.732 7
  20405749.754    20405753.906    -6221527.060 9   3411969.151 8
  20821703.907    20821710.058   -16703581.792 9 -15367120.089 7
  21941195.183    21941198.462   -32278439.851 9  36587117.035 8
 88  3 21  4 18 59.0800000  0  4G 6G 8G11G 9
  20247142.377    20247146.437    -8491180.353 8  -8912031.002 9
  20413933.591    20413938.249    -6178517.733 9   3445482.910 8
  20812274.691    20812279.997   -16753138.667 8 -15405735.817 6
  21924939.340    21924944.290   -32363857.819 8  36520557.590 9
 88  3 21  4 19 29.0800000  0  4G 6G 8G11G 9
  20242678.206    20242681.920    -8514640.114 9  -8930311.340 8
  20422229.785    20422233.813    -6134923.286 9   3479452.610 8
  20802943.677    20802949.147   -16802172.933 8 -15443944.301 7
  21908711.331    21908715.449   -32449140.798 8  36454103.355 9
 88  3 21  4 19 59.0800000  0  4G 6G 8G11G 9
  20238288.104    20238293.837    -8537701.313 8  -8948281.098 8
  20430637.261    20430641.159    -6090746.200 9   3513876.310 7
  20793711.157    20793716.759   -16850683.678 8 -15481744.850 7
  21892509.006    21892512.955   -32534286.710 8  36387755.929 7
 88  3 21  4 20 29.0800000  0  4G 6G 8G11G 9
  20233977.194    20233980.102    -8560361.855 8  -8965938.663 8
  20439153.668    20439156.732    -6045988.773 8   3548752.229 8
  20784579.620    20784584.839   -16898670.245 8 -15519136.955 7
  21876333.039    21876336.587   -32619292.946 9  36321517.339 8
 88  3 21  4 20 59.0800000  0  4G 6G 8G11G 9
  20229741.902    20229744.674    -8582619.609 9  -8983282.371 8
  20447780.399    20447784.593    -6000653.665 9   3584078.288 8
  20775547.688    20775553.752   -16946131.782 8 -15556119.966 6
  21860184.157    21860186.981   -32704157.349 9  36255389.207 8
 88  3 21  4 21 29.0800000  0  4G 6G 8G11G 9
  20225584.436    20225587.004    -8604472.542 8  -9000310.629 8
  20456517.353    20456521.090    -5954743.560 8   3619852.394 8
  20766617.361    20766623.767   -16993067.418 8 -15592693.151 7
  21844061.220    21844066.934   -32788877.445 8  36189373.581 8
 88  3 21  4 21 59.0800000  0  4G 6G 8G11G 9
  20221501.438    20221506.105    -8625918.305 9  -9017021.611 8
  20465362.414    20465367.433    -5908260.421 9   3656073.008 7
  20757785.623    20757789.627   -17039476.311 8 -15628855.904 7
  21827968.836    21827972.405   -32873450.746 9  36123472.360 8
 88  3 21  4 22 29.0800000  0  4G 6G 8G11G 9
  20217498.785    20217502.124    -8646955.059 9  -9033413.871 8
  20474316.735    20474321.036    -5861207.272 9   3692737.818 7
  20749054.834    20749059.925   -17085357.840 8 -15664607.729 6
  21811903.175    21811905.388   -32957875.125 9  36057687.136 8
 88  3 21  4 22 59.0800000  0  4G 6G 8G11G 9
  20213575.014    20213577.638    -8667580.534 8  -9049485.665 8
  20483379.038    20483382.745    -5813586.400 9   3729844.996 7
  20740423.265    20740428.785   -17130710.962 8 -15699947.795 7
  21795865.588    21795868.078   -33042148.005 9  35992019.968 7
 88  3 21  4 23 29.0800000  0  4G 6G 8G11G 9
  20209728.694    20209731.337    -8687793.193 8  -9065235.798 9
  20492548.178    20492551.035    -5765401.284 8   3767391.834 8
  20731894.428    20731900.317   -17175535.875 8 -15734876.260 7
  21779858.980    21779861.778   -33126267.697 9  35926472.174 7
 88  3 21  4 23 59.0800000  0  4G 6G 8G11G 9
  20205960.740    20205964.748    -8707590.263 8  -9080662.076 7
  20501823.857    20501827.934    -5716653.509 9   3805377.112 7
  20723465.309    20723470.782   -17219831.064 8 -15769391.971 7
  21763882.507    21763885.140   -33210230.440 9  35861046.677 8
 88  3 21  4 24 29.0800000  0  4G 6G 8G11G 9
  20202273.672    20202276.826    -8726969.111 8  -9095762.479 8
  20511206.686    20511211.441    -5667345.527 9   3843798.930 7
  20715136.677    20715141.533   -17263595.531 8 -15803494.130 6
  21747933.029    21747937.684   -33294033.940 9  35795745.262 7
 88  3 21  4 24 59.0800000  0  4G 6G 8G11G 9
  20198666.067    20198669.183    -8745928.553 8  -9110536.063 8
  20520698.124    20520701.360    -5617480.454 9   3882654.812 7
  20706910.566    20706914.209   -17306829.410 9 -15837182.859 8
  21732016.945    21732020.217   -33377676.517 7  35730569.239 8
 88  3 21  4 25 29.0800000  0  4G 6G 8G11G 9
  20195137.078    20195140.827    -8764466.351 8  -9124981.092 6
  20530291.903    20530294.390    -5567061.427 8   3921942.377 7
  20698784.258    20698788.963   -17349531.700 9 -15870457.340 7
  21716131.579    21716135.202   -33461155.425 9  35665520.774 7
 88  3 21  4 25 59.0800000  0  4G 6G 8G11G 9
  20191690.575    20191694.916    -8782579.950 8  -9139095.602 8
  20539989.929    20539994.641    -5516090.502 9   3961659.970 8
  20690759.778    20690763.623   -17391701.135 7 -15903316.597 7
  21700278.568    21700281.220   -33544467.543 9  35600602.241 8
 88  3 21  4 26 29.0800000  0  4G 6G13G11G 9
  20188323.954    20188327.883    -8800268.139 8  -9152878.600 7
                  23707526.052   -37559826.949 9
  20682835.401    20682840.230   -17433338.002 8 -15935760.910 7
  21684455.979    21684459.419   -33627611.186 8  35535815.005 7
 88  3 21  4 26 59.0800000  0  4G 6G13G11G 9
  20185040.101    20185042.588    -8817528.332 8  -9166328.091 8
  23686445.942    23686453.793   -37670824.558 7  47667161.229 8
  20675013.642    20675020.134   -17474441.554 8 -15967789.618 6
  21668665.516    21668669.287   -33710583.631 8  35471161.196 7
 88  3 21  4 27 29.0800000  0  4G 6G13G11G 9
  20181837.191    20181841.190    -8834358.708 8  -9179442.693 8
  23665365.583    23665370.276   -37781610.112 7  47580834.902 8
  20667293.434    20667298.018   -17515011.095 9 -15999402.216 7
  21652911.012    21652914.044   -33793382.281 9  35406642.774 7
 88  3 21  4 27 59.0800000  0  4G 6G13G11G 9
  20178716.877    20178720.330    -8850757.209 8  -9192220.738 7
  23644324.679    23644329.663   -37892181.567 8  47494675.348 8
  20659675.082    20659680.257   -17555046.479 9 -16030598.606 5
  21637188.965    21637190.573   -33876004.595 9  35342261.728 8
 88  3 21  4 28 29.0800000  0  4G 6G13G11G 9
  20175679.831    20175681.265    -8866721.914 8  -9204660.762 8
  23623324.385    23623331.182   -38002536.956 8  47408684.173 6
  20652158.719    20652162.685   -17594547.339 8 -16061378.461 8
  21621497.513    21621503.752   -33958448.317 8  35278019.905 7
 88  3 21  4 28 59.0800000  0  4G 6G13G11G 9
  20172724.413    20172726.741    -8882250.892 8  -9216761.255 8
  23602363.632    23602370.952   -38112673.745 8  47322863.339 6
  20644742.628    20644748.504   -17633513.439 7 -16091741.648 7
  21605846.427    21605850.038   -34040711.212 9  35213919.000 8
 88  3 21  4 29 29.0800000  0  4G 6G13G11G 9
  20169851.785    20169855.726    -8897341.893 9  -9228520.487 8
  23581449.564    23581453.599   -38222589.266 8  47237214.905 7
  20637429.627    20637434.692   -17671943.550 8 -16121687.158 6
  21590226.531    21590228.619   -34122789.792 8  35149961.671 8
 88  3 21  4 29 59.0800000  0  4G 6G13G11G 9
  20167064.206    20167068.034    -8911992.775 9  -9239936.787 8
  23560577.023    23560580.465   -38332280.677 8  47151741.148 8
  20630218.928    20630223.853   -17709837.022 7 -16151214.517 7
  21574641.587    21574646.044   -34204681.904 8  35086149.610 7
 88  3 21  4 30 29.0800000  0  4G 6G13G11G 9
  20164359.771    20164364.177    -8926201.705 8  -9251008.678 8
  23539745.834    23539751.109   -38441746.205 8  47066443.381 7
  20623110.494    20623115.304   -17747193.865 8 -16180323.712 7
  21559095.548    21559101.060   -34286384.886 9  35022485.004 8
 88  3 21  4 30 59.0800000  0  4G 6G13G11G 9
  20161740.760    20161744.200    -8939966.623 7  -9261734.590 8
  23518958.594    23518964.208   -38550982.761 9  46981323.985 7
  20616103.968    20616110.111   -17784013.472 7 -16209014.295 7
  21543584.113    21543588.518   -34367896.131 8  34958969.764 8
 88  3 21  4 31 29.0800000  0  4G 6G13G11G 9
  20159205.821    20159210.501    -8953285.954 8  -9272113.308 7
  23498215.522    23498220.267   -38659989.074 9  46896384.025 6
  20609201.088    20609204.026   -17820296.189 9 -16237286.509 7
  21528109.155    21528112.904   -34449213.393 9  34895605.642 7
 88  3 21  4 31 59.0800000  0  4G 6G13G11G 9
  20156756.610    20156760.733    -8966157.552 8  -9282143.119 8
  23477517.056    23477521.239   -38768762.261 9  46811625.730 7
  20602397.402    20602401.446   -17856041.070 9 -16265139.648 7
  21512674.011    21512676.236   -34530333.766 8  34832394.997 8
 88  3 21  4 32 29.0800000  0  4G 6G13G11G 9
  20154393.358    20154396.352    -8978579.826 9  -9291822.830 8
  23456862.128    23456868.439   -38877300.423 8  46727050.518 7
  20595698.858    20595702.630   -17891248.278 8 -16292573.800 6
  21497276.135    21497278.692   -34611255.200 9  34769339.333 8
 88  3 21  4 32 59.0800000  0  4G 6G13G11G 9
  20152115.947    20152118.155    -8990550.613 8  -9301150.712 7
  23436251.833    23436257.991   -38985600.876 7  46642660.585 6
  20589099.721    20589104.070   -17925917.626 8 -16319588.872 6
  21481913.995    21481916.982   -34691974.903 9  34706440.885 8
 88  3 21  4 33 29.0800000  0  4G 6G13G11G 9
  20149924.466    20149926.310    -9002067.719 9  -9310125.083 7
  23415688.945    23415696.455   -39093661.069 6  46558457.872 6
  20582605.019    20582610.467   -17960048.224 8 -16346184.120 7
  21466592.288    21466596.367   -34772489.720 8  34643702.086 8
 88  3 21  4 33 59.0800000  0  4G 6G13G11G 9
  20147817.615    20147822.903    -9013129.633 8  -9318744.773 8
  23395172.948    23395178.128   -39201478.998 9  46474443.933 7
  20576212.832    20576218.077   -17993640.262 8 -16372359.702 7
  21451312.770    21451313.455   -34852797.564 9  34581124.535 8
 88  3 21  4 34 29.0800000  0  4G 6G13G11G 9
  20145802.299    20145803.184    -9023734.318 8  -9327008.167 7
  23374703.352    23374707.549   -39309051.470 9  46390621.243 6
  20569924.028    20569928.148   -18026693.181 8 -16398115.196 6
  21436069.448    21436072.774   -34932895.361 9  34518710.647 7
 88  3 21  4 34 59.0800000  0  4G 6G13G11G 9
  20143870.994    20143872.364    -9033879.131 8  -9334913.221 8
  23354279.052    23354286.184   -39416376.568 7  46306991.353 7
  20563736.968    20563741.711   -18059206.491 9 -16423450.234 6
  21420867.770    21420871.272   -35012780.218 8  34456462.784 8
 88  3 21  4 35 29.0800000  0  4G 6G13G11G 9
  20142027.606    20142030.654    -9043563.643 8  -9342459.601 7
  23333902.345    23333908.947   -39523452.751 7  46223555.401 8
  20557652.135    20557657.647   -18091181.051 7 -16448365.452 7
  21405707.076    21405709.309   -35092450.418 9  34394382.103 8
 88  3 21  4 35 59.0800000  0  4G 6G13G11G 9
  20140273.039    20140275.501    -9052785.125 9  -9349645.183 7
  23313575.697    23313580.505   -39630277.446 8  46140315.438 7
  20551670.580    20551675.525   -18122615.729 8 -16472859.996 5
  21390586.454    21390588.364   -35171902.929 9  34332471.036 7
 88  3 21  4 36 29.0800000  0  4G 6G13G11G 9
  20138605.845    20138610.162    -9061542.544 8  -9356469.145 8
  23293295.531    23293301.727   -39736848.430 8  46057273.150 7
  20545789.844    20545794.075   -18153511.371 9 -16496934.508 6
  21375510.928    21375513.123   -35251135.387 9  34270731.509 9
 88  3 21  4 36 59.0800000  0  4G 6G13G11G 9
  20137028.189    20137030.687    -9069833.554 8  -9362929.694 8
  23273064.674    23273070.944   -39843163.325 8  45974430.405 8
  20540013.455    20540017.545   -18183867.265 8 -16520588.423 6
  21360475.439    21360478.126   -35330144.829 9  34209165.738 8
 88  3 21  4 37 29.0800000  0  4G 6G13G11G 9
  20135540.442    20135543.485    -9077655.824 7  -9369024.977 9
  23252882.961    23252887.725   -39949219.334 8  45891789.429 8
  20534340.843    20534343.814   -18213682.948 8 -16543821.409 7
  21345481.368    21345484.902   -35408928.150 8  34147776.102 7
 88  3 21  4 37 59.0800000  0  4G 6G13G11G 9
  20134141.068    20134143.009    -9085007.764 8  -9374753.767 7
  23232750.472    23232754.812   -40055014.433 9  45809351.702 7
  20528769.303    20528772.764   -18242958.486 8 -16566633.499 6
  21330533.388    21330538.030   -35487482.706 8  34086564.802 7
 88  3 21  4 38 29.0800000  0  4G 6G13G11G 9
  20132830.937    20132834.710    -9091888.707 8  -9380115.542 7
  23212667.721    23212673.911   -40160547.111 9  45727118.478 8
  20523301.969    20523305.554   -18271694.940 8 -16589025.520 6
  21315631.156    21315633.485   -35565806.768 9  34025533.064 7
 88  3 21  4 38 59.0800000  0  4G 6G13G11G 9
  20131611.752    20131614.438    -9098296.412 9  -9385108.574 7
  23192636.701    23192641.405   -40265814.550 9  45645091.955 7
  20517936.286    20517939.077   -18299891.940 9 -16610997.184 5
  21300767.979    21300773.017   -35643897.329 9  33964683.306 8
 88  3 21  4 39 29.0800000  0  4G 6G13G11G 9
  20130483.740    20130486.647    -9104229.043 8  -9389731.402 7
  23172655.224    23172659.983   -40370814.718 9  45563273.654 7
  20512673.851    20512676.923   -18327549.634 8 -16632548.623 6
  21285955.688    21285956.678   -35721751.764 9  33904017.545 8
 88  3 21  4 39 59.0800000  0  4G 6G13G11G 9
  20129444.527    20129445.972    -9109685.657 8  -9393983.329 7
  23152725.433    23152731.483   -40475546.077 8  45481664.836 6
  20507512.299    20507516.530   -18354668.367 8 -16653680.098 6
  21271185.466    21271188.911   -35799367.528 9  33843537.692 8
 88  3 21  4 40 29.0800000  0  4G 6G13G11G 9
  20128496.310    20128500.531    -9114663.362 8  -9397862.058 8
  23132848.318    23132852.281   -40580005.686 9  45400267.729 6
  20502454.351    20502457.876   -18381246.893 8 -16674390.626 6
  21256458.363    21256462.815   -35876741.446 8  33783246.347 8
 88  3 21  4 40 59.0800000  0  4G 6G13G11G 9
  20127642.403    20127643.714    -9119160.763 7  -9401366.536 8
  23113022.223    23113027.135   -40684190.988 8  45319084.404 6
  20497499.622    20497502.822   -18407286.184 8 -16694680.962 6
  21241784.971    21241785.504   -35953871.061 9  33723145.402 7
 88  3 21  4 41 29.0800000  0  4G 6G13G11G 9
  20126877.672    20126879.821    -9123176.691 8  -9404495.843 8
  23093247.039    23093252.292   -40788100.206 9  45238116.244 8
  20492646.430    20492651.366   -18432786.929 7 -16714551.664 6
  21227153.001    21227155.196   -36030753.573 9  33663236.900 8
 88  3 21  4 41 59.0800000  0  4G 6G13G11G 9
  20126205.243    20126207.544    -9126708.264 8  -9407247.712 7
  23073529.122    23073531.235   -40891730.416 7  45157365.470 7
  20487895.816    20487902.019   -18457747.658 8 -16734001.567 7
  21212567.683    21212574.363   -36107385.466 8  33603523.781 8
 88  3 21  4 42 29.0800000  0  4G 6G13G11G 9
  20125625.778    20125628.153    -9129753.605 8  -9409620.725 8
  23053862.224    23053865.924   -40995079.119 8  45076834.048 7
  20483249.132    20483253.496   -18482168.272 8 -16753030.590 6
  21198037.378    21198039.065   -36183764.079 8  33544008.029 9
 88  3 21  4 42 59.0800000  0  4G 6G13G11G 9
  20125138.863    20125141.775    -9132312.197 7  -9411614.445 8
  23034248.792    23034254.312   -41098144.940 9  44996523.018 5
  20478704.481    20478709.644   -18506050.162 8 -16771639.853 7
  21183551.350    21183553.280   -36259886.789 9  33484691.580 9
 88  3 21  4 43 29.0800000  0  4G 6G13G11G 9
  20124745.330    20124749.477    -9134381.749 8  -9413227.091 7
  23014690.285    23014695.913   -41200925.947 9  44916433.929 7
  20474263.089    20474266.015   -18529393.013 8 -16789829.052 7
  21169112.619    21169117.043   -36335751.427 8  33425576.304 8
 88  3 21  4 43 59.0800000  0  4G 6G13G11G 9
  20124444.090    20124446.976    -9135960.631 8  -9414457.402 8
  22995187.251    22995190.521   -41303419.856 7  44836568.604 7
  20469922.972    20469927.578   -18552196.978 7 -16807598.357 7
  21154727.880    21154731.695   -36411354.379 9  33366664.934 8
 88  3 21  4 44 29.0800000  0  4G 6G13G11G 9
  20124236.502    20124239.611    -9137047.889 8  -9415304.606 8
  22975736.806    22975741.943   -41405623.984 8  44756929.068 8
  20465686.280    20465691.208   -18574462.908 8 -16824948.412 6
  21140389.558    21140393.796   -36486693.662 8  33307958.993 7
 88  3 21  4 44 59.0800000  0  4G 6G13G11G 9
  20124125.250    20124128.039    -9137640.969 8  -9415766.765 8
  22956344.279    22956349.805   -41507536.030 8  44677517.105 7
  20461550.748    20461555.984   -18596190.183 8 -16841878.748 7
  21126105.391    21126107.870   -36561765.542 8  33249461.472 7
 88  3 21  4 45 29.0800000  0  4G 6G13G11G 9
  20124106.427    20124109.793    -9137738.905 7  -9415843.080 7
  22937006.540    22937011.215   -41609154.305 7  44598334.071 7
  20457518.081    20457523.219   -18617379.428 8 -16858389.826 7
  21111872.206    21111873.379   -36636568.124 9  33191173.730 8
 88  3 21  4 45 59.0800000  0  4G 6G13G11G 9
  20124183.342    20124185.899    -9137339.666 8  -9415531.991 8
  22917725.796    22917731.563   -41710475.991 9  44519382.112 8
  20453590.041    20453596.277   -18638030.555 8 -16874481.602 7
  21097683.770    21097691.007   -36711097.710 8  33133098.762 8
 88  3 21  4 46 29.0800000  0  4G 6G13G11G 9
  20124352.284    20124355.632    -9136443.111 8  -9414833.391 8
  22898500.177    22898507.615   -41811500.934 8  44440661.417 8
  20449762.000    20449767.770   -18658145.450 7 -16890155.526 7
  21083559.278    21083558.030   -36785353.038 9  33075237.480 7
 88  3 21  4 46 59.0800000  0  4G 6G13G11G 9
  20124618.336    20124623.066    -9135046.773 8  -9413745.332 8
  22879334.932    22879340.246   -41912225.459 9  44362174.798 8
  20446035.915    20446041.105   -18677723.594 8 -16905411.202 7
  21069480.950    21069483.740   -36859330.674 9  33017592.519 7
 88  3 21  4 47 29.0800000  0  4G 6G13G11G 9
  20124979.575    20124982.590    -9133148.526 8  -9412266.187 8
  22860224.491    22860229.459   -42012647.269 9  44283924.058 7
  20442412.111    20442419.410   -18696764.637 8 -16920248.355 7
  21055456.982    21055460.039   -36933027.057 8  32960166.843 7
 88  3 21  4 47 59.0800000  0  4G 6G13G11G 9
  20125437.221    20125440.557    -9130747.516 8  -9410395.297 7
  22841173.978    22841179.048   -42112764.964 8  44205910.310 7
  20438891.946    20438895.933   -18715269.364 7 -16934667.613 7
  21041488.994    21041488.647   -37006440.024 9  32902961.914 8
 88  3 21  4 48 29.0800000  0  4G 6G13G11G 9
  20125989.298    20125993.631    -9127842.995 7  -9408132.048 8
  22822178.422    22822184.409   -42212577.103 9  44128134.638 6
  20435471.541    20435477.157   -18733239.342 8 -16948670.184 8
  21027569.683    21027574.358   -37079567.017 7  32845979.811 7
 88  3 21  4 48 59.0800000  0  4G 6G13G11G 9
  20126638.522    20126642.144    -9124432.602 7  -9405474.611 7
  22803243.371    22803249.996   -42312080.822 8  44050599.301 8
  20432154.038    20432159.724   -18750674.000 8 -16962255.603 6
  21013709.771    21013712.837   -37152405.175 9  32789222.842 7
 88  3 21  4 49 29.0800000  0  4G 6G13G11G 9
  20127383.361    20127387.516    -9120515.320 8  -9402422.183 7
  22784368.345    22784374.569   -42411273.611 9  43973306.247 8
  20428938.109    20428944.017   -18767573.853 8 -16975424.292 8
  20999905.289    20999909.583   -37224951.073 9  32732693.547 7
 88  3 21  4 49 59.0800000  0  4G 6G13G11G 9
  20128226.933    20128229.147    -9116088.994 8  -9398973.127 7
  22765551.242    22765558.875   -42510153.719 8  43896256.819 7
  20425824.576    20425828.865   -18783938.954 8 -16988176.301 7
  20986155.065    20986159.298   -37297202.237 9  32676393.956 7
 88  3 21  4 50 29.0800000  0  4G 6G13G11G 9
  20129164.883    20129169.565    -9111153.399 8  -9395127.222 7
  22746793.993    22746801.018   -42608719.671 8  43819452.192 8
  20422810.602    20422816.825   -18799770.738 8 -17000512.727 7
  20972463.836    20972467.839   -37369156.142 9  32620325.974 9
 88  3 21  4 50 59.0800000  0  4G 6G13G11G 9
  20130201.343    20130205.451    -9105707.360 7  -9390883.566 8
  22728099.686    22728102.970   -42706970.148 8  43742893.426 7
  20419899.887    20419905.972   -18815070.293 8 -17012434.454 7
  20958826.247    20958831.303   -37440810.680 8  32564491.292 8
 88  3 21  4 51 29.0800000  0  4G 6G13G11G 9
  20131335.198    20131337.685    -9099748.713 8  -9386240.461 7
  22709462.014    22709467.884   -42804901.912 8  43666582.974 7
  20417089.488    20417093.211   -18829837.274 7 -17023941.188 7
  20945250.513    20945253.031   -37512161.959 9  32508892.892 7
 88  3 21  4 51 59.0800000  0  4G 6G13G11G 9
  20132568.230    20132571.511    -9093275.654 8  -9381196.536 7
  22690887.595    22690893.654   -42902512.771 8  43590522.597 7
  20414381.130    20414386.378   -18844071.908 8 -17035033.086 7
  20931731.503    20931734.326   -37583206.752 8  32453533.302 8
 88  3 21  4 52 29.0800000  0  4G 6G13G11G 9
  20133896.513    20133900.344    -9086287.613 8  -9375751.337 7
  22672376.051    22672378.315   -42999801.750 8  43514713.035 8
  20411772.536    20411777.281   -18857775.406 7 -17045711.115 6
  20918268.591    20918273.034   -37653943.169 9  32398414.067 8
 88  3 21  4 52 59.0800000  0  4G 6G13G11G 9
  20135326.638    20135328.974    -9078783.194 8  -9369903.748 7
  22653924.074    22653927.248   -43096766.473 8  43439156.098 8
  20409266.460    20409271.952   -18870948.098 7 -17055975.539 6
  20904869.826    20904871.714   -37724368.028 9  32343537.544 8
 88  3 21  4 53 29.0800000  0  4G 6G13G11G 9
  20136852.122    20136856.390    -9070761.444 8  -9363653.056 7
  22635534.049    22635538.299   -43193405.314 8  43363853.152 7
  20406861.148    20406865.893   -18883591.188 8 -17065827.274 6
  20891526.008    20891531.569   -37794478.719 8  32288905.835 8
 88  3 21  4 53 59.0800000  0  4G 6G13G11G 9
  20138477.013    20138479.990    -9062220.173 8  -9356997.522 8
  22617206.161    22617211.529   -43289715.446 7  43288806.313 8
  20404555.370    20404561.258   -18895704.528 8 -17075266.237 8
  20878247.053    20878249.031   -37864271.929 8  32234521.583 7
 88  3 21  4 54 29.0800000  0  4G 6G13G11G 9
  20140200.639    20140204.113    -9053158.261 8  -9349936.301 8
  22598942.675    22598946.535   -43385694.916 9  43214017.131 8
  20402350.497    20402356.044   -18907288.805 7 -17084292.918 8
  20865027.299    20865028.650   -37933744.510 9  32180387.061 7
 88  3 21  4 54 59.0800000  0  4G 6G13G11G 9
  20142026.339    20142029.068    -9043575.240 8  -9342469.042 7
  22580741.303    22580744.101   -43481342.204 8  43139486.775 8
  20400247.420    20400251.922   -18918345.205 8 -17092908.287 7
  20851865.484    20851870.044   -38002894.653 8  32126503.855 8
 88  3 21  4 55 29.0800000  0  4G 6G13G11G 9
  20143949.025    20143951.369    -9033469.142 8  -9334594.152 7
  22562602.278    22562608.174   -43576655.545 8  43065216.693 8
  20398244.021    20398249.882   -18928873.634 8 -17101112.236 6
  20838771.095    20838774.597   -38071718.601 9  32072874.824 8
 88  3 21  4 55 59.0800000  0  4G 6G13G11G 9
  20145971.339    20145973.806    -9022839.039 9  -9326310.970 7
  22544528.647    22544534.373   -43671632.798 7  42991208.462 8
  20396340.129    20396345.116   -18938875.636 8 -17108906.010 8
  20825734.540    20825738.260   -38140213.795 8  32019501.926 6
 88  3 21  4 56 29.0800000  0  4G 6G13G11G 9
  20148093.660    20148095.872    -9011684.321 8  -9317618.995 8
  22526520.260    22526525.128   -43766272.416 8  42917463.328 7
  20394537.116    20394540.949   -18948352.741 8 -17116290.735 7
  20812765.378    20812768.844   -38208378.077 8  31966386.899 8
 88  3 21  4 56 59.0800000  0  4G 6G13G11G 9
  20150316.715    20150320.181    -9000003.589 7  -9308517.141 8
  22508575.870    22508581.722   -43860572.880 8  42843982.477 8
  20392833.038    20392838.327   -18957304.856 8 -17123266.401 8
  20799857.488    20799861.646   -38276208.150 9  31913532.320 8
 88  3 21  4 57 29.0800000  0  4G 6G13G11G 9
  20152639.810    20152643.472    -8987795.336 8  -9299004.213 8
  22490695.904    22490700.111   -43954531.658 8  42770767.867 7
  20391230.696    20391235.038   -18965732.690 9 -17129833.537 8
  20787013.863    20787016.287   -38343700.999 9  31860940.513 8
 88  3 21  4 57 59.0800000  0  4G 6G13G11G 9
  20155063.098    20155067.515    -8975058.114 8  -9289079.115 8
  22472878.614    22472885.513   -44048146.550 8  42697821.228 7
  20389726.264    20389730.998   -18973636.384 8 -17135992.245 7
  20774235.634    20774239.379   -38410853.052 9  31808614.203 7
 88  3 21  4 58 29.0800000  0  4G 6G13G11G 9
  20157588.173    20157592.163    -8961790.841 8  -9278740.991 7
  22455133.567    22455138.420   -44141415.582 7  42625144.097 8
  20388321.446    20388325.258   -18981017.191 8 -17141743.516 8
  20761521.347    20761524.010   -38477661.947 9  31756555.371 7
 88  3 21  4 58 59.0800000  0  4G 6G13G11G 9
  20160212.687    20160217.228    -8947993.464 7  -9267989.812 8
  22437450.709    22437456.858   -44234337.700 9  42552737.254 7
  20387015.595    20387020.495   -18987877.015 9 -17147088.831 6
  20748875.026    20748875.976   -38544125.574 8  31704765.502 7
 88  3 21  4 59 29.0800000  0  4G 6G13G11G 9
  20162939.502    20162944.239    -8933664.130 7  -9256824.111 7
  22419834.496    22419840.431   -44326910.876 9  42480602.334 7
  20385810.338    20385812.801   -18994216.001 8 -17152028.268 7
  20736292.572    20736295.554   -38610240.385 9  31653247.484 7
 88  3 21  4 59 59.0800000  0  4G 6G13G11G 9
  20165768.332    20165772.248    -8918802.605 7  -9245243.705 9
  22402286.138    22402291.894   -44419134.279 8  42408739.974 8
  20384702.957    20384705.621   -19000035.444 8 -17156562.890 7
  20723779.962    20723780.186   -38676004.051 8  31602003.098 8
 88  3 21  5  0 29.0800000  0  4G 6G13G11G 9
  20168698.919    20168701.758    -8903407.785 9  -9233247.755 8
  22384802.017    22384807.563   -44511005.709 8  42337151.878 7
  20383694.436    20383697.114   -19005336.433 8 -17160693.525 7
  20711329.366    20711333.175   -38741413.991 8  31551034.284 7
 88  3 21  5  0 59.0800000  0  4G 6G13G11G 9
  20171729.959    20171733.088    -8887478.242 8  -9220835.155 8
  22367388.165    22367391.925   -44602522.378 8  42265840.180 7
  20382782.436    20382788.036   -19010119.534 8 -17164420.590 7
  20698954.249    20698955.739   -38806466.730 9  31500343.867 8
 88  3 21  5  1 29.0800000  0  4G 6G13G11G 9
  20174862.486    20174867.085    -8871012.857 8  -9208005.003 7
  22350041.207    22350045.330   -44693682.785 8  42194806.141 8
  20381971.971    20381976.352   -19014385.461 8 -17167744.694 7
  20686641.052    20686644.281   -38871159.277 9  31449934.081 8
 88  3 21  5  1 59.0800000  0  4G 6G13G11G 9
  20178099.482    20178102.256    -8854010.562 7  -9194756.474 8
  22332760.465    22332767.376   -44784485.200 8  42124051.028 7
  20381258.201    20381262.805   -19018134.775 8 -17170666.216 6
  20674399.023    20674403.013   -38935488.762 8  31399807.232 8
 88  3 21  5  2 29.0800000  0  4G 6G13G11G 9
  20181436.755    20181438.783    -8836470.531 8  -9181088.924 8
  22315550.130    22315556.147   -44874927.868 8  42053576.220 8
  20380641.790    20380647.200   -19021369.145 7 -17173186.495 7
  20662226.406    20662232.897   -38999452.216 9  31349965.576 8
 88  3 21  5  2 59.0800000  0  4G 6G13G11G 9
  20184876.856    20184880.274    -8818392.738 8  -9167002.348 8
  22298407.822    22298413.739   -44965009.374 8  41983382.868 9
  20380125.635    20380130.038   -19024090.362 8 -17175306.924 7
  20650125.447    20650128.966   -39063047.749 8  31300410.649 8
 88  3 21  5  3 29.0800000  0  4G 6G13G11G 9
  20188418.495    20188422.732    -8799776.316 8  -9152496.065 7
  22281335.616    22281338.772   -45054728.960 9  41913471.520 8
  20379704.571    20379709.149   -19026299.292 8 -17177028.164 8
  20638094.558    20638098.377   -39126272.622 9  31251144.461 7
 88  3 21  5  3 59.0800000  0  4G 6G13G11G 9
  20192065.314    20192068.305    -8780619.378 8  -9137568.616 8
  22264332.566    22264336.483   -45144083.758 9  41843844.432 8
  20379382.142    20379384.159   -19027996.142 8 -17178350.353 7
  20626136.046    20626138.943   -39189122.939 8  31202170.249 9
 88  3 21  5  4 29.0800000  0  4G 6G13G11G 9
  20195813.105    20195815.779    -8760920.973 8  -9122219.222 7
  22247399.363    22247402.453   -45233071.627 8  41774503.232 8
  20379155.679    20379161.068   -19029182.035 8 -17179274.433 8
  20614245.582    20614251.185   -39251595.507 8  31153490.325 8
 88  3 21  5  4 59.0800000  0  4G 6G13G11G 9
  20199663.651    20199667.644    -8740681.557 8  -9106448.259 8
  22230532.921    22230538.955   -45321692.259 8  41705448.218 7
  20379027.245    20379032.812   -19029859.297 8 -17179802.160 7
  20602431.267    20602434.855   -39313689.076 9  31105105.720 8
 88  3 21  5  5 29.0800000  0  4G 6G13G11G 9
  20203617.921    20203623.105    -8719898.378 7  -9090253.600 7
  22213738.451    22213744.081   -45409942.355 8  41636681.932 7
  20378994.856    20378996.901   -19030026.926 8 -17179932.769 7
  20590688.446    20590693.269   -39375398.754 9  31057020.261 8
 88  3 21  5  5 59.0800000  0  4G 6G13G11G 9
  20207675.983    20207680.683    -8698572.358 7  -9073635.946 8
  22197017.792    22197022.790   -45497821.675 8  41568204.570 7
  20379061.854    20379062.735   -19029687.435 7 -17179668.223 8
  20579017.073    20579021.076   -39436723.211 8  31009234.975 7
 88  3 21  5  6 29.0800000  0  4G 6G13G11G 9
  20211838.003    20211842.402    -8676701.790 8  -9056593.968 8
  22180364.477    22180370.212   -45585327.953 9  41500017.864 7
  20379220.918    20379225.346   -19028841.389 8 -17179008.949 8
  20567423.772    20567426.713   -39497658.856 9  30961752.651 7
 88  3 21  5  6 59.0800000  0  4G 6G13G11G 9
  20216104.416    20216107.071    -8654286.668 8  -9039127.656 8
  22163784.756    22163789.035   -45672459.644 8  41432123.085 8
  20379476.941    20379481.567   -19027490.761 7 -17177956.501 7
  20555901.484    20555904.393   -39558203.501 9  30914575.012 7
 88  3 21  5  7 29.0800000  0  4G 6G13G11G 9
  20220472.842    20220477.030    -8631326.878 8  -9021236.936 8
  22147275.052    22147279.825   -45759216.608 8  41364520.291 8
  20379830.468    20379835.094   -19025637.465 8 -17176512.372 7
  20544455.836    20544458.360   -39618354.967 8  30867703.756 7
 88  3 21  5  7 59.0800000  0  4G 6G13G11G 9
  20224946.314    20224950.106    -8607820.428 9  -9002920.236 8
  22130837.749    22130842.638   -45845595.667 8  41297211.945 7
  20380278.152    20380283.869   -19023281.464 8 -17174676.512 7
  20533083.634    20533086.732   -39678109.101 8  30821142.087 8
 88  3 21  5  8 29.0800000  0  4G 6G13G11G 9
  20229524.634    20229528.844    -8583767.397 8  -8984177.636 8
  22114473.967    22114477.333   -45931595.773 8  41230198.883 8
  20380821.282    20380827.419   -19020424.215 8 -17172450.077 7
  20521789.326    20521792.035   -39737463.740 9  30774891.722 8
 88  3 21  5  8 59.0800000  0  4G 6G13G11G 9
  20234205.665    20234210.233    -8559166.322 8  -8965007.979 9
  22098180.745    22098185.225   -46017214.805 8  41163482.786 8
  20381460.868    20381465.401   -19017066.310 8 -17169833.527 7
  20510570.646    20510573.981   -39796415.235 8  30728955.480 8
 88  3 21  5  9 29.0800000  0  4G 6G13G11G 9
  20238991.163    20238995.485    -8534017.705 8  -8945411.677 9
  22081959.701    22081964.990   -46102452.194 9  41097064.068 9
  20382194.902    20382199.642   -19013210.466 7 -17166828.956 7
  20499429.886    20499432.248   -39854961.957 8  30683334.662 8
 88  3 21  5  9 59.0800000  0  4G 6G13G11G 9
  20243880.485    20243885.094    -8508320.388 8  -8925387.795 7
  22065812.487    22065818.154   -46187305.350 8  41030944.753 8
  20383023.923    20383029.015   -19008856.875 9 -17163436.537 7
  20488365.499    20488369.092   -39913100.331 8  30638032.037 7
 88  3 21  5 10 29.0800000  0  4G 6G13G11G 9
  20248876.348    20248879.746    -8482073.001 9  -8904935.313 7
  22049739.271    22049743.045   -46271772.608 8  40965126.124 8
  20383946.130    20383952.001   -19004006.242 7 -17159656.821 8
  20477381.660    20477383.670   -39970827.232 8  30593050.047 7
 88  3 21  5 10 59.0800000  0  4G 6G13G11G 9
  20253974.788    20253979.267    -8455275.445 7  -8884054.112 8
  22033738.993    22033744.438   -46355852.503 8  40899609.323 7
  20384964.349    20384968.058   -18998660.754 8 -17155491.493 7
  20466475.492    20466479.243   -40028139.968 9  30548390.768 8
 88  3 21  5 11 29.0800000  0  4G 6G13G11G 9
  20259179.612    20259182.003    -8427927.713 9  -8862744.206 8
  22017813.476    22017817.929   -46439544.358 9  40834394.925 8
  20386074.969    20386079.330   -18992821.936 8 -17150941.760 7
  20455648.539    20455650.512   -40085036.276 8  30504055.973 7
 88  3 21  5 11 59.0800000  0  4G 6G13G11G 9
  20264488.261    20264492.094    -8400028.736 8  -8841004.774 8
  22001960.595    22001965.184   -46522846.432 9  40769484.235 7
  20387279.864    20387282.979   -18986490.720 8 -17146008.336 7
  20444900.350    20444904.753   -40141512.832 8  30460048.255 8
 88  3 21  5 12 29.0800000  0  4G 6G13G11G 9
  20269901.963    20269906.502    -8371578.398 8  -8818835.690 8
  21986184.370    21986187.198   -46605757.455 9  40704878.255 8
  20388577.883    20388582.850   -18979668.625 8 -17140692.409 7
  20434233.391    20434237.259   -40197567.025 8  30416369.681 7
 88  3 21  5 12 59.0800000  0  4G 6G13G11G 9
  20275422.027    20275426.005    -8342577.423 9  -8796237.545 8
  21970482.096    21970485.948   -46688276.448 9  40640577.755 7
  20389969.312    20389972.714   -18972358.345 8 -17134996.080 7
  20423648.836    20423651.849   -40253197.510 9  30373021.244 7
 88  3 21  5 13 29.0800000  0  4G 6G13G11G 9
  20281044.910    20281049.801    -8313024.518 8  -8773209.320 9
  21954853.762    21954858.890   -46770402.234 8  40576583.655 7
  20391453.297    20391455.323   -18964560.502 7 -17128919.824 7
  20413142.644    20413147.774   -40308400.371 8  30330006.024 7
 88  3 21  5 13 59.0800000  0  4G 6G13G11G 9
  20286773.717    20286777.894    -8282918.748 9  -8749750.298 7
  21939301.304    21939305.713   -46852132.463 9  40512897.791 7
  20393028.279    20393033.071   -18956276.191 8 -17122464.501 7
  20402720.287    20402724.000   -40363172.550 9  30287326.419 7
 88  3 21  5 14 29.0800000  0  4G 6G13G11G 9
  20292608.898    20292612.232    -8252260.177 8  -8725860.539 8
  21923823.006    21923827.496   -46933465.581 8  40449521.346 7
  20394694.929    20394701.957   -18947506.858 7 -17115631.250 7
  20392380.236    20392383.944   -40417511.813 7  30244984.138 7
 88  3 21  5 14 59.0800000  0  4G 6G13G11G 9
  20298548.384    20298551.519    -8221048.302 8  -8701539.617 8
  21908421.291    21908427.155   -47014400.587 9  40386455.118 7
  20396459.490    20396464.032   -18938254.110 8 -17108421.330 7
  20382122.749    20382124.253   -40471415.023 8  30202981.676 7
 88  3 21  5 15 29.0800000  0  4G 6G13G11G 9
  20304592.948    20304596.534    -8189282.915 8  -8676787.381 7
  21893095.380    21893099.703   -47094936.490 8  40323699.893 7
  20398310.588    20398314.905   -18928519.429 8 -17100835.838 8
  20371947.660    20371952.064   -40524879.650 8  30161320.907 7
 88  3 21  5 15 59.0800000  0  4G 6G13G11G 9
  20310742.349    20310745.639    -8156963.560 8  -8651603.487 7
  21877846.354    21877851.574   -47175071.892 8  40261256.747 7
  20400255.584    20400259.395   -18918304.111 8 -17092875.857 7
  20361859.108    20361862.979   -40577902.587 8  30120004.339 6
 88  3 21  5 16 29.0800000  0  4G 6G13G11G 9
  20316997.982    20317002.668    -8124089.768 9  -8625987.563 7
  21862674.187    21862680.141   -47254804.669 8  40199127.334 8
  20402290.525    20402293.396   -18907609.481 8 -17084542.370 7
  20351854.659    20351856.092   -40630481.325 9  30079033.891 7
 88  3 21  5 16 59.0800000  0  4G 6G13G11G 9
  20323359.325    20323362.483    -8090661.630 9  -8599939.677 8
  21847575.859    21847583.907   -47334134.209 7  40137312.128 7
  20404415.901    20404420.366   -18896437.718 8 -17075837.097 6
  20341934.297    20341936.142   -40682613.261 8  30038411.631 8
 88  3 21  5 17 29.0800000  0  4G 6G13G11G 9
  20329824.923    20329830.156    -8056678.730 8  -8573459.528 7
  21832560.610    21832564.335   -47413059.183 9  40075812.183 7
  20406633.229    20406636.353   -18884790.020 7 -17066760.961 7
  20332098.353    20332102.731   -40734295.521 8  29998139.732 7
 88  3 21  5 17 59.0800000  0  4G 6G13G11G 9
  20336398.523    20336402.909    -8022140.466 8  -8546546.608 8
  21817617.737    21817623.095   -47491577.571 8  40014629.043 8
  20408939.390    20408945.034   -18872667.543 8 -17057314.888 8
  20322350.726    20322354.095   -40785524.969 9  29958220.655 8
 88  3 21  5 18 29.0800000  0  4G 6G13G11G 9
  20343076.306    20343079.268    -7987046.652 9  -8519200.802 8
  21802754.225    21802758.865   -47569688.280 8  39953763.583 8
  20411335.265    20411340.944   -18860072.037 8 -17047500.185 7
  20312687.025    20312691.187   -40836298.999 8  29918656.497 7
 88  3 21  5 18 59.0800000  0  4G 6G13G11G 9
  20349859.539    20349863.130    -7951397.771 8  -8491422.471 8
  21787969.377    21787971.555   -47647390.964 9  39893216.042 9
  20413821.266    20413828.312   -18847005.464 8 -17037318.445 7
  20303113.150    20303116.807   -40886615.488 9  29879448.852 7
 88  3 21  5 19 29.0800000  0  4G 6G13G11G 9
  20356749.060    20356753.640    -7915193.224 9  -8463211.150 8
  21773260.046    21773263.586   -47724683.913 9  39832987.788 8
  20416399.185    20416403.035   -18833469.360 8 -17026770.827 7
  20293624.531    20293628.786   -40936471.388 9  29840600.094 7
 88  3 21  5 19 59.0800000  0  4G 6G13G11G 9
  20363745.108    20363748.821    -7878433.025 8  -8434566.847 8
  21758629.870    21758633.355   -47801565.845 9  39773079.810 7
  20419063.528    20419068.956   -18819464.899 8 -17015858.256 7
  20284226.947    20284230.031   -40985864.060 8  29802112.288 7
 88  3 21  5 20 29.0800000  0  4G 6G13G11G 9
  20370846.540    20370850.328    -7841116.489 9  -8405489.055 7
  21744078.083    21744082.775   -47878035.206 8  39713493.303 7
  20421816.790    20421822.149   -18804993.372 7 -17004581.722 7
  20274916.328    20274918.273   -41034790.350 8  29763987.917 7
 88  3 21  5 20 59.0800000  0  4G 6G13G11G 9
  20378054.309    20378057.179    -7803244.490 8  -8375978.434 7
  21729604.233    21729609.612   -47954091.805 8  39654228.441 8
  20424658.541    20424662.475   -18790057.605 9 -16992943.475 7
  20265696.308    20265699.281   -41083248.470 8  29726228.342 6
 88  3 21  5 21 29.0800000  0  4G 6G13G11G 9
  20385365.529    20385370.147    -7764817.368 8  -8346035.233 8
  21715211.351    21715215.356   -48029734.734 9  39595285.906 8
  20427589.039    20427594.798   -18774659.656 8 -16980945.043 7
  20256562.071    20256566.194   -41131236.057 8  29688835.425 7
 88  3 21  5 21 59.0800000  0  4G 6G13G11G 9
  20392782.961    20392786.938    -7725834.345 8  -8315658.877 7
  21700895.329    21700898.576   -48104961.673 8  39536667.536 7
  20430605.562    20430613.933   -18758800.061 8 -16968586.936 7
  20247521.169    20247524.813   -41178749.756 8  29651811.759 7
 88  3 21  5 22 29.0800000  0  4G 6G13G11G 9
  20400308.033    20400309.022    -7686295.395 8  -8284849.301 7
  21686658.891    21686662.309   -48179772.087 9  39478373.728 8
  20433712.745    20433718.668   -18742480.585 8 -16955870.449 8
  20238570.483    20238574.434   -41225786.844 8  29615159.486 8
 88  3 21  5 22 59.0800000  0  4G 6G13G11G 9
  20407937.349    20407941.761    -7646199.512 8  -8253605.794 7
  21672503.665    21672508.094   -48254163.664 9  39420406.270 8
  20436905.135    20436910.267   -18725701.942 8 -16942796.176 7
  20229710.032    20229714.239   -41272343.958 7  29578881.208 7
 88  3 21  5 23 29.0800000  0  4G 6G13G11G 9
  20415673.810    20415677.570    -7605548.404 9  -8221929.624 7
  21658424.413    21658430.758   -48328136.912 8  39362764.785 7
  20440184.429    20440189.661   -18708467.450 8 -16929366.689 8
  20220942.601    20220946.858   -41318419.746 8  29542978.017 7
 88  3 21  5 23 59.0800000  0  4G 6G13G11G 9
  20423515.174    20423517.343    -7564341.663 7  -8189820.505 7
  21644428.264    21644433.405   -48401690.365 8  39305450.447 8
  20443552.388    20443554.776   -18690778.463 8 -16915583.062 7
  20212266.205    20212271.716   -41364011.379 7  29507452.062 6
 88  3 21  5 24 29.0800000  0  4G 6G13G11G 9
  20431462.915    20431466.061    -7522578.651 8  -8157277.919 7
  21630512.161    21630516.853   -48474822.916 8  39248464.037 8
  20447004.086    20447009.008   -18672636.632 9 -16901446.571 7
  20203683.077    20203687.899   -41409116.086 7  29472305.543 6
 88  3 21  5 24 59.0800000  0  4G 6G13G11G 9
  20439514.675    20439517.325    -7480260.510 8  -8124302.773 7
  21616674.963    21616681.839   -48547533.704 8  39191806.307 8
  20450539.492    20450546.097   -18654043.909 8 -16886958.712 8
  20195192.175    20195197.676   -41453731.554 7  29437540.239 8
 88  3 21  5 25 29.0800000  0  4G 6G13G11G 9
  20447673.270    20447676.362    -7437387.842 9  -8090895.537 8
  21602919.756    21602924.790   -48619821.874 8  39135477.897 8
  20454165.236    20454170.629   -18635002.206 8 -16872121.017 8
  20186798.311    20186801.447   -41497855.506 8  29403157.949 8
 88  3 21  5 25 59.0800000  0  4G 6G13G11G 9
  20455938.486    20455940.697    -7393959.907 9  -8057055.606 8
  21589242.505    21589249.218   -48691686.041 8  39079479.861 7
  20457873.786    20457878.718   -18615512.890 8 -16856934.549 6
  20178495.208    20178498.281   -41541484.819 8  29369161.077 8
 88  3 21  5 26 29.0800000  0  4G 6G13G11G 9
  20464307.549    20464311.350    -7349976.408 8  -8022782.769 8
  21575650.341    21575655.675   -48763124.908 9  39023813.219 7
  20461666.813    20461673.371   -18595577.473 8 -16841400.453 6
  20170288.298    20170290.838   -41584616.626 8  29335551.896 7
 88  3 21  5 26 59.0800000  0  4G 6G13G11G 9
  20472783.263    20472785.947    -7305438.113 8  -7988077.635 8
  21562137.118    21562141.616   -48834137.774 8  38968478.549 7
  20465545.440    20465550.225   -18575198.040 8 -16825520.372 8
  20162173.509    20162178.706   -41627248.691 7  29302332.105 8
 88  3 21  5 27 29.0800000  0  4G 6G13G11G 9
  20481362.787    20481367.181    -7260344.820 9  -7952940.054 8
  21548704.450    21548709.598   -48904723.022 9  38913477.079 8
  20469508.401    20469512.659   -18554376.200 8 -16809295.545 7
  20154157.105    20154162.654   -41669378.084 8  29269504.011 7
 88  3 21  5 27 59.0800000  0  4G 6G13G11G 9
  20490050.066    20490054.128    -7214697.517 8  -7917370.740 7
  21535354.339    21535359.446   -48974880.588 8  38858808.851 8
  20473553.584    20473558.051   -18533114.292 7 -16792727.821 7
  20146236.452    20146240.548   -41711003.106 7  29237068.929 7
 88  3 21  5 28 29.0800000  0  4G 6G13G11G 9
  20498842.461    20498845.634    -7168496.739 7  -7881370.162 8
  21522084.557    21522090.513   -49044609.802 9  38804474.417 8
  20477682.104    20477689.235   -18511414.627 9 -16775819.001 8
  20138412.623    20138416.372   -41752121.544 8  29205028.596 8
 88  3 21  5 28 59.0800000  0  4G 6G13G11G 9
  20507738.905    20507743.006    -7121742.029 9  -7844937.954 8
  21508899.253    21508902.586   -49113909.328 9  38750474.812 8
  20481896.137    20481900.697   -18489277.982 8 -16758569.657 7
  20130684.296    20130688.994   -41792729.969 8  29173385.660 6
 88  3 21  5 29 29.0800000  0  4G 6G13G11G 9
  20516741.485    20516745.223    -7074434.320 9  -7808074.828 7
  21495792.685    21495797.196   -49182779.127 9  38696810.042 8
  20486189.554    20486195.894   -18466706.993 8 -16740981.856 7
  20123054.006    20123057.298   -41832826.639 8  29142141.501 7
 88  3 21  5 29 59.0800000  0  4G 6G13G11G 9
  20525847.661    20525852.718    -7026573.645 8  -7770780.813 8
  21482769.438    21482773.362   -49251217.230 8  38643481.672 8
  20490567.570    20490572.217   -18443703.102 8 -16723056.753 7
  20115523.188    20115525.684   -41872408.736 9  29111298.318 8
 88  3 21  5 30 29.0800000  0  4G 6G13G11G 9
  20535061.948    20535065.788    -6978159.971 8  -7733055.895 9
  21469827.622    21469833.125   -49319222.847 8  38590490.299 9
  20495027.866    20495033.025   -18420267.789 8 -16704795.458 7
  20108087.891    20108092.574   -41911473.418 8  29080858.298 7
 88  3 21  5 30 59.0800000  0  4G 6G13G11G 9
  20544380.243    20544383.751    -6929193.565 9  -7694900.280 7
  21456968.734    21456973.641   -49386794.691 8  38537836.921 7
  20499569.946    20499573.362   -18396402.703 8 -16686199.292 6
  20100755.043    20100757.228   -41950018.033 8  29050823.529 7
 88  3 21  5 31 29.0800000  0  4G 6G13G11G 9
  20553803.591    20553806.638    -6879675.428 9  -7656314.740 8
  21444192.870    21444198.801   -49453932.785 8  38485521.557 7
  20504191.585    20504196.794   -18372110.590 9 -16667270.357 7
  20093516.990    20093521.267   -41988040.839 8  29021195.385 7
 88  3 21  5 31 59.0800000  0  4G 6G13G11G 9
  20563331.421    20563333.057    -6829606.494 9  -7617299.998 8
  21431500.032    21431504.539   -49520636.613 8  38433544.591 8
  20508895.222    20508899.439   -18347393.904 8 -16648010.597 7
  20086381.746    20086386.218   -42025539.908 8  28991975.332 8
 88  3 21  5 32 29.0800000  0  4G 6G13G11G 9
  20572962.345    20572967.225    -6778987.376 8  -7577856.561 8
  21418889.353    21418893.845   -49586905.548 8  38381906.462 8
  20513680.052    20513682.761   -18322254.330 8 -16628421.314 7
  20079347.228    20079349.453   -42062512.714 9  28963165.332 7
 88  3 21  5 32 59.0800000  0  4G 6G13G11G 9
  20582701.066    20582703.743    -6727817.990 8  -7537984.346 8
  21406361.360    21406367.270   -49652738.064 9  38330608.422 7
  20518542.773    20518547.748   -18296693.183 8 -16608503.524 8
  20072412.158    20072415.731   -42098956.630 8  28934767.485 7
 88  3 21  5 33 29.0800000  0  4G 6G13G11G 9
  20592542.629    20592546.213    -6676098.343 9  -7497683.345 8
  21393918.013    21393922.806   -49718133.675 9  38279650.828 7
  20523486.461    20523492.219   -18270712.312 9 -16588258.693 7
  20065578.867    20065581.014   -42134868.919 8  28906783.891 7
 88  3 21  5 33 59.0800000  0  4G 6G13G11G 9
  20602489.481    20602492.603    -6623829.350 9  -7456954.295 7
  21381556.414    21381561.241   -49783091.422 8  38229034.423 8
  20528511.162    20528514.518   -18244314.102 8 -16567688.662 6
  20058845.809    20058847.329   -42170247.294 9  28879216.321 6
 88  3 21  5 34 29.0800000  0  4G 6G13G11G 9
  20612540.199    20612543.656    -6571011.615 9  -7415797.633 8
  21369279.082    21369282.768   -49847610.574 8  38178759.775 8
  20533612.733    20533616.182   -18217500.247 8 -16546794.735 6
  20052216.044    20052217.457   -42205089.410 9  28852066.592 7
 88  3 21  5 34 59.0800000  0  4G 6G13G11G 9
  20622694.429    20622698.879    -6517645.496 9  -7374213.667 8
  21357085.313    21357089.511   -49911690.859 8  38128827.101 8
  20538794.984    20538798.916   -18190272.650 9 -16525578.435 7
  20045687.918    20045690.935   -42239392.908 8  28825336.611 6
 88  3 21  5 35 29.0800000  0  4G 6G13G11G 9
  20632953.127    20632957.463    -6463732.327 9  -7332203.446 7
  21344975.247    21344979.400   -49975331.437 8  38079237.063 7
  20544055.047    20544059.091   -18162633.674 8 -16504041.543 8
  20039263.984    20039265.971   -42273156.087 8  28799027.631 7
 88  3 21  5 35 59.0800000  0  4G 6G13G11G 9
  20643317.559    20643322.650    -6409271.975 8  -7289766.837 8
  21332948.069    21332952.082   -50038531.067 9  38029990.626 7
  20549391.697    20549393.972   -18134584.852 8 -16482185.297 6
  20032941.679    20032944.474   -42306375.998 9  28773141.990 6
 88  3 21  5 36 29.0800000  0  4G 6G13G11G 9
  20653785.827    20653790.039    -6354265.693 9  -7246904.823 8
  21321005.235    21321008.811   -50101290.173 9  37981087.423 8
  20554806.775    20554809.693   -18106128.234 8 -16460011.328 7
  20026723.631    20026725.305   -42339050.794 8  28747681.113 7
 88  3 21  5 36 59.0800000  0  4G 6G13G11G 9
  20664357.484    20664359.232    -6298714.009 9  -7203617.813 7
  21309146.578    21309150.812   -50163607.894 8  37932528.196 7
  20560299.042    20560304.275   -18077266.325 8 -16437521.519 7
  20020609.589    20020612.884   -42371178.179 9  28722646.763 7
 88  3 21  5 37 29.0800000  0  4G 6G13G11G 9
  20675030.525    20675034.723    -6242618.058 9  -7159906.700 8
  21297372.590    21297376.214   -50225483.953 9  37884313.084 8
  20565867.000    20565868.878   -18048001.357 9 -16414717.635 6
  20014598.973    20014603.195   -42402756.521 7  28698040.271 7
 88  3 21  5 37 59.0800000  0  4G 6G13G11G 9
  20685809.227    20685813.331    -6185978.149 9  -7115771.740 8
  21285682.162    21285685.803   -50286917.582 9  37836442.733 7
  20571513.167    20571518.138   -18018334.952 9 -16391600.967 7
  20008696.351    20008699.644   -42433782.962 8  28673863.822 7
 88  3 21  5 38 29.0800000  0  4G 6G13G11G 9
  20696690.330    20696694.617    -6128795.120 8  -7071213.572 8
  21274074.993    21274080.598   -50347907.871 9  37788917.843 7
  20577234.138    20577238.341   -17988269.137 8 -16368173.073 7
  20002897.649    20002899.490   -42464255.365 8  28650119.088 7
 88  3 21  5 38 59.0800000  0  4G 6G13G11G 9
  20707675.987    20707678.922    -6071069.938 8  -7026232.940 8
  21262554.453    21262558.558   -50408454.259 9  37741738.877 8
  20583031.250    20583036.125   -17957806.108 8 -16344435.641 7
  19997205.053    19997206.367   -42494171.797 7  28626807.561 6
 88  3 21  5 39 29.0800000  0  4G 6G13G11G 9
  20718763.037    20718767.580    -6012803.380 9  -6980830.474 8
  21251117.433    21251123.373   -50468556.093 8  37694906.267 8
  20588904.033    20588909.056   -17926947.735 8 -16320390.147 6
  19991618.567    19991620.989   -42523530.122 8  28603930.943 7
 88  3 21  5 39 59.0800000  0  4G 6G13G11G 9
  20729953.329    20729958.116    -5953995.788 9  -6935006.391 8
  21239765.996    21239769.818   -50528213.068 9  37648420.347 7
  20594850.566    20594854.125   -17895695.695 9 -16296037.906 7
  19986139.097    19986140.546   -42552327.528 9  28581491.415 7
 88  3 21  5 40 29.0800000  0  4G 6G13G11G 9
  20741247.296    20741250.730    -5894648.926 9  -6888762.119 8
  21228496.639    21228500.536   -50587425.238 9  37602280.995 7
  20600872.818    20600875.866   -17864053.118 9 -16271381.356 7
  19980765.612    19980768.616   -42580563.014 8  28559489.694 6
 88  3 21  5 40 59.0800000  0  4G 6G13G11G 9
  20752643.239    20752647.607    -5834763.024 9  -6842097.808 8
  21217314.428    21217319.055   -50646191.862 9  37556488.831 8
  20606966.760    20606971.616   -17832021.340 8 -16246421.518 7
  19975500.008    19975502.753   -42608233.714 9  28537928.141 7
 88  3 21  5 41 29.0800000  0  4G 6G13G11G 9
  20764142.109    20764143.845    -5774339.615 9  -6795014.655 7
  21206216.689    21206221.292   -50704512.580 9  37511044.139 8
  20613136.764    20613141.058   -17799602.992 8 -16221160.463 7
  19970340.679    19970345.959   -42635337.975 8  28516807.918 7
 88  3 21  5 41 59.0800000  0  4G 6G13G11G 9
  20775742.188    20775746.200    -5713379.537 9  -6747513.322 7
  21195201.909    21195207.067   -50762386.953 8  37465947.244 7
  20619377.729    20619382.738   -17766800.188 8 -16195599.843 7
  19965292.219    19965296.145   -42661873.992 7  28496130.502 6
 88  3 21  5 42 29.0800000  0  4G 6G13G11G 9
  20787443.861    20787448.610    -5651883.692 9  -6699594.535 7
  21184274.240    21184279.817   -50819814.424 8  37421198.592 8
  20625694.299    20625697.396   -17733614.611 8 -16169740.950 6
  19960348.818    19960354.179   -42687839.581 8  28475897.567 6
 88  3 21  5 42 59.0800000  0  4G 6G13G11G 9
  20799248.448    20799252.434    -5589852.487 9  -6651258.554 7
  21173432.492    21173435.561   -50876794.220 8  37376798.770 8
  20632081.126    20632085.595   -17700048.284 9 -16143585.359 8
  19955519.912    19955522.407   -42713232.187 8  28456111.117 6
 88  3 21  5 43 29.0800000  0  4G 6G13G11G 9
  20811154.532    20811157.659    -5527286.703 9  -6602505.999 7
  21162673.519    21162679.551   -50933325.728 8  37332748.247 8
  20638539.723    20638544.676   -17666102.960 9 -16117134.455 7
  19950795.876    19950799.569   -42738049.374 8  28436773.052 6
 88  3 21  5 43 59.0800000  0  4G 6G13G11G 9
  20823162.040    20823165.227    -5464187.631 9  -6553337.926 7
  21152001.545    21152006.250   -50989409.270 7  37289046.798 7
  20645071.114    20645077.308   -17631780.976 9 -16090390.071 8
  19946183.674    19946186.241   -42762289.784 8  28417884.420 7
 88  3 21  5 44 29.0800000  0  4G 6G13G11G 9
  20835271.423    20835274.348    -5400556.941 8  -6503755.592 7
  21141413.796    21141420.017   -51045044.940 8  37245694.366 7
  20651674.306    20651678.443   -17597084.977 9 -16063354.205 7
  19941681.717    19941684.424   -42785951.771 7  28399446.480 7
 88  3 21  5 44 59.0800000  0  4G 6G13G11G 9
  20847479.300    20847485.106    -5336395.346 9  -6453759.569 9
  21130912.270    21130918.563   -51100231.659 8  37202691.750 8
  20658346.765    20658352.270   -17562017.050 9 -16036028.549 7
  19937288.091    19937291.908   -42809033.187 7  28381460.987 7
 88  3 21  5 45 29.0800000  0  4G 6G13G11G 9
  20859791.088    20859794.505    -5271704.091 8  -6403350.834 8
  21120497.169    21120501.360   -51154969.836 8  37160038.644 8
  20665091.046    20665097.269   -17526579.075 8 -16008414.557 8
  19933007.960    19933009.624   -42831532.228 8  28363929.275 7
 88  3 21  5 45 59.0800000  0  4G 6G13G11G 9
  20872200.826    20872205.527    -5206483.349 9  -6352529.511 8
  21110165.992    21110170.314   -51209257.929 8  37117736.253 8
  20671905.136    20671909.847   -17490772.635 9 -15980513.420 7
  19928836.497    19928840.095   -42853445.956 7  28346853.628 7
 88  3 21  5 46 29.0800000  0  4G 6G13G11G 9
  20884712.287    20884717.402    -5140734.982 8  -6301297.046 7
  21099920.983    21099925.107   -51263096.455 8  37075784.171 9
  20678787.894    20678793.914   -17454600.493 8 -15952327.322 8
  19924777.415    19924783.815   -42874773.353 8  28330234.881 8
 88  3 21  5 46 59.0800000  0  4G 6G13G11G 9
  20897323.954    20897328.584    -5074459.908 8  -6249654.164 8
  21089761.952    21089765.604   -51316485.125 8  37034182.636 9
  20685740.842    20685746.367   -17418064.433 8 -15923857.676 8
  19920832.567    19920835.093   -42895512.385 7  28314074.595 8
 88  3 21  5 47 29.0800000  0  4G 6G13G11G 9
  20910035.613    20910041.594    -5007659.557 8  -6197601.978 8
  21079686.631    21079691.962   -51369423.681 8  36992931.824 7
  20692763.780    20692767.441   -17381166.714 9 -15895106.191 8
  19916998.608    19917001.801   -42915661.150 8  28298374.246 6
 88  3 21  5 47 59.0800000  0  4G 6G13G11G 9
  20922848.144    20922851.561    -4940335.328 7  -6145141.563 8
  21069700.341    21069705.003   -51421911.806 8  36952031.997 7
  20699851.730    20699857.898   -17343909.626 8 -15866074.693 8
  19913274.543    19913279.780   -42935218.362 7  28283134.850 7
 88  3 21  5 48 29.0800000  0  4G 6G13G11G 9
  20935757.813    20935762.287    -4872489.087 8  -6092274.396 8
  21059797.242    21059800.910   -51473950.555 7  36911482.338 9
  20707009.858    20707013.193   -17306296.241 9 -15836765.564 8
  19909668.074    19909671.730   -42954182.672 7  28268357.474 7
 88  3 21  5 48 59.0800000  0  4G 6G13G11G 9
  20948768.208    20948772.696    -4804121.476 9  -6039000.931 8
  21049979.673    21049983.408   -51525538.864 8  36871283.669 8
  20714233.977    20714238.689   -17268328.113 9 -15807180.019 8
  19906170.830    19906176.082   -42972551.895 7  28254043.800 8
 88  3 21  5 49 29.0800000  0  4G 6G13G11G 9
  20961877.091    20961881.289    -4735233.329 9  -5985321.895 8
  21040248.895    21040253.056   -51576676.171 8  36831436.424 8
  20721526.699    20721531.952   -17230007.132 8 -15777319.510 7
  19902791.655    19902793.636   -42990323.773 7  28240195.574 7
 88  3 21  5 49 59.0800000  0  4G 6G13G11G 9
  20975085.450    20975089.908    -4665826.030 9  -5931238.308 8
  21030603.317    21030607.384   -51627362.766 8  36791940.402 8
  20728886.118    20728890.129   -17191335.296 9 -15747185.610 8
  19899524.565    19899526.209   -43007496.527 7  28226814.200 7
 88  3 21  5 50 29.0800000  0  4G 6G13G11G 9
  20988391.314    20988394.396    -4595900.179 9  -5876750.651 8
  21021043.650    21021048.091   -51677597.011 9  36752796.835 7
  20736311.871    20736315.512   -17152313.978 9 -15716779.387 8
  19896368.893    19896373.072   -43024067.728 7  28213901.564 7
 88  3 21  5 50 59.0800000  0  4G 6G13G11G 9
  21001796.542    21001800.201    -4525457.763 9  -5821860.500 8
  21011569.760    21011573.753   -51727380.052 9  36714004.869 8
  20743804.479    20743807.576   -17112946.439 8 -15686103.390 8
  19893331.000    19893332.994   -43040036.850 7  28201458.097 7
 88  3 21  5 51 29.0800000  0  4G 6G13G11G 9
  21015298.717    21015303.326    -4454500.722 9  -5766569.326 8
  21002183.305    21002187.002   -51776712.585 8  36675563.922 6
  20751360.937    20751363.666   -17073235.159 8 -15655159.514 7
  19890406.792    19890410.280   -43055402.243 7  28189485.057 7
 88  3 21  5 51 59.0800000  0  4G 6G13G11G 9
  21028899.320    21028904.395    -4383030.036 8  -5710877.892 8
  20992879.478    20992886.245   -51825593.718 8  36637474.767 8
  20758981.810    20758985.017   -17033182.041 8 -15623949.295 8
  19887598.981    19887600.698   -43070162.202 8  28177983.790 7
 88  3 21  5 52 29.0800000  0  4G 6G13G11G 9
  21042598.790    21042601.440    -4311047.354 8  -5654787.515 8
  20983665.519    20983669.177   -51874023.679 9  36599737.132 7
  20766667.913    20766672.779   -16992789.526 9 -15592474.611 8
  19884903.864    19884907.770   -43084315.100 7  28166955.565 8
 88  3 21  5 52 59.0800000  0  4G 6G13G11G 9
  21056392.732    21056397.049    -4238552.895 8  -5598298.356 8
  20974536.312    20974539.266   -51922001.265 8  36562352.026 7
  20774418.808    20774423.245   -16952058.655 8 -15560736.265 8
  19882326.921    19882332.032   -43097858.766 8  28156402.028 7
 88  3 21  5 53 29.0800000  0  4G 6G13G11G 9
  21070285.136    21070289.391    -4165549.069 9  -5541412.278 9
  20965490.628    20965495.864   -51969527.309 8  36525318.754 8
  20782233.521    20782237.804   -16910992.424 9 -15528736.596 8
  19879866.261    19879868.999   -43110792.072 7  28146324.139 8
 88  3 21  5 53 59.0800000  0  4G 6G13G11G 9
  21084274.349    21084278.518    -4092037.329 9  -5484130.405 8
  20956534.438    20956537.388   -52016602.609 8  36488636.728 7
  20790110.262    20790118.008   -16869593.246 8 -15496477.505 8
  19877521.193    19877524.768   -43123113.479 6  28136723.046 7
 88  3 21  5 54 29.0800000  0  4G 6G13G11G 9
  21098359.104    21098363.004    -4018019.424 8  -5426454.146 8
  20947660.427    20947665.783   -52063226.725 8  36452306.253 7
  20798053.662    20798055.918   -16827863.480 8 -15463960.817 8
  19875294.109    19875297.185   -43134821.785 6  28127599.681 8
 88  3 21  5 54 59.0800000  0  4G 6G13G11G 9
  21112540.761    21112543.871    -3943496.904 9  -5368384.673 9
  20938874.266    20938878.196   -52109399.808 7  36416327.233 8
  20806054.255    20806058.317   -16785805.286 9 -15431188.188 8
  19873181.590    19873185.785   -43145915.759 7  28118955.021 8
 88  3 21  5 55 29.0800000  0  4G 6G13G11G 9
  21126816.958    21126821.818    -3868471.448 8  -5309923.293 8
  20930173.250    20930177.688   -52155122.169 8  36380699.435 7
  20814122.763    20814125.932   -16743421.018 9 -15398161.479 8
  19871189.111    19871192.680   -43156393.849 7  28110790.279 8
 88  3 21  5 55 59.0800000  0  4G 6G13G11G 9
  21141189.898    21141193.632    -3792944.179 9  -5251070.910 8
  20921557.514    20921563.570   -52200393.909 8  36345422.775 7
  20822247.636    20822251.532   -16700712.474 8 -15364882.112 8
  19869311.971    19869316.093   -43166254.462 7  28103106.700 7
 88  3 21  5 56 29.0800000  0  4G 6G13G11G 9
  21155655.370    21155660.940    -3716916.441 8  -5191828.549 8
  20913030.574    20913034.566   -52245214.210 8  36310497.892 8
  20830436.633    20830441.136   -16657681.844 8 -15331351.736 8
  19867553.016    19867557.464   -43175495.747 7  28095905.717 7
 88  3 21  5 56 59.0800000  0  4G 6G13G11G 9
  21170220.113    21170222.351    -3640390.045 9  -5132197.606 8
  20904584.875    20904591.438   -52289583.781 8  36275924.207 8
  20838684.451    20838692.629   -16614331.517 8 -15297572.277 8
  19865911.750    19865917.071   -43184116.635 6  28089188.122 7
 88  3 21  5 57 29.0800000  0  4G 6G13G11G 9
  21184875.206    21184881.464    -3563366.657 9  -5072179.426 8
  20896228.431    20896234.436   -52333502.544 7  36241701.805 8
  20846995.081    20846999.023   -16570664.176 8 -15263545.797 8
  19864390.623    19864393.422   -43192116.032 7  28082954.815 7
 88  3 21  5 57 59.0800000  0  4G 6G13G11G 9
  21199627.300    21199631.386    -3485847.796 8  -5011775.160 8
  20887956.252    20887961.985   -52376970.983 8  36207830.312 8
  20855365.619    20855369.609   -16526681.151 8 -15229273.295 7
  19862987.002    19862991.478   -43199492.174 7  28077207.158 7
 88  3 21  5 58 29.0800000  0  4G 6G13G11G 9
  21214473.159    21214477.742    -3407834.792 9  -4950985.837 8
  20879770.488    20879776.336   -52419988.717 8  36174310.019 7
  20863794.240    20863799.086   -16482384.498 8 -15194756.432 8
  19861702.952    19861706.605   -43206243.394 8  28071946.457 8
 88  3 21  5 58 59.0800000  0  4G 6G13G11G 9
  21229412.051    21229417.090    -3329330.284 9  -4889813.515 8
  20871672.331    20871675.485   -52462556.546 7  36141140.299 7
  20872283.503    20872287.957   -16437777.467 8 -15159997.721 8
  19860535.154    19860541.009   -43212369.633 7  28067172.751 7
 88  3 21  5 59 29.0800000  0  4G 6G13G11G 9
  21244443.483    21244449.615    -3250335.467 8  -4828259.166 8
  20863656.852    20863660.101   -52504674.818 9  36108320.889 8
  20880831.076    20880833.161   -16392862.291 9 -15124998.870 8
  19859491.148    19859495.837   -43217869.042 7  28062887.498 8
 88  3 21  5 59 59.0800000  0  4G 6G13G11G 9
  21259569.005    21259574.609    -3170852.260 8  -4766324.208 8
  20855726.797    20855732.526   -52546343.953 8  36075851.441 8
  20889434.215    20889440.473   -16347641.109 8 -15089761.586 7
  19858562.431    19858567.491   -43222740.740 8  28059091.363 8
 88  3 21  6  0 29.0800000  0  4G 6G13G11G 9
  21274787.856    21274791.493    -3090882.065 8  -4704009.799 8
  20847882.056    20847887.367   -52587563.877 8  36043732.032 8
  20898098.480    20898103.177   -16302115.738 8 -15054287.278 8
  19857756.955    19857758.885   -43226983.260 8  28055785.490 7
 88  3 21  6  0 59.0800000  0  4G 6G13G11G 9
  21290097.532    21290101.932    -3010426.404 9  -4641317.120 8
  20840124.471    20840128.264   -52628334.220 8  36011962.951 8
  20906819.747    20906823.731   -16256287.995 9 -15018577.365 7
  19857069.188    19857071.469   -43230594.886 8  28052971.248 8
 88  3 21  6  1 29.0800000  0  4G 6G13G11G 9
  21305499.547    21305505.180    -2929486.869 9  -4578247.365 9
  20832451.026    20832456.887   -52668655.153 7  35980544.054 7
  20915598.041    20915602.421   -16210159.996 9 -14982633.450 8
  19856502.378    19856505.208   -43233574.272 7  28050649.628 7
 88  3 21  6  1 59.0800000  0  4G 6G13G11G 9
  21320993.371    21320998.258    -2848066.233 8  -4514802.754 8
  20824864.817    20824868.567   -52708527.649 9  35949474.583 8
  20924432.228    20924436.579   -16163735.264 9 -14946458.348 9
  19856053.641    19856059.250   -43235921.589 8  28048820.553 7
 88  3 21  6  2 29.0800000  0  4G 6G13G11G 9
  21336579.953    21336583.774    -2766165.196 9  -4450983.765 8
  20817363.067    20817366.380   -52747951.069 8  35918755.067 8
  20933321.519    20933326.834   -16117014.825 9 -14910052.810 7
  19855728.210    19855731.871   -43237634.686 7  28047485.660 7
 88  3 21  6  2 59.0800000  0  4G 6G13G11G 9
  21352254.804    21352260.131    -2683786.035 8  -4386792.251 8
  20809945.116    20809949.041   -52786926.754 8  35888384.409 8
  20942269.437    20942273.851   -16070001.329 9 -14873418.922 8
  19855522.813    19855528.174   -43238712.742 8  28046645.619 7
 88  3 21  6  3 29.0800000  0  4G 6G13G11G 9
  21368021.603    21368025.344    -2600930.987 9  -4322229.893 8
  20802612.570    20802618.494   -52825455.609 8  35858361.918 7
  20951270.801    20951275.501   -16022697.420 9 -14836558.719 8
  19855439.320    19855443.375   -43239155.266 7  28046300.778 7
 88  3 21  6  3 59.0800000  0  4G 6G13G11G 9
  21383879.842    21383882.824    -2517601.799 9  -4257298.061 8
  20795368.361    20795371.215   -52863536.838 8  35828688.230 8
  20960326.712    20960331.320   -15975105.185 9 -14799473.881 9
  19855476.294    19855480.830   -43238960.953 6  28046452.176 7
 88  3 21  6  4 29.0800000  0  4G 6G13G11G 9
  21399826.007    21399831.453    -2433799.682 8  -4191997.758 9
  20788205.294    20788208.695   -52901171.019 9  35799362.925 8
  20969439.506    20969442.991   -15927225.937 8 -14762165.365 9
  19855634.875    19855639.182   -43238128.378 8  28047100.939 7
 88  3 21  6  4 59.0800000  0  4G 6G13G11G 9
  21415863.280    21415866.083    -2349527.059 8  -4126330.808 9
  20781128.667    20781132.934   -52938358.967 8  35770385.302 7
  20978602.438    20978608.492   -15879063.054 9 -14724635.856 8
  19855914.095    19855917.377   -43236656.795 8  28048247.603 8
 88  3 21  6  5 29.0800000  0  4G 6G13G11G 9
  21431989.612    21431992.028    -2264785.834 8  -4060298.676 8
  20774137.777    20774140.692   -52975100.999 8  35741755.152 7
  20987822.936    20987825.746   -15830618.363 9 -14686886.730 8
  19856318.040    19856320.350   -43234545.566 8  28049892.718 6
 88  3 21  6  5 59.0800000  0  4G 6G13G11G 9
  21448203.170    21448206.978    -2179577.775 7  -3993902.839 8
  20767229.207    20767234.507   -53011397.445 8  35713472.219 8
  20997093.590    20997099.151   -15781893.797 8 -14648919.542 9
  19856839.119    19856844.276   -43231793.388 6  28052037.270 8
 88  3 21  6  6 29.0800000  0  4G 6G13G11G 9
  21464506.333    21464510.329    -2093905.301 9  -3927145.083 8
  20760406.810    20760412.493   -53047248.727 8  35685536.172 8
  21006420.024    21006423.273   -15732891.974 9 -14610736.309 8
  19857486.638    19857490.928   -43228400.085 8  28054681.397 6
 88  3 21  6  6 59.0800000  0  4G 6G13G11G 9
  21480897.083    21480901.831    -2007770.063 8  -3860026.730 8
  20753670.790    20753673.905   -53082655.329 8  35657946.610 8
  21015795.578    21015800.567   -15683615.160 8 -14572338.797 8
  19858252.674    19858257.940   -43224364.397 7  28057826.087 7
 88  3 21  6  7 29.0800000  0  4G 6G13G11G 9
  21497375.598    21497380.929    -1921174.394 8  -3792549.636 8
  20747016.418    20747021.294   -53117618.129 9  35630702.878 7
  21025225.627    21025229.123   -15634065.766 9 -14533728.885 8
  19859144.983    19859147.983   -43219685.808 7  28061471.708 7
 88  3 21  6  7 59.0800000  0  4G 6G13G11G 9
  21513940.450    21513945.536    -1834119.989 8  -3724715.062 8
  20740447.042    20740453.219   -53152137.148 9  35603804.949 8
  21034705.703    21034709.741   -15584245.691 8 -14494908.042 8
  19860157.964    19860161.496   -43214363.550 8  28065618.934 7
 88  3 21  6  8 29.0800000  0  4G 6G13G11G 9
  21530594.031    21530597.631    -1746609.371 8  -3656524.987 7
  20733964.221    20733967.295   -53186213.462 9  35577251.993 8
  21044236.318    21044241.999   -15534157.673 8 -14455878.424 8
  19861293.197    19861296.778   -43208396.783 7  28070268.332 7
 88  3 21  6  8 59.0800000  0  4G 6G13G11G 9
  21547335.021    21547338.499    -1658643.961 8  -3587980.532 8
  20727563.201    20727566.351   -53219847.346 8  35551043.788 8
  21053819.599    21053823.687   -15483803.451 9 -14416641.373 8
  19862551.221    19862554.933   -43201784.596 8  28075420.686 7
 88  3 21  6  9 29.0800000  0  4G 6G13G11G 9
  21564159.545    21564162.797    -1570225.861 8  -3519083.347 8
  20721246.189    20721251.671   -53253039.473 8  35525179.797 8
  21063451.451    21063455.576   -15433185.285 9 -14377198.647 8
  19863933.899    19863935.380   -43194526.229 7  28081076.536 7
 88  3 21  6  9 59.0800000  0  4G 6G13G11G 9
  21581070.061    21581075.239    -1481357.252 9  -3449835.095 8
  20715015.735    20715017.299   -53285790.526 8  35499659.503 8
  21073132.681    21073137.261   -15382305.410 9 -14337551.991 8
  19865435.989    19865440.647   -43186621.126 6  28087236.352 7
 88  3 21  6 10 29.0800000  0  4G 6G13G11G 9
  21598066.236    21598072.186    -1392039.942 9  -3380237.217 8
  20708865.275    20708870.808   -53318100.096 7  35474483.220 7
  21082864.512    21082869.292   -15331165.863 9 -14297703.007 8
  19867065.517    19867066.493   -43178068.472 7  28093900.754 7
 88  3 21  6 10 59.0800000  0  4G 6G13G11G 9
  21615149.214    21615152.158    -1302276.397 9  -3310291.628 8
  20702802.652    20702806.165   -53349969.145 8  35449650.218 8
  21092645.006    21092650.147   -15279769.045 9 -14257653.540 8
  19868815.014    19868818.453   -43168867.812 8  28101070.079 7
 88  3 21  6 11 29.0800000  0  4G 6G13G11G 9
  21632314.826    21632319.555    -1212068.410 8  -3239999.722 8
  20696822.220    20696825.642   -53381398.426 8  35425159.870 8
  21102473.941    21102478.215   -15228116.648 9 -14217404.918 8
  19870688.829    19870691.654   -43159018.645 8  28108744.756 7
 88  3 21  6 11 59.0800000  0  4G 6G13G11G 9
  21649562.369    21649569.121    -1121418.709 8  -3169363.601 9
  20690922.989    20690927.533   -53412389.611 9  35401010.911 7
  21112350.501    21112355.811   -15176211.919 8 -14176959.684 8
  19872688.281    19872689.501   -43148520.569 7  28116925.060 7
 88  3 21  6 12 29.0800000  0  4G 6G13G11G 9
  21666898.675    21666903.647    -1030329.156 9  -3098384.758 7
  20685108.741    20685112.821   -53442942.234 8  35377203.686 8
  21122276.788    21122281.096   -15124056.618 8 -14136319.193 8
  19874807.192    19874811.748   -43137372.834 7  28125611.590 7
 88  3 21  6 12 59.0800000  0  4G 6G13G11G 9
  21684315.769    21684320.369     -938801.713 9  -3027064.704 8
  20679378.479    20679383.339   -53473056.819 8  35353737.772 8
  21132248.168    21132253.555   -15071652.840 8 -14095485.060 7
  19877053.350    19877057.397   -43125574.836 7  28134804.833 7
 88  3 21  6 13 29.0800000  0  4G 6G13G11G 9
  21701814.999    21701818.426     -846838.879 9  -2955405.366 8
  20673732.062    20673734.514   -53502735.113 8  35330611.842 7
  21142267.124    21142271.088   -15019002.927 8 -14054459.165 8
  19879423.372    19879425.516   -43113126.481 7  28144504.850 7
 88  3 21  6 13 59.0800000  0  4G 6G13G11G 9
  21719396.667    21719402.080     -754442.908 8  -2883408.533 8
  20668166.820    20668170.916   -53531977.131 8  35307825.870 7
  21152332.774    21152338.132   -14966109.028 9 -14013243.138 8
  19881915.037    19881919.291   -43100027.348 7  28154711.952 6
 88  3 21  6 14 29.0800000  0  4G 6G13G11G 9
  21737061.864    21737066.436     -661615.843 8  -2811075.780 7
  20662684.024    20662688.803   -53560783.690 7  35285379.230 7
  21162444.276    21162447.021   -14912973.453 9 -13971838.807 8
  19884531.614    19884535.440   -43086276.986 7  28165426.503 7
 88  3 21  6 14 59.0800000  0  4G 6G13G11G 9
  21754807.955    21754812.042     -568359.139 9  -2738408.239 8
  20657285.229    20657289.233   -53589155.093 8  35263271.653 8
  21172601.479    21172604.155   -14859597.669 8 -13930247.265 8
  19887272.985    19887275.668   -43071873.935 7  28176649.638 7
 88  3 21  6 15 29.0800000  0  4G 6G13G11G 9
  21772634.565    21772639.009     -474676.048 9  -2665408.451 7
  20651967.905    20651974.708   -53617092.796 8  35241502.026 8
  21182802.230    21182809.163   -14805984.576 9 -13888470.816 8
  19890137.973    19890140.584   -43056819.165 7  28188380.635 7
 88  3 21  6 15 59.0800000  0  4G 6G13G11G 9
  21790543.482    21790547.594     -380569.016 9  -2592078.327 8
  20646735.374    20646740.403   -53644597.475 7  35220069.820 8
  21193051.275    21193055.283   -14752136.385 8 -13846511.215 8
  19893126.082    19893129.811   -43041112.386 6  28200619.647 7
 88  3 21  6 16 29.0800000  0  4G 6G13G11G 9
  21808531.427    21808536.254     -286039.897 8  -2518419.314 8
  20641582.621    20641588.719   -53671669.964 7  35198974.397 8
  21203342.224    21203345.470   -14698055.531 9 -13804370.289 8
  19896239.283    19896242.770   -43024753.061 7  28213367.171 8
 88  3 21  6 16 59.0800000  0  4G 6G13G11G 9
  21826598.911    21826603.927     -191091.256 9  -2444433.376 8
  20636513.426    20636519.549   -53698310.629 8  35178215.441 8
  21213677.067    21213680.908   -14643744.002 9 -13762049.610 8
  19899476.064    19899479.168   -43007740.852 7  28226623.435 8
 88  3 21  6 17 29.0800000  0  4G 6G13G11G 9
  21844747.874    21844752.062      -95724.844 9  -2370121.911 8
  20631527.721    20631530.942   -53724519.928 8  35157792.623 8
  21224056.250    21224059.800   -14589203.352 8 -13719550.412 9
  19902838.417    19902841.513   -42990075.333 6  28240388.765 8
 88  3 21  6 17 59.0800000  0  4G 6G13G11G 9
  21862974.032    21862978.784          57.049 9  -2295486.690 9
  20626620.660    20626626.469   -53750299.172 8  35137704.919 7
  21234477.020    21234481.723   -14534435.730 9 -13676874.346 8
  19906321.900    19906327.983   -42971756.100 7  28254663.469 6
 88  3 21  6 18 29.0800000  0  4G 6G13G11G 9
  21881279.496    21881284.724       96251.423 9  -2220530.067 9
  20621797.916    20621801.497   -53775649.819 8  35117951.177 8
  21244940.276    21244945.732   -14479444.229 8 -13634023.828 8
  19909934.038    19909938.127   -42952783.685 7  28269447.176 7
 88  3 21  6 18 59.0800000  0  4G 6G13G11G 9
  21899663.116    21899666.969      192855.859 8  -2145253.931 9
  20617054.380    20617058.231   -53800572.260 8  35098531.109 8
  21255447.424    21255453.235   -14424230.913 8 -13591000.474 8
  19913669.070    19913671.682   -42933157.972 8  28284739.937 7
 88  3 21  6 19 29.0800000  0  4G 6G13G11G 9
  21918124.193    21918128.460      289868.633 9  -2069659.572 9
  20612393.952    20612397.819   -53825066.897 9  35079444.398 8
  21265996.743    21266001.153   -14368797.409 9 -13547805.528 9
  19917528.446    19917530.059   -42912878.560 6  28300542.061 8
 88  3 21  6 19 59.0800000  0  4G 6G13G11G 9
  21936660.826    21936666.771      387287.058 9  -1993749.143 8
  20607813.468    20607818.453   -53849135.253 9  35060689.829 8
  21276588.519    21276590.631   -14313145.781 9 -13504440.633 8
  19921510.970    19921515.310   -42891945.075 7  28316853.855 8
 88  3 21  6 20 29.0800000  0  4G 6G13G11G 9
  21955276.698    21955282.039      485109.311 9  -1917524.036 8
  20603313.443    20603318.696   -53872777.352 8  35042267.429 8
  21287218.465    21287223.900   -14257277.982 9 -13460907.287 9
  19925620.202    19925623.527   -42870357.429 7  28333675.386 8
 88  3 21  6 20 59.0800000  0  4G 6G13G11G 9
  21973967.950    21973972.566      583332.275 8  -1840986.680 9
  20598896.202    20598900.828   -53895995.166 7  35024175.642 8
  21297890.724    21297895.474   -14201196.919 9 -13417207.803 9
  19929851.362    19929855.125   -42848116.153 7  28351006.228 7
 88  3 21  6 21 29.0800000  0  4G 6G13G11G 9
  21992735.759    21992740.261      681953.747 9  -1764138.820 9
  20594558.572    20594563.166   -53918788.261 8  35006414.800 8
  21308604.440    21308606.751   -14144904.433 8 -13373343.512 9
  19934208.032    19934211.758   -42825220.837 7  28368846.714 7
 88  3 21  6 21 59.0800000  0  4G 6G13G11G 9
  22011577.321    22011582.281      780971.417 9  -1686982.219 8
  20590301.764    20590305.984   -53941158.651 8  34988983.345 8
  21319354.387    21319359.852   -14088402.199 8 -13329315.796 8
  19938689.459    19938695.014   -42801671.757 7  28387196.631 7
 88  3 21  6 22 29.0800000  0  4G 6G13G11G 9
  22030495.097    22030500.025      880382.668 8  -1609518.927 9
  20586124.166    20586131.402   -53963107.414 9  34971880.412 8
  21330146.420    21330151.426   -14031692.971 8 -13285126.814 8
  19943294.842    19943300.024   -42777469.196 7  28406055.745 7
 88  3 21  6 22 59.0800000  0  4G 6G13G11G 9
  22049487.357    22049491.834      980185.001 9  -1531750.913 8
  20582028.322    20582032.590   -53984634.951 8  34955105.723 8
  21340976.601    21340980.136   -13974778.747 8 -13240778.076 9
  19948025.461    19948029.447   -42752612.992 8  28425424.190 8
 88  3 21  6 23 29.0800000  0  4G 6G13G11G 9
  22068553.011    22068556.274     1080375.528 9  -1453680.377 8
  20578012.248    20578015.573   -54005742.873 9  34938658.004 8
  21351845.704    21351849.926   -13917662.234 9 -13196271.703 8
  19952880.364    19952883.262   -42727104.008 6  28445301.310 7
 88  3 21  6 23 59.0800000  0  4G 6G13G11G 9
  22087691.161    22087696.711     1180952.256 8  -1375308.928 9
  20574075.548    20574079.259   -54026431.747 9  34922536.813 8
  21362752.849    21362756.948   -13860345.029 8 -13151608.949 8
  19957858.198    19957862.711   -42700941.495 7  28465687.672 8
 88  3 21  6 24 29.0800000  0  4G 6G13G11G 9
  22106902.317    22106907.564     1281913.317 9  -1296637.998 9
  20570217.238    20570222.415   -54046701.961 8  34906741.846 8
  21373697.518    21373703.480   -13802828.696 9 -13106791.037 9
  19962961.530    19962964.565   -42674125.422 7  28486583.295 8
 88  3 21  6 24 59.0800000  0  4G 6G13G11G 9
  22126189.114    22126192.486     1383255.240 9  -1217670.303 9
  20566440.159    20566443.798   -54066555.477 8  34891271.589 8
  21384679.937    21384684.830   -13745115.742 9 -13061819.912 9
  19968188.067    19968192.036   -42646656.776 7  28507987.418 7
 88  3 21  6 25 29.0800000  0  4G 6G13G11G 9
  22145544.790    22145549.193     1484976.263 8  -1138407.167 8
  20562740.920    20562745.012   -54085993.167 8  34876125.345 8
  21395699.953    21395704.974   -13687207.611 8 -13016696.695 9
  19973539.316    19973544.159   -42618535.354 7  28529900.207 7
 88  3 21  6 25 59.0800000  0  4G 6G13G11G 9
  22164973.439    22164979.461     1587073.528 8  -1058850.873 7
  20559119.666    20559124.445   -54105015.863 8  34861302.474 8
  21406756.242    21406760.663   -13629106.979 9 -12971423.477 8
  19979018.183    19979019.170   -42589761.406 6  28552321.444 7
 88  3 21  6 26 29.0800000  0  4G 6G13G11G 9
  22184472.117    22184478.085     1689544.424 7   -979003.450 9
  20555580.698    20555584.726   -54123624.634 9  34846802.140 9
  21417848.456    21417851.803   -13570816.248 9 -12926002.131 8
  19984614.462    19984618.680   -42560335.572 8  28575250.660 7
 88  3 21  6 26 59.0800000  0  4G 6G13G11G 9
  22204043.541    22204047.626     1792386.186 8   -898867.014 9
  20552117.986    20552122.187   -54141820.787 8  34832623.334 8
  21428975.688    21428979.370   -13512337.687 9 -12880434.401 8
  19990337.027    19990341.554   -42530258.213 7  28598687.542 7
 88  3 21  6 27 29.0800000  0  4G 6G13G11G 9
  22223682.697    22223688.712     1895596.953 8   -818443.056 8
  20548732.261    20548737.127   -54159604.583 9  34818765.848 8
  21440140.438    21440144.632   -13453672.463 9 -12834721.251 8
  19996183.017    19996189.787   -42499529.386 7  28622632.080 8
 88  3 21  6 27 59.0800000  0  4G 6G13G11G 9
  22243394.270    22243399.183     1999173.576 9   -737734.032 9
  20545425.640    20545432.426   -54176978.046 8  34805228.079 8
  21451337.885    21451343.057   -13394823.131 9 -12788864.654 9
  20002156.606    20002159.740   -42468149.661 7  28647083.796 7
 88  3 21  6 28 29.0800000  0  4G 6G13G11G 9
  22263172.477    22263178.647     2103113.562 7   -656741.865 9
  20542199.677    20542202.609   -54193942.255 8  34792009.225 7
  21462572.858    21462574.840   -13335791.453 9 -12742865.924 7
  20008253.598    20008255.588   -42436119.560 7  28672042.300 7
 88  3 21  6 28 59.0800000  0  4G 6G13G11G 9
  22283021.168    22283025.664     2207414.303 7   -575468.576 9
  20539047.321    20539051.585   -54210497.526 8  34779109.038 9
  21473838.933    21473844.537   -13276579.669 8 -12696726.856 8
  20014471.808    20014475.620   -42403439.741 7  28697507.080 7
 88  3 21  6 29 29.0800000  0  4G 6G13G11G 9
  22302935.529    22302941.822     2312073.127 7   -493916.235 8
  20535974.441    20535979.489   -54226645.943 8  34766525.851 8
  21485141.071    21485146.756   -13217190.180 8 -12650449.408 9
  20020812.582    20020817.507   -42370110.487 7  28723477.920 8
 88  3 21  6 29 59.0800000  0  4G 6G13G11G 9
  22322919.740    22322924.838     2417087.748 8   -412086.676 8
  20532979.643    20532983.811   -54242388.209 8  34754259.168 8
  21496476.730    21496480.225   -13157624.937 9 -12604034.901 8
  20027279.800    20027283.185   -42336132.031 7  28749954.620 7
 88  3 21  6 30 29.0800000  0  4G 6G13G11G 9
  22342971.284    22342974.345     2522454.804 9   -329982.500 8
  20530061.416    20530065.083   -54257725.617 8  34742307.940 8
  21507842.433    21507847.522   -13097886.120 8 -12557485.146 8
  20033867.204    20033871.269   -42301505.835 7  28776936.056 7
 88  3 21  6 30 59.0800000  0  4G 6G13G11G 9
  22363087.815    22363094.291     2628172.178 8   -247605.357 8
  20527219.173    20527224.080   -54272658.937 8  34730671.610 8
  21519244.581    21519250.381   -13037975.232 9 -12510801.385 7
  20040582.354    20040585.855   -42266231.672 7  28804422.400 7
 88  3 21  6 31 29.0800000  0  4G 6G13G11G 9
  22383271.054    22383275.697     2734236.987 8   -164957.464 8
  20524453.865    20524457.343   -54287190.416 9  34719348.380 9
  21530677.849    21530682.286   -12977894.937 8 -12463985.582 9
  20047417.062    20047421.150   -42230310.793 8  28832412.669 7
 88  3 21  6 31 59.0800000  0  4G 6G13G11G 9
  22403520.393    22403526.066     2840646.408 8    -82041.056 8
  20521764.700    20521768.303   -54301321.036 8  34708337.520 8
  21542139.864    21542145.328   -12917647.003 8 -12417039.154 8
  20054374.530    20054378.463   -42193743.699 7  28860906.495 7
 88  3 21  6 32 29.0800000  0  4G 6G13G11G 9
  22423834.990    22423839.341     2947398.743 9      1142.575 8
  20519152.016    20519157.167   -54315050.711 9  34697639.071 8
  21553639.350    21553642.427   -12857232.468 9 -12369962.883 8
  20061455.594    20061460.149   -42156530.278 7  28889903.959 7
 88  3 21  6 32 59.0800000  0  4G 6G13G11G 9
  22444213.271    22444217.755     3054490.776 8     84590.913 8
  20516614.170    20516618.772   -54328381.530 9  34687251.423 9
  21565167.456    21565172.316   -12796654.080 9 -12322758.929 8
  20068660.327    20068662.936   -42118671.707 7  28919404.132 8
 88  3 21  6 33 29.0800000  0  4G 6G13G11G 9
  22464657.148    22464660.775     3161919.760 8    168301.788 8
  20514155.727    20514158.165   -54341314.643 9  34677173.686 8
  21576723.476    21576730.549   -12735913.721 9 -12275428.827 9
  20075988.292    20075990.922   -42080168.897 8  28949406.275 7
 88  3 21  6 33 59.0800000  0  4G 6G13G11G 9
  22485164.386    22485169.547     3269683.078 8    252273.176 8
  20511769.305    20511772.978   -54353850.981 8  34667405.125 7
  21588313.753    21588316.610   -12675013.596 8 -12227974.181 9
  20083437.151    20083440.355   -42041022.378 8  28979910.035 7
 88  3 21  6 34 29.0800000  0  4G 6G13G11G 9
  22505733.503    22505739.137     3377777.518 8    336502.577 8
  20509457.547    20509462.756   -54365992.681 8  34657944.081 8
  21599932.297    21599936.728   -12613955.913 9 -12180396.751 8
  20091008.906    20091011.954   -42001233.439 7  29010914.391 8
 88  3 21  6 34 59.0800000  0  4G 6G13G11G 9
  22526364.909    22526370.505     3486200.666 8    420988.128 9
  20507222.082    20507227.809   -54377740.720 8  34648789.780 7
  21611580.263    21611586.059   -12552742.505 8 -12132698.023 8
  20098701.075    20098706.674   -41960802.626 8  29042418.910 8
 88  3 21  6 35 29.0800000  0  4G 6G13G11G 9
  22547060.151    22547065.461     3594949.853 7    505727.751 9
  20505063.138    20505066.439   -54389096.009 9  34639941.493 8
  21623260.127    21623264.638   -12491375.059 9 -12084879.225 8
  20106518.625    20106522.581   -41919730.934 7  29074422.819 7
 88  3 21  6 35 59.0800000  0  4G 6G13G11G 9
  22567815.879    22567821.330     3704022.050 8    590719.040 9
  20502976.593    20502980.730   -54400060.111 9  34631398.048 8
  21634965.415    21634969.975   -12429856.072 8 -12036942.332 9
  20114456.008    20114458.897   -41878019.342 8  29106925.344 8
 88  3 21  6 36 29.0800000  0  4G 6G13G11G 9
  22588632.854    22588637.936     3813414.820 8    675960.127 9
  20500963.948    20500968.976   -54410634.065 7  34623158.608 7
  21646700.049    21646707.005   -12368186.996 8 -11988888.539 8
  20122514.666    20122518.855   -41835668.497 8  29139925.996 7
 88  3 21  6 36 59.0800000  0  4G 6G13G11G 9
  22609510.379    22609515.197     3923125.942 9    761449.317 9
  20499025.015    20499029.308   -54420818.919 8  34615222.355 8
  21658465.656    21658468.680   -12306369.516 9 -11940719.070 9
  20130696.534    20130698.203   -41792678.858 7  29173424.398 6
 88  3 21  6 37 29.0800000  0  4G 6G13G11G 9
  22630448.078    22630452.444     4033151.997 8    847183.889 9
  20497161.775    20497165.621   -54430616.634 8  34607587.780 8
  21670255.023    21670258.825   -12244406.211 8 -11892435.985 8
  20138998.230    20139000.128   -41749052.110 8  29207419.246 6
 88  3 21  6 37 59.0800000  0  4G 6G13G11G 9
  22651444.379    22651448.876     4143490.371 8    933161.830 9
  20495369.397    20495374.257   -54440027.963 8  34600254.291 8
  21682072.288    21682078.446   -12182298.665 8 -11844040.495 8
  20147421.259    20147422.384   -41704789.080 7  29241909.899 7
 88  3 21  6 38 29.0800000  0  4G 6G13G11G 9
  22672499.774    22672504.140     4254138.095 9   1019380.830 8
  20493651.818    20493656.997   -54449054.584 8  34593220.576 8
  21693920.684    21693924.992   -12120049.139 8 -11795534.372 8
  20155964.147    20155966.674   -41659890.889 7  29276895.490 8
 88  3 21  6 38 59.0800000  0  4G 6G13G11G 9
  22693614.135    22693618.322     4365092.547 9   1105838.846 9
  20492008.327    20492010.806   -54457698.244 9  34586485.258 8
  21705792.169    21705797.627   -12057659.051 9 -11746918.749 8
  20164628.562    20164632.470   -41614358.483 7  29312375.268 6
 88  3 21  6 39 29.0800000  0  4G 6G13G11G 9
  22714785.656    22714791.436     4476351.204 8   1192533.885 9
  20490433.990    20490440.978   -54465959.728 9  34580047.719 8
  21717690.036    21717694.260   -11995130.105 8 -11698194.879 8
  20173413.453    20173417.697   -41568192.899 6  29348348.447 7
 88  3 21  6 39 59.0800000  0  4G 6G13G11G 9
  22736014.910    22736018.910     4587910.963 8   1279463.540 8
  20488934.935    20488939.572   -54473840.520 8  34573906.858 8
  21729615.774    21729620.229   -11932464.817 8 -11649364.751 8
  20182319.757    20182322.679   -41521395.361 8  29384814.033 7
 88  3 21  6 40 29.0800000  0  4G 6G13G11G 9
  22757300.820    22757304.832     4699769.079 8   1366625.713 8
  20487507.795    20487511.255   -54481341.765 8  34568061.741 8
  21741566.866    21741571.300   -11869665.081 8 -11600429.931 8
  20191344.781    20191347.998   -41473967.054 8  29421771.151 7
 88  3 21  6 40 59.0800000  0  4G 6G13G11G 9
  22778640.716    22778647.097     4811922.230 8   1454017.766 8
  20486153.273    20486158.785   -54488464.925 8  34562511.228 7
  21753542.361    21753548.123   -11806732.502 8 -11551391.575 8
  20200490.643    20200494.070   -41425909.221 8  29459218.802 6
 88  3 21  6 41 29.0800000  0  4G 6G13G11G 9
  22800039.610    22800045.079     4924368.907 8   1541638.531 8
  20484869.042    20484872.825   -54495211.329 9  34557254.312 8
  21765541.883    21765546.701   -11743668.913 8 -11502251.114 8
  20209752.742    20209757.471   -41377222.667 7  29497156.370 7
 88  3 21  6 41 59.0800000  0  4G 6G13G11G 9
  22821493.239    22821497.976     5037105.218 9   1629484.969 8
  20483656.270    20483660.979   -54501582.760 8  34552289.560 8
  21777566.218    21777572.284   -11680476.200 8 -11453010.048 8
  20219137.463    20219140.981   -41327908.832 7  29535582.701 7
 88  3 21  6 42 29.0800000  0  4G 6G13G11G 9
  22843000.537    22843004.700     5150128.693 8   1717555.200 8
  20482513.567    20482520.766   -54507581.108 9  34547615.520 8
  21789617.998    21789621.207   -11617156.148 8 -11403669.754 9
  20228641.503    20228646.329   -41277969.010 8  29574496.822 8
 88  3 21  6 42 59.0800000  0  4G 6G13G11G 9
  22864563.936    22864568.417     5263436.078 8   1805846.667 8
  20481443.947    20481447.216   -54513207.134 9  34543231.611 8
  21801689.871    21801694.874   -11553711.155 8 -11354232.089 8
  20238263.850    20238266.568   -41227404.690 7  29613897.566 7
 88  3 21  6 43 29.0800000  0  4G 6G13G11G 9
  22886177.405    22886181.757     5377024.856 8   1894357.385 8
  20480443.486    20480450.087   -54518462.042 7  34539136.879 9
  21813785.863    21813791.608   -11490142.321 8 -11304697.993 7
  20248004.742    20248008.051   -41176217.003 7  29653784.069 7
 88  3 21  6 43 59.0800000  0  4G 6G13G11G 9
  22907844.994    22907851.515     5490892.131 7   1983085.101 8
  20479513.892    20479518.969   -54523347.608 8  34535329.950 8
  21825908.196    21825910.807   -11426451.680 8 -11255068.921 8
  20257862.904    20257866.155   -41124407.564 8  29694155.040 7
 88  3 21  6 44 29.0800000  0  4G 6G13G11G 9
  22929567.496    22929571.969     5605034.953 8   2072027.530 8
  20478654.542    20478659.010   -54527864.848 8  34531810.019 8
  21838050.316    21838054.995   -11362641.388 9 -11205346.596 7
  20267839.997    20267843.529   -41071977.372 7  29735009.712 7
 88  3 21  6 44 59.0800000  0  4G 6G13G11G 9
  22951339.946    22951343.744     5719450.769 8   2161182.732 8
  20477865.398    20477869.464   -54532015.259 9  34528575.952 8
  21850215.035    21850220.339   -11298712.732 9 -11155532.079 9
  20277935.750    20277937.731   -41018927.790 8  29776347.017 7
 88  3 21  6 45 29.0800000  0  4G 6G13G11G 9
  22973163.500    22973168.731     5834136.362 8   2250548.091 8
  20477143.905    20477148.481   -54535800.949 8  34525626.076 8
  21862402.214    21862406.964   -11234667.858 8 -11105626.983 9
  20288148.676    20288150.052   -40965260.615 9  29818165.567 7
 88  3 21  6 45 59.0800000  0  4G 6G13G11G 9
  22995039.367    22995042.028     5949088.731 8   2340121.346 8
  20476493.440    20476497.446   -54539223.263 8  34522959.341 8
  21874611.498    21874616.121   -11170508.725 8 -11055632.871 9
  20298477.783    20298482.668   -40910977.448 7  29860464.130 7
 88  3 21  6 46 29.0800000  0  4G 6G13G11G 9
  23016962.477    23016968.456     6064305.349 8   2429900.543 8
  20475911.287    20475916.210   -54542283.538 9  34520574.715 8
  21886842.088    21886845.707   -11106236.911 9 -11005550.941 9
  20308924.602    20308929.308   -40856079.278 8  29903241.892 7
 88  3 21  6 46 59.0800000  0  4G 6G13G11G 9
  23038939.018    23038943.159     6179783.442 8   2519883.439 9
  20475397.172    20475400.738   -54544983.100 8  34518471.169 7
  21899093.582    21899097.781   -11041854.078 9 -10955382.498 8
  20319489.386    20319491.635   -40800567.550 8  29946497.782 8
 88  3 21  6 47 29.0800000  0  4G 6G13G11G 9
  23060963.666    23060967.105     6295519.939 8   2610067.714 9
  20474952.088    20474955.806   -54547323.159 7  34516647.745 7
  21911365.168    21911371.239   -10977362.003 8 -10905128.933 7
  20330167.708    20330172.417   -40744443.881 7  29990230.483 7
 88  3 21  6 47 59.0800000  0  4G 6G13G11G 9
  23083035.176    23083039.511     6411511.756 7   2700450.920 8
  20474574.070    20474578.108   -54549305.907 8  34515102.775 8
  21923658.364    21923663.986   -10912762.740 8 -10854791.848 8
  20340965.441    20340967.831   -40687710.309 8  30034438.435 8
 88  3 21  6 48 29.0800000  0  4G 6G13G11G 9
  23105153.597    23105158.758     6527756.077 7   2791030.905 8
  20474265.321    20474269.124   -54550932.815 8  34513835.066 7
  21935971.608    21935977.509   -10848058.093 8 -10804372.656 9
  20351875.368    20351880.439   -40630368.013 7  30079120.737 8
 88  3 21  6 48 59.0800000  0  4G 6G13G11G 9
  23127323.305    23127327.751     6644249.853 7   2881805.238 8
  20474024.155    20474027.547   -54552205.063 8  34512843.709 7
  21948303.847    21948308.730   -10783249.514 7 -10753872.456 8
  20362902.441    20362907.283   -40572418.791 8  30124275.953 7
 88  3 21  6 49 29.0800000  0  4G 6G13G11G 9
  23149538.288    23149542.890     6760990.311 8   2972771.823 9
  20473847.974    20473852.721   -54553124.823 8  34512127.027 8
  21960655.213    21960660.615   -10718338.694 7 -10703292.616 8
  20374045.244    20374049.287   -40513864.192 8  30169902.894 8
 88  3 21  6 49 59.0800000  0  4G 6G13G11G 9
  23171798.745    23171803.484     6877974.477 7   3063928.284 9
  20473740.069    20473744.861   -54553693.089 8  34511684.235 8
  21973027.862    21973032.182   -10653327.420 9 -10652634.489 8
  20385303.907    20385308.378   -40454705.963 8  30216000.198 8
 88  3 21  6 50 29.0800000  0  4G 6G13G11G 9
  23194106.474    23194111.628     6995199.523 8   3155272.454 7
  20473697.616    20473704.373   -54553911.312 9  34511514.189 8
  21985417.659    21985423.067   -10588217.344 8 -10601899.346 8
  20396675.789    20396679.931   -40394945.626 8  30262566.660 7
 88  3 21  6 50 59.0800000  0  4G 6G13G11G 9
  23216458.084    23216464.397     7112662.218 8   3246801.847 9
  20473723.302    20473727.294   -54553780.973 9  34511615.763 8
  21997826.136    21997831.557   -10523010.462 8 -10551088.828 8
  20408161.490    20408165.311   -40334585.092 8  30309600.832 7
 88  3 21  6 51 29.0800000  0  4G 6G13G11G 9
  23238856.450    23238861.513     7230360.092 8   3338514.458 9
  20473814.184    20473818.021   -54553303.480 7  34511987.846 8
  22010252.278    22010255.679   -10457708.062 8 -10500203.861 8
  20419762.610    20419764.233   -40273625.911 8  30357101.465 7
 88  3 21  6 51 59.0800000  0  4G 6G13G11G 9
  23261297.505    23261302.998     7348289.817 8   3430407.730 8
  20473969.887    20473974.451   -54552481.016 9  34512628.740 8
  22022697.235    22022701.145   -10392312.402 9 -10449246.166 8
  20431474.621    20431481.358   -40212070.249 8  30405066.892 7
 88  3 21  6 52 29.0800000  0  4G 6G13G11G 9
  23283782.795    23283786.693     7466448.664 9   3522479.589 9
  20474192.842    20474195.356   -54551315.124 9  34513537.225 8
  22035158.661    22035163.897   -10326824.623 8 -10398216.725 8
  20443302.111    20443305.416   -40149919.446 9  30453496.065 7
 88  3 21  6 52 59.0800000  0  4G 6G13G11G 9
  23306310.660    23306313.731     7584833.965 8   3614727.884 9
  20474479.539    20474484.264   -54549806.314 8  34514712.930 7
  22047638.360    22047644.265   -10261245.919 8 -10347116.500 9
  20455241.729    20455245.864   -40087175.325 7  30502387.591 8
 88  3 21  6 53 29.0800000  0  4G 6G13G11G 9
  23328880.574    23328886.710     7703442.576 8   3707150.195 9
  20474831.486    20474836.618   -54547957.006 8  34516153.946 8
  22060135.433    22060139.510   -10195578.606 9 -10295947.191 9
  20467295.009    20467298.497   -40023839.752 9  30551739.948 8
 88  3 21  6 53 59.0800000  0  4G 6G13G11G 9
  23351493.387    23351498.471     7822271.624 7   3799744.279 8
  20475249.404    20475251.209   -54545768.632 8  34517859.178 8
  22072648.842    22072653.505   -10129824.275 8 -10244710.019 8
  20479459.671    20479462.690   -39959914.443 8  30601551.872 7
 88  3 21  6 54 29.0800000  0  4G 6G13G11G 9
  23374146.225    23374152.655     7941318.149 9   3892507.770 9
  20475728.781    20475732.948   -54543242.475 8  34519827.629 8
  22085176.005    22085181.300   -10063984.015 7 -10193405.918 7
  20491735.249    20491741.335   -39895401.526 8  30651821.663 7
 88  3 21  6 54 59.0800000  0  4G 6G13G11G 9
  23396840.794    23396846.533     8060578.938 8   3985438.260 8
  20476272.132    20476278.875   -54540380.566 9  34522057.673 7
  22097720.539    22097725.580    -9998059.794 8 -10142036.440 9
  20504123.410    20504127.420   -39830303.024 8  30702547.754 7
 88  3 21  6 55 29.0800000  0  4G 6G13G11G 9
  23419575.754    23419581.145     8180051.278 6   4078533.577 9
  20476881.834    20476885.009   -54537183.931 7  34524548.581 8
  22110282.367    22110287.030    -9932053.452 9 -10090602.944 9
  20516623.644    20516626.308   -39764620.619 8  30753728.824 7
 88  3 21  6 55 59.0800000  0  4G 6G13G11G 9
  23442350.573    23442354.285     8299732.307 6   4171791.446 8
  20477554.188    20477556.609   -54533654.626 8  34527298.689 8
  22122858.124    22122862.727    -9865966.247 8 -10039106.425 9
  20529232.510    20529236.297   -39698356.265 8  30805363.350 7
 88  3 21  6 56 29.0800000  0  4G 6G13G11G 9
  23465164.926    23465169.152     8419618.716 7   4265209.418 9
  20478288.108    20478291.356   -54529794.210 8  34530306.804 8
  22135448.327    22135453.430    -9799799.968 9  -9987548.292 8
  20541952.673    20541955.522   -39631512.243 9  30857449.596 7
 88  3 21  6 56 59.0800000  0  4G 6G13G11G 9
  23488016.767    23488020.170     8539707.258 7   4358784.875 9
  20479083.829    20479088.522   -54525604.580 8  34533571.462 8
  22148053.826    22148057.562    -9733556.633 8  -9935930.103 8
  20554781.693    20554786.279   -39564090.529 8  30909985.974 7
 88  3 21  6 57 29.0800000  0  4G 6G13G11G 9
  23510905.045    23510912.820     8659995.182 8   4452515.696 8
  20479945.471    20479949.304   -54521087.425 8  34537091.336 8
  22160673.916    22160678.654    -9667237.774 8  -9884253.083 8
  20567721.825    20567724.832   -39496093.389 8  30962970.731 8
 88  3 21  6 57 59.0800000  0  4G 6G13G11G 9
  23533835.045    23533840.026     8780479.656 8   4546399.637 9
  20480865.729    20480870.167   -54516243.790 8  34540865.607 9
  22173308.455    22173313.762    -9600844.784 9  -9832518.295 9
  20580769.681    20580774.522   -39427522.526 8  31016402.553 8
 88  3 21  6 58 29.0800000  0  4G 6G13G11G 9
  23556798.392    23556803.097     8901158.067 8   4640434.748 9
  20481849.910    20481852.714   -54511075.167 8  34544893.086 8
  22185957.558    22185962.956    -9534378.769 8  -9780726.608 9
  20593927.380    20593932.185   -39358380.003 8  31070279.810 8
 88  3 21  6 58 59.0800000  0  4G 6G13G11G 9
  23579799.690    23579804.132     9022027.118 9   4734618.456 8
  20482895.509    20482898.413   -54505583.773 8  34549172.128 8
  22198617.681    22198623.558    -9467841.191 7  -9728879.167 8
  20607192.639    20607197.138   -39288667.792 9  31124601.018 8
 88  3 21  6 59 29.0800000  0  4G 6G13G11G 9
  23602835.881    23602842.322     9143083.262 8   4828947.927 8
  20484001.555    20484005.831   -54499771.606 8  34553701.077 8
  22211292.197    22211297.805    -9401234.613 9  -9676977.964 9
  20620566.827    20620570.345   -39218388.736 8  31179363.898 7
 88  3 21  6 59 59.0800000  0  4G 6G13G11G 9
  23625905.956    23625911.904     9264324.057 7   4923421.290 8
  20485166.867    20485172.688   -54493639.562 9  34558479.305 8
  22223981.967    22223986.412    -9334560.008 8  -9625023.729 8
  20634048.299    20634052.168   -39147544.495 7  31234567.182 8
 88  3 21  7  0 29.0800000  0  4G 6G13G11G 9
  23649012.995    23649017.987     9385746.209 8   5018035.991 8
  20486395.599    20486399.367   -54487189.325 9  34563505.475 8
  22236681.325    22236685.248    -9267818.897 8  -9573017.660 8
  20647637.107    20647639.523   -39076137.660 9  31290208.857 7
 88  3 21  7  0 59.0800000  0  4G 6G13G11G 9
  23672152.721    23672157.705     9507346.626 8   5112789.567 8
  20487682.444    20487687.875   -54480423.309 8  34568777.689 8
  22249394.045    22249400.030    -9201012.795 8  -9520960.996 9
  20661331.413    20661334.953   -39004170.146 8  31346287.426 8
 88  3 21  7  1 29.0800000  0  4G 6G13G11G 9
  23695324.531    23695332.065     9629123.135 8   5207680.347 8
  20489029.740    20489034.715   -54473342.357 9  34574295.325 8
  22262119.615    22262125.109    -9134142.597 8  -9468854.415 8
  20675133.162    20675137.349   -38931643.654 9  31402801.531 8
 88  3 21  7  1 59.0800000  0  4G 6G13G11G 9
  23718531.385    23718536.624     9751072.098 7   5302705.494 8
  20490436.887    20490441.635   -54465948.507 9  34580056.770 7
  22274856.674    22274861.046    -9067210.541 8  -9416699.526 8
  20689038.968    20689043.078   -38858561.012 8  31459749.043 7
 88  3 21  7  2 29.0800000  0  4G 6G13G11G 9
  23741769.908    23741774.981     9873190.794 7   5397862.895 8
  20491903.301    20491907.286   -54458242.608 9  34586061.383 7
  22287604.688    22287608.784    -9000217.603 7  -9364497.232 8
  20703053.338    20703055.305   -38784924.187 8  31517128.355 8
 88  3 21  7  2 59.0800000  0  4G 6G13G11G 9
  23765039.001    23765046.037     9995476.108 7   5493150.148 8
  20493427.325    20493433.370   -54450227.322 9  34592307.052 7
  22300362.958    22300368.823    -8933165.499 8  -9312248.855 8
  20717170.518    20717175.219   -38710735.478 9  31574937.729 8
 88  3 21  7  3 29.0800000  0  4G 6G13G11G 9
  23788341.425    23788345.375    10117925.022 7   5588564.918 8
  20495011.759    20495016.209   -54441904.027 9  34598792.745 7
  22313133.348    22313139.514    -8866055.789 8  -9259955.597 9
  20731391.302    20731397.239   -38635997.401 8  31633175.168 7
 88  3 21  7  3 59.0800000  0  4G 6G13G11G 9
  23811672.668    23811678.811    10240534.903 8   5684105.050 9
  20496655.788    20496658.811   -54433274.036 8  34605517.421 8
  22325915.853    22325919.482    -8798889.102 8  -9207617.940 8
  20745718.183    20745722.350   -38560711.782 8  31691839.282 8
 88  3 21  7  4 29.0800000  0  4G 6G13G11G 9
  23835034.319    23835040.115    10363302.363 7   5779767.969 9
  20498355.140    20498359.219   -54424339.039 8  34612479.771 7
  22338707.498    22338712.118    -8731667.508 8  -9155237.475 9
  20760147.949    20760153.206   -38484881.307 7  31750927.940 7
 88  3 21  7  4 59.0800000  0  4G 6G13G11G 9
  23858426.593    23858431.724    10486224.044 8   5875551.088 8
  20500112.423    20500116.881   -54415101.593 9  34619677.778 8
  22351508.358    22351512.841    -8664393.015 7  -9102815.785 8
  20774681.984    20774686.197   -38408508.888 8  31810438.874 8
 88  3 21  7  5 29.0800000  0  4G 6G13G11G 9
  23881847.576    23881853.213    10609297.553 8   5971452.452 9
  20501928.371    20501933.906   -54405562.334 8  34627110.972 7
  22364321.167    22364325.435    -8597066.166 8  -9050353.293 9
  20789317.375    20789322.326   -38331596.094 7  31870370.905 8
 88  3 21  7  5 59.0800000  0  4G 6G13G11G 9
  23905295.108    23905300.672    10732519.577 8   6067469.605 9
  20503801.559    20503803.285   -54395723.161 9  34634777.847 7
  22377142.311    22377148.056    -8529688.709 8  -8997851.422 8
  20804057.209    20804062.141   -38254145.718 8  31930721.826 7
 88  3 21  7  6 29.0800000  0  3G13G11G 9
  20505730.048    20505732.902   -54385585.549 8  34642677.301 8
  22389974.532    22389979.539    -8462261.917 8  -8945311.077 8
  20818897.276    20818900.388   -38176160.244 8  31991489.704 8
 88  3 21  7  6 59.0800000  0  4G 3G13G11G 9
                  23954767.796   -95374615.259 1
  20507714.637    20507718.560   -54375151.939 8  34650807.402 8
  22402814.511    22402818.662    -8394787.157 9  -8892733.359 8
  20833838.540    20833842.195   -38097641.765 8  32052672.920 7
 88  3 21  7  7 29.0800000  0  3G13G11G 9
  20509756.631    20509760.036   -54364423.886 7  34659166.920 7
  22415662.573    22415667.996    -8327266.090 8  -8840119.527 7
  20848882.188    20848885.077   -38018593.129 8  32114269.218 7
 88  3 21  7  7 59.0800000  0  4G 3G13G11G 9
                  22852416.137   -95596428.318 8
  20511854.540    20511857.409   -54353402.840 9  34667754.749 7
  22428520.883    22428525.213    -8259700.014 8  -8787470.662 8
  20864023.569    20864028.096   -37939016.714 9  32176276.820 7
 88  3 21  7  8 29.0800000  0  4G 3G13G11G 9
  22840645.472    22840651.382   -95658278.588 9 121280879.092 9
  20514006.807    20514009.714   -54342090.090 8  34676569.894 8
  22441385.425    22441390.471    -8192090.046 8  -8734787.573 9
  20879264.843    20879269.723   -37858914.943 8  32238693.751 8
 88  3 21  7  8 59.0800000  0  4G 3G13G11G 9
  22828920.356    22828925.371   -95719893.521 8 121232867.481 9
  20516215.141    20516219.086   -54330487.900 8  34685610.570 8
  22454258.995    22454265.447    -8124437.281 8  -8682071.162 9
  20894609.560    20894613.587   -37778290.174 9  32301518.218 8
 88  3 21  7  9 29.0800000  0  4G 3G13G11G 9
  22817242.011    22817244.342   -95781273.463 9 121185038.983 7
  20518476.664    20518480.396   -54318597.515 8  34694875.808 7
  22467141.627    22467146.535    -8056743.379 8  -8629322.685 9
  20910049.474    20910054.291   -37697145.178 8  32364748.065 7
 88  3 21  7  9 59.0800000  0  4G 3G13G11G 9
  22805604.432    22805609.931   -95842418.169 7 121137393.774 9
  20520794.370    20520798.370   -54306420.567 8  34704364.345 8
  22480032.411    22480035.832    -7989009.770 8  -8576543.250 9
  20925590.856    20925593.738   -37615482.524 8  32428381.287 8
 88  3 21  7 10 29.0800000  0  4G 3G13G11G 9
  22794014.753    22794018.715   -95903328.541 8 121089931.180 8
  20523164.807    20523169.839   -54293959.391 8  34714074.343 7
  22492927.021    22492933.051    -7921237.585 8  -8523733.780 9
  20941228.011    20941231.692   -37533305.192 9  32492415.568 8
 88  3 21  7 10 59.0800000  0  4G 3G13G11G 9
  22782467.030    22782472.976   -95964005.350 9 121042650.552 8
  20525589.589    20525593.898   -54281216.268 8  34724004.052 8
  22505830.338    22505837.246    -7853428.855 8  -8470895.834 9
  20956964.126    20956966.840   -37450615.978 9  32556848.692 8
 88  3 21  7 11 29.0800000  0  4G 3G13G11G 9
  22770966.540    22770972.009   -96024446.965 9 120995553.215 8
  20528068.530    20528072.426   -54268191.315 8  34734153.370 7
  22518741.476    22518746.948    -7785583.615 8  -8418029.401 8
  20972796.722    20972799.106   -37367416.210 8  32621679.682 7
 88  3 21  7 11 59.0800000  0  4G 3G13G11G 9
  22759508.724    22759513.866   -96084654.551 8 120948638.237 8
  20530599.628    20530604.494   -54254886.918 9  34744520.446 8
  22531658.315    22531662.958    -7717703.717 9  -8365135.980 8
  20988726.081    20988729.066   -37283709.168 8  32686905.914 8
 88  3 21  7 12 29.0800000  0  4G 3G13G11G 9
  22748096.674    22748100.841   -96144628.294 9 120901905.486 9
  20533185.684    20533189.658   -54241304.888 8  34755103.862 7
  22544581.754    22544587.970    -7649790.376 7  -8312216.509 8
  21004750.115    21004753.447   -37199497.583 9  32752525.311 8
 88  3 21  7 12 59.0800000  0  4G 3G13G11G 9
  22736728.744    22736732.383   -96204369.430 7 120855353.960 8
  20535821.629    20535825.011   -54227447.423 9  34765901.899 8
  22557512.690    22557517.567    -7581845.487 8  -8259272.472 9
  21020869.974    21020873.183   -37114784.924 8  32818535.160 8
 88  3 21  7 13 29.0800000  0  4G 3G13G11G 9
  22725403.330    22725410.253   -96263877.731 8 120808983.880 9
  20538512.361    20538515.943   -54213315.148 8  34776914.074 8
  22570445.290    22570452.705    -7513869.877 8  -8206304.482 9
  21037084.708    21037088.909   -37029572.944 9  32884934.078 8
 88  3 21  7 13 59.0800000  0  4G 3G13G11G 9
  22714124.515    22714128.892   -96323152.709 7 120762795.619 8
  20541252.801    20541257.328   -54198909.761 8  34788139.058 8
  22583389.233    22583393.137    -7445863.853 8  -8153312.781 8
  21053395.957    21053401.125   -36943863.994 8  32951720.254 7
 88  3 21  7 14 29.0800000  0  4G 3G13G11G 9
  22702890.233    22702893.631   -96382194.971 9 120716788.685 8
  20544044.985    20544049.823   -54184232.867 8  34799575.596 7
  22596335.441    22596337.616    -7377829.224 8  -8100298.774 7
  21069799.617    21069804.506   -36857661.126 7  33018891.296 8
 88  3 21  7 14 59.0800000  0  4G 3G13G11G 9
  22691697.599    22691702.410   -96441005.489 7 120670962.310 8
  20546889.825    20546893.810   -54169286.664 8  34811221.990 8
  22609286.682    22609291.281    -7309767.383 8  -8047263.573 8
  21086295.432    21086300.752   -36770966.992 7  33086445.119 7
 88  3 21  7 15 29.0800000  0  4G 3G13G11G 9
  22680551.376    22680556.593   -96499583.562 9 120625317.094 8
  20549785.576    20549789.162   -54154072.138 8  34823077.465 8
  22622243.713    22622248.031    -7241678.485 9  -7994207.283 9
  21102886.009    21102891.462   -36683784.018 8  33154379.889 7
 88  3 21  7 15 59.0800000  0  4G 3G13G11G 9
  22669448.739    22669452.301   -96557929.743 8 120579852.540 8
  20552731.113    20552735.196   -54138591.116 9  34835140.617 8
  22635204.916    22635210.082    -7173564.234 8  -7941131.295 8
  21119568.870    21119573.333   -36596115.065 7  33222693.351 7
 88  3 21  7 16 29.0800000  0  4G 3G13G11G 9
  22658389.211    22658392.999   -96616044.301 8 120534568.511 8
  20555726.919    20555730.859   -54122845.792 9  34847409.708 8
  22648171.929    22648176.643    -7105425.929 8  -7888036.529 8
  21136343.848    21136348.705   -36507963.325 8  33291382.989 7
 88  3 21  7 16 59.0800000  0  4G 3G13G11G 9
  22647374.014    22647379.152   -96673928.442 9 120489463.984 8
  20558773.389    20558777.486   -54106838.217 9  34859883.135 8
  22661142.622    22661147.513    -7037265.610 9  -7834924.566 7
  21153210.777    21153213.869   -36419331.853 9  33360446.471 7
 88  3 21  7 17 29.0800000  0  4G 3G13G11G 9
  22636402.842    22636408.651   -96731581.814 8 120444539.312 7
  20561870.158    20561873.396   -54090569.370 8  34872560.158 7
  22674116.885    22674121.320    -6969083.500 7  -7781795.647 8
  21170167.770    21170172.392   -36330222.881 8  33429882.003 7
 88  3 21  7 17 59.0800000  0  4G 3G13G11G 9
  22625476.560    22625479.715   -96789004.774 8 120399794.162 7
  20565013.928    20565018.678   -54074041.183 8  34885439.284 9
  22687093.263    22687100.702    -6900880.857 7  -7728650.739 8
  21187214.664    21187217.661   -36240639.066 9  33499687.560 7
 88  3 21  7 18 29.0800000  0  4G 3G13G11G 9
  22614593.571    22614596.676   -96846197.846 8 120355228.148 8
  20568208.674    20568212.398   -54057255.191 9  34898519.276 9
  22700076.875    22700081.628    -6832659.059 7  -7675490.910 7
  21204351.318    21204354.599   -36150583.959 8  33569860.366 7
 88  3 21  7 18 59.0800000  0  4G 3G13G11G 9
  22603750.942    22603756.763   -96903161.326 8 120310841.023 7
  20571452.313    20571454.805   -54040213.305 9  34911798.692 8
  22713063.165    22713069.132    -6764419.067 8  -7622316.919 9
  21221578.797    21221582.849   -36060060.301 8  33640398.267 8
 88  3 21  7 19 29.0800000  0  4G 3G13G11G 9
  22592956.286    22592960.006   -96959895.979 8 120266632.227 9
  20574743.545    20574747.586   -54022918.053 9  34925275.508 8
  22726052.134    22726057.541    -6696162.229 8  -7569129.778 9
  21238892.502    21238897.983   -35969071.145 9  33711298.891 8
 88  3 21  7 19 59.0800000  0  4G 3G13G11G 9
  22582203.890    22582207.749   -97016402.012 8 120222601.581 8
  20578082.108    20578085.606   -54005370.353 9  34938949.047 7
  22739044.297    22739047.963    -6627889.610 8  -7515930.325 9
  21256295.524    21256298.595   -35877619.004 7  33782560.279 8
 88  3 21  7 20 29.0800000  0  4G 3G13G11G 9
  22571495.271    22571499.465   -97072678.442 8 120178749.832 8
  20581469.810    20581473.364   -53987570.207 8  34952819.278 8
  22752038.990    22752043.068    -6559600.772 7  -7462718.263 8
  21273786.660    21273788.261   -35785705.407 8  33854181.247 7
 88  3 21  7 20 59.0800000  0  4G 3G13G11G 9
  22560829.770    22560833.217   -97128727.258 9 120135075.425 8
  20584903.618    20584907.200   -53969521.388 8  34966883.299 8
  22765035.817    22765040.382    -6491298.610 7  -7409495.839 8
  21291364.574    21291367.536   -35693335.193 8  33926158.041 8
 88  3 21  7 21 29.0800000  0  4G 3G13G11G 9
  22550206.446    22550211.277   -97184549.442 9 120091577.635 9
  20588386.018    20588387.655   -53951225.493 9  34981139.841 7
  22778036.901    22778039.928    -6422984.311 7  -7356263.944 8
  21309027.263    21309031.228   -35600511.144 8  33998488.435 8
 88  3 21  7 21 59.0800000  0  4G 3G13G11G 9
  22539627.201    22539630.807   -97240144.543 8 120048256.794 8
  20591914.009    20591917.276   -53932684.209 8  34995587.610 7
  22791038.220    22791043.378    -6354658.559 8  -7303023.100 9
  21326776.861    21326780.587   -35507235.937 7  34071170.401 8
 88  3 21  7 22 29.0800000  0  4G 3G13G11G 9
  22529091.123    22529095.937   -97295512.677 9 120005112.783 8
  20595489.678    20595492.091   -53913898.194 9  35010226.069 7
  22804042.593    22804047.108    -6286321.839 8  -7249773.721 8
  21344611.718    21344614.912   -35413512.109 7  34144201.938 8
 88  3 21  7 22 59.0800000  0  4G 3G13G11G 9
  22518598.143    22518602.245   -97350654.308 9 119962145.326 8
  20599109.017    20599113.952   -53894869.940 8  35025053.287 8
  22817048.065    22817053.718    -6217975.287 9  -7196516.682 8
  21362531.170    21362535.797   -35319342.818 7  34217580.572 8
 88  3 21  7 23 29.0800000  0  4G 3G13G11G 9
  22508149.302    22508152.404   -97405570.136 8 119919353.767 8
  20602776.723    20602780.052   -53875600.837 8  35040068.181 8
  22830054.108    22830061.220    -6149620.085 6  -7143252.906 9
  21380536.503    21380538.478   -35224731.143 8  34291303.907 8
 88  3 21  7 23 59.0800000  0  4G 3G13G11G 9
  22497741.176    22497745.772   -97460260.250 9 119876738.133 7
  20606490.060    20606492.456   -53856091.874 9  35055269.973 8
  22843064.029    22843069.569    -6081257.118 7  -7089983.122 8
  21398622.387    21398626.120   -35129679.530 9  34365370.082 8
 88  3 21  7 24 29.0800000  0  4G 3G13G11G 9
  22487375.762    22487379.691   -97514725.150 8 119834297.974 8
  20610246.409    20610250.914   -53836345.326 8  35070656.867 9
  22856074.982    22856079.308    -6012887.510 9  -7036708.074 8
  21416793.093    21416799.510   -35034191.760 8  34439776.112 8
 88  3 21  7 24 59.0800000  0  4G 3G13G11G 9
  22477053.738    22477058.561   -97568965.593 8 119792032.722 8
  20614049.739    20614053.778   -53816362.539 9  35086227.888 7
  22869086.304    22869091.499    -5944512.078 8  -6983428.532 8
  21435046.795    21435051.042   -34938270.333 8  34514520.056 8
 88  3 21  7 25 29.0800000  0  4G 3G13G11G 9
  22466775.151    22466779.477   -97622981.886 8 119749942.111 8
  20617897.142    20617901.322   -53796145.477 9  35101981.438 9
  22882098.918    22882103.482    -5876131.626 7  -6930145.062 9
  21453382.321    21453385.664   -34841918.357 8  34589599.509 9
 88  3 21  7 25 59.0800000  0  4G 3G13G11G 9
  22456538.676    22456543.102   -97676774.041 8 119708026.158 8
  20621787.365    20621792.110   -53775695.520 8  35117916.467 7
  22895111.228    22895116.159    -5807747.112 8  -6876858.440 9
  21471799.828    21471803.061   -34745138.784 9  34665012.132 7
 88  3 21  7 26 29.0800000  0  4G 3G13G11G 9
  22446345.159    22446349.335   -97730343.185 8 119666284.000 8
  20625722.440    20625727.998   -53755014.523 8  35134031.536 8
  22908126.043    22908130.141    -5739359.896 8  -6823569.712 8
  21490295.579    21490300.517   -34647934.901 8  34740755.397 8
 88  3 21  7 26 59.0800000  0  4G 3G13G11G 9
  22436193.291    22436197.537   -97783689.756 9 119624715.279 9
  20629699.985    20629705.955   -53734104.463 8  35150325.086 8
  22921139.240    22921144.739    -5670970.775 7  -6770279.542 8
  21508874.001    21508879.587   -34550309.743 8  34816826.944 8
 88  3 21  7 27 29.0800000  0  4G 3G13G11G 9
  22426084.917    22426088.518   -97836814.192 8 119583319.622 8
  20633722.913    20633728.814   -53712966.550 8  35166796.197 8
  22934152.594    22934158.590    -5602580.946 8  -6716988.776 8
  21527531.458    21527534.921   -34452266.373 9  34893224.354 7
 88  3 21  7 27 59.0800000  0  4G 3G13G11G 9
  22416016.174    22416021.446   -97889717.057 8 119542096.628 8
  20637789.141    20637795.001   -53691602.440 8  35183443.532 7
  22947166.955    22947172.932    -5534191.316 8  -6663698.149 8
  21546267.816    21546270.824   -34353808.186 9  34969945.012 8
 88  3 21  7 28 29.0800000  0  4G 3G13G11G 9
  22405990.838    22405997.104   -97942398.717 9 119501046.012 8
  20641897.960    20641901.940   -53670014.105 9  35200265.622 8
  22960181.682    22960187.039    -5465802.262 8  -6610407.981 8
  21565081.405    21565085.265   -34254938.025 8  35046986.659 9
 88  3 21  7 28 59.0800000  0  4G 3G13G11G 9
  22396009.968    22396013.913   -97994858.956 8 119460167.932 8
  20646048.425    20646051.750   -53648202.453 7  35217261.721 8
  22973196.590    22973199.715    -5397414.403 8  -6557118.738 8
  21583973.450    21583977.518   -34155658.315 8  35124347.463 8
 88  3 21  7 29 29.0800000  0  4G 3G13G11G 9
  22386069.162    22386073.249   -98047099.447 8 119419461.073 8
  20650242.252    20650244.428   -53626169.813 8  35234430.021 7
  22986208.445    22986213.857    -5329029.454 8  -6503831.801 8
  21602943.785    21602948.442   -34055973.036 8  35202024.288 8
 88  3 21  7 29 59.0800000  0  4G 3G13G11G 9
  22376167.240    22376172.360   -98099120.224 8 119378925.434 9
  20654477.275    20654481.450   -53603917.556 8  35251769.466 7
  22999221.393    22999226.419    -5260648.186 8  -6450547.714 8
  21621990.433    21621994.212   -33955884.997 8  35280014.953 9
 88  3 21  7 30 29.0800000  0  4G 3G13G11G 9
  22366311.361    22366315.577   -98150921.513 8 119338560.812 8
  20658751.461    20658755.172   -53581447.490 7  35269278.610 8
  23012233.285    23012239.147    -5192271.166 7  -6397266.956 9
  21641111.479    21641115.692   -33855397.422 9  35358316.930 8
 88  3 21  7 30 59.0800000  0  4G 3G13G11G 9
  22356495.580    22356499.330   -98202504.271 7 119298366.494 9
  20663067.724    20663073.539   -53558760.999 8  35286956.379 8
  23025243.151    23025248.119    -5123899.245 8  -6343990.134 8
  21660308.437    21660312.739   -33754513.117 7  35436928.054 8
 88  3 21  7 31 29.0800000  0  4G 3G13G11G 9
  22346719.710    22346725.471   -98253868.326 8 119258342.578 9
  20667425.882    20667430.584   -53535859.606 8  35304801.616 8
  23038254.117    23038258.261    -5055532.895 8  -6290717.629 8
  21679582.012    21679585.267   -33653235.193 7  35515845.906 8
 88  3 21  7 31 59.0800000  0  4G 3G13G11G 9
  22336988.638    22336992.865   -98305014.727 8 119218488.251 9
  20671824.885    20671829.394   -53512745.472 8  35322812.621 8
  23051263.035    23051266.524    -4987173.325 9  -6237450.438 8
  21698929.179    21698932.972   -33551567.536 8  35595067.425 9
 88  3 21  7 32 29.0800000  0  4G 3G13G11G 9
  22327295.877    22327302.350   -98355944.403 7 119178802.803 9
  20676262.681    20676268.975   -53489419.696 8  35340988.541 8
  23064269.690    23064274.375    -4918821.492 9  -6184189.262 9
  21718349.389    21718354.356   -33449512.872 8  35674590.531 7
 88  3 21  7 32 59.0800000  0  4G 3G13G11G 9
  22317646.224    22317651.084   -98406657.700 8 119139285.959 7
  20680743.810    20680747.349   -53465884.215 8  35359327.882 7
  23077272.624    23077279.290    -4850478.277 7  -6130934.795 8
  21737842.792    21737846.819   -33347074.640 9  35754412.514 8
 88  3 21  7 33 29.0800000  0  4G 3G13G11G 9
  22308037.304    22308041.250   -98457155.027 8 119099937.430 8
  20685260.597    20685264.529   -53442140.648 8  35377829.375 7
  23090276.576    23090282.105    -4782144.609 7  -6077687.804 9
  21757407.550    21757411.259   -33244255.799 7  35834531.070 8
 88  3 21  7 33 59.0800000  0  4G 3G13G11G 9
  22298468.431    22298471.720   -98507436.838 8 119060756.815 9
  20689819.418    20689823.184   -53418190.183 8  35396492.053 8
  23103279.753    23103285.280    -4713820.986 8  -6024448.645 9
  21777046.719    21777049.640   -33141059.539 8  35914943.725 9
 88  3 21  7 34 29.0800000  0  4G 3G13G11G 9
  22288941.754    22288944.955   -98557503.763 8 119021743.640 8
  20694415.014    20694417.745   -53394034.446 7  35415314.699 7
  23116278.859    23116283.778    -4645508.302 9  -5971217.969 9
  21796754.308    21796759.320   -33037489.218 9  35995647.856 9
 88  3 21  7 34 59.0800000  0  4G 3G13G11G 9
  22279454.607    22279458.335   -98607356.359 8 118982897.487 8
  20699050.164    20699053.646   -53369675.619 9  35434295.609 8
  23129275.632    23129281.367    -4577207.488 9  -5917996.549 9
  21816533.965    21816538.368   -32933547.953 9  36076641.029 8
 88  3 21  7 35 29.0800000  0  4G 3G13G11G 9
  22270009.527    22270014.262   -98656995.478 8 118944217.683 8
  20703723.817    20703727.405   -53345114.745 7  35453433.958 8
  23142271.358    23142276.209    -4508919.101 8  -5864784.819 9
  21836382.176    21836387.601   -32829239.134 8  36157920.608 8
 88  3 21  7 35 59.0800000  0  4G 3G13G11G 9
  22260603.217    22260608.063   -98706421.839 9 118905703.646 9
  20708436.438    20708440.423   -53320353.344 7  35472728.576 7
  23155263.269    23155267.163    -4440643.689 8  -5811583.198 8
  21856302.177    21856306.197   -32724565.931 9  36239484.139 8
 88  3 21  7 36 29.0800000  0  3G 3G13G 9
  22251238.732    22251241.970   -98755635.509 7 118867355.333 6
  20713184.559    20713189.029   -53295393.142 6  35492178.074 6
  21876287.369    21876293.986   -32619531.241 6  36321329.314 7
 88  3 21  7 36 59.0800000  0  4G 3G13G12G 9
  22241912.473    22241917.915   -98804636.689 9 118829172.606 8
  20717973.139    20717977.970   -53270235.511 9  35511781.409 8
  20478476.458    20478487.764  -105836092.156 2 134503458.995 2
  21896345.026    21896350.155   -32514138.372 1  36403453.564 1
 88  3 21  7 37 29.0800000  0  4G 3G13G12G 9
  22232628.216    22232632.790   -98853426.773 8 118791154.373 8
  20722796.816    20722803.043   -53244882.207 7  35531537.220 7
  20481415.159    20481418.998  -105820675.089 8 134515472.373 7
  21916465.838    21916471.922   -32408390.854 8  36485854.268 8
 88  3 21  7 37 59.0800000  0  4G 3G13G12G 9
  22223384.220    22223388.183   -98902006.179 8 118753300.321 9
  20727660.044    20727662.918   -53219335.082 9  35551444.069 9
  20484470.464    20484476.358  -105804611.734 8 134527989.250 8
  21936657.385    21936662.817   -32302291.824 8  36568528.812 8
 88  3 21  7 38 29.0800000  0  4G 3G13G12G 9
  22214180.302    22214184.822   -98950375.167 8 118715610.220 7
  20732557.854    20732562.785   -53193595.376 8  35571500.984 8
  20487650.942    20487655.002  -105787902.511 8 134541009.429 8
  21956912.862    21956918.545   -32195844.486 7  36651474.764 7
 88  3 21  7 38 59.0800000  0  4G 3G13G12G 9
  22205016.383    22205019.562   -98998534.097 8 118678083.783 8
  20737492.149    20737497.739   -53167664.946 9  35591706.525 8
  20490953.332    20490958.589  -105770547.953 8 134554532.443 7
  21977236.539    21977239.130   -32089052.303 8  36734689.421 7
 88  3 21  7 39 29.0800000  0  4G 3G13G12G 9
  22195889.742    22195894.295   -99046483.945 9 118640720.281 8
  20742463.363    20742466.321   -53141544.790 9  35612059.883 8
  20494378.546    20494383.910  -105752548.579 8 134568557.921 7
  21997622.810    21997625.694   -31981918.493 7  36818170.317 9
 88  3 21  7 39 59.0800000  0  4G 3G13G12G 9
  22186805.138    22186811.445   -99094225.660 8 118603518.966 8
  20747469.365    20747472.880   -53115236.315 9  35632560.017 8
  20497926.436    20497931.992  -105733904.500 8 134583085.768 8
  22018074.396    22018077.810   -31874445.917 8  36901915.153 8
 88  3 21  7 40 29.0800000  0  4G 3G13G12G 9
  22177759.886    22177764.274   -99141759.842 9 118566479.349 9
  20752510.334    20752514.751   -53088741.685 9  35653205.175 7
  20501596.555    20501602.410  -105714616.376 7 134598115.457 7
  22038587.345    22038592.158   -31766638.555 8  36985920.864 8
 88  3 21  7 40 59.0800000  0  4G 3G13G12G 9
  22168755.217    22168759.782   -99189086.634 8 118529601.343 8
  20757587.780    20757592.486   -53062061.996 9  35673994.544 8
  20505390.351    20505394.897  -105694684.192 8 134613647.011 8
  22059165.882    22059172.093   -31658499.271 8  37070185.195 9
 88  3 21  7 41 29.0800000  0  4G 3G13G12G 9
  22159788.465    22159792.835   -99236207.174 9 118492884.046 8
  20762698.167    20762702.727   -53035198.996 9  35694926.737 8
  20509305.312    20509310.343  -105674109.329 8 134629679.362 7
  22079806.807    22079813.521   -31550031.543 8  37154705.492 9
 88  3 21  7 41 59.0800000  0  4G 3G13G12G 9
  22150860.793    22150867.085   -99283121.668 8 118456327.321 7
  20767847.157    20767849.433   -53008154.062 9  35716000.712 8
  20513341.841    20513347.546  -105652892.008 8 134646212.331 8
  22100509.240    22100515.796   -31441238.381 8  37239479.372 9
 88  3 21  7 42 29.0800000  0  4G 3G13G12G 9
  22141971.670    22141977.143   -99329830.288 8 118419931.012 8
  20773027.372    20773031.674   -52980927.800 9  35737215.988 7
  20517502.429    20517506.604  -105631032.304 8 134663245.854 8
  22121274.634    22121279.745   -31332122.881 8  37324504.425 9
 88  3 21  7 42 59.0800000  0  4G 3G13G12G 9
  22133122.481    22133126.885   -99376334.560 7 118383693.913 8
  20778242.172    20778247.060   -52953523.031 9  35758570.346 8
  20521782.615    20521789.455  -105608531.874 8 134680778.647 8
  22142100.184    22142104.794   -31222688.837 8  37409777.661 9
 88  3 21  7 43 29.0800000  0  4G 3G13G12G 9
  22124312.499    22124316.853   -99422635.101 8 118347615.595 8
  20783489.941    20783495.532   -52925940.998 8  35780062.844 9
  20526188.197    20526190.952  -105585391.044 8 134698810.461 8
  22162983.656    22162988.925   -31112939.930 7  37495296.272 9
 88  3 21  7 43 59.0800000  0  4G 3G13G12G 9
  22115540.340    22115544.542   -99468732.234 7 118311695.762 9
  20788773.223    20788775.280   -52898183.159 8  35801692.334 8
  20530713.254    20530718.503  -105561609.838 8 134717341.246 6
  22183928.661    22183932.810   -31002879.107 8  37581057.925 8
 88  3 21  7 44 29.0800000  0  4G 3G13G12G 9
  22106806.811    22106811.206   -99514627.019 7 118275933.606 8
  20794086.771    20794092.804   -52870251.020 8  35823457.635 8
  20535360.343    20535365.042  -105537189.484 8 134736370.085 7
  22204929.411    22204936.045   -30892509.988 7  37667059.810 8
 88  3 21  7 44 59.0800000  0  4G 3G13G12G 9
  22098111.196    22098115.494   -99560319.865 8 118240328.814 8
  20799436.490    20799440.638   -52842145.822 9  35845357.789 8
  20540128.942    20540133.723  -105512131.022 8 134755896.137 7
  22225990.810    22225996.248   -30781835.582 8  37753299.595 8
 88  3 21  7 45 29.0800000  0  4G 3G13G12G 9
  22089455.219    22089458.655   -99605811.369 8 118204880.918 8
  20804816.820    20804820.637   -52813868.955 9  35867391.715 8
  20545017.524    20545023.798  -105486434.758 8 134775919.192 7
  22247109.729    22247114.673   -30670859.467 9  37839774.457 9
 88  3 21  7 45 59.0800000  0  4G 3G13G12G 9
  22080834.831    22080841.170   -99651102.173 8 118169589.386 8
  20810230.962    20810234.749   -52785422.283 9  35889557.945 8
  20550029.568    20550033.424  -105460101.418 8 134796438.671 8
  22268284.019    22268288.959   -30559584.892 9  37926481.907 9
 88  3 21  7 46 29.0800000  0  4G 3G13G12G 9
  22072254.183    22072258.927   -99696193.183 7 118134453.553 7
  20815675.709    20815679.168   -52756806.703 9  35911855.804 8
  20555161.285    20555166.206  -105433131.795 9 134817453.949 8
  22289515.821    22289518.657   -30448014.994 8  38013419.470 8
 88  3 21  7 46 59.0800000  0  4G 3G13G12G 9
  22063712.685    22063716.218   -99741084.869 8 118099473.032 8
  20821153.125    20821156.014   -52728023.633 9  35934284.186 9
  20560414.823    20560419.795  -105405526.929 9 134838964.209 8
  22310802.921    22310806.823   -30336153.129 8  38100584.555 8
 88  3 21  7 47 29.0800000  0  4G 3G13G12G 9
  22055208.994    22055212.558   -99785777.943 8 118064647.263 9
  20826663.224    20826665.910   -52699075.193 9  35956841.416 8
  20565788.372    20565792.939  -105377287.418 7 134860969.024 7
  22332144.122    22332147.228   -30224002.712 8  38187974.463 9
 88  3 21  7 47 59.0800000  0  4G 3G13G12G 9
  22046740.832    22046745.364   -99830272.709 8 118029976.034 8
  20832202.371    20832206.746   -52669962.664 9  35979526.509 9
  20571281.050    20571285.709  -105348413.961 8 134883467.801 7
  22353539.069    22353543.688   -30111566.959 8  38275586.716 9
 88  3 21  7 48 29.0800000  0  4G 3G13G12G 9
  22038311.628    22038316.241   -99874570.035 9 117995458.653 8
  20837772.438    20837776.770   -52640687.092 9  36002338.650 8
  20576897.293    20576901.516  -105318907.960 8 134906459.482 7
  22374986.825    22374993.446   -29998849.589 8  38363418.400 9
 88  3 21  7 48 59.0800000  0  4G 3G13G12G 9
  22029919.846    22029923.350   -99918670.799 8 117961094.428 8
  20843373.986    20843377.647   -52611249.917 9  36025276.701 8
  20582631.774    20582636.456  -105288770.720 8 134929943.037 7
  22396491.124    22396495.842   -29885853.891 8  38451466.978 9
 88  3 21  7 49 29.0800000  0  4G 3G13G12G 9
  22021566.037    22021568.756   -99962575.520 9 117926882.968 9
  20849005.484    20849011.519   -52581652.581 8  36048339.546 8
  20588485.484    20588490.664  -105258002.944 7 134953917.913 8
  22418046.170    22418050.603   -29772583.091 8  38539729.917 9
 88  3 21  7 49 59.0800000  0  4G 3G13G12G 9
  22013248.138    22013251.570  -100006284.968 8 117892823.667 8
  20854669.594    20854673.695   -52551896.376 9  36071526.214 8
  20594462.187    20594466.617  -105226605.629 8 134978383.339 7
  22439652.421    22439655.193   -29659040.530 9  38628204.620 9
 88  3 21  7 50 29.0800000  0  4G 3G13G12G 9
  22004966.777    22004970.471  -100049799.340 8 117858916.389 8
  20860361.733    20860367.210   -52521982.780 9  36094835.494 8
  20600556.095    20600561.654  -105194579.548 8 135003338.713 8
  22461309.793    22461313.336   -29545229.479 8  38716888.534 9
 88  3 21  7 50 59.0800000  0  4G 3G13G12G 9
  21996723.555    21996727.769  -100093119.736 8 117825160.258 8
  20866083.405    20866088.024   -52491913.610 9  36118266.013 9
  20606770.241    20606774.781  -105161926.099 9 135028782.953 7
  22483016.693    22483022.084   -29431153.827 8  38805778.623 9
 88  3 21  7 51 29.0800000  0  4G 3G13G12G 9
  21988515.739    21988521.428  -100136246.731 8 117791554.817 8
  20871835.829    20871837.658   -52461689.534 9  36141817.251 9
  20613104.049    20613108.048  -105128646.238 7 135054715.289 7
  22504774.832    22504779.821   -29316816.371 7  38894872.711 9
 88  3 21  7 51 59.0800000  0  4G 3G13G12G 9
  21980347.863    21980350.469  -100179181.033 8 117758099.518 8
  20877616.902    20877620.491   -52431312.094 9  36165487.994 9
  20619553.912    20619560.294  -105094741.131 8 135081134.836 9
  22526582.255    22526586.219   -29202220.939 9  38984167.840 9
 88  3 21  7 52 29.0800000  0  4G 3G13G12G 9
  21972212.279    21972216.733  -100221923.437 8 117724793.764 8
  20883425.376    20883428.534   -52400782.708 9  36189277.121 9
  20626126.856    20626131.939  -105060211.852 8 135108040.757 8
  22548438.824    22548441.894   -29087370.586 8  39073661.617 8
 88  3 21  7 52 59.0800000  0  4G 3G13G12G 9
  21964116.281    21964118.938  -100264474.564 9 117691637.055 8
  20889264.428    20889266.885   -52370102.762 9  36213183.581 8
  20632815.110    20632819.070  -105025059.671 7 135135432.064 8
  22570339.508    22570344.833   -28972268.537 8  39163351.517 9
 88  3 21  7 53 29.0800000  0  4G 3G13G12G 9
  21956053.622    21956057.089  -100306835.461 9 117658628.579 8
  20895130.210    20895134.772   -52339273.791 9  36237206.157 8
  20639623.059    20639626.244  -104989286.272 8 135163307.430 8
  22592290.463    22592296.017   -28856918.462 8  39253234.661 9
 88  3 21  7 53 59.0800000  0  4G 3G13G12G 9
  21948029.485    21948034.221  -100349006.337 8 117625768.163 8
  20901024.296    20901028.528   -52308297.269 8  36261343.716 8
  20646547.795    20646552.554  -104952892.235 7 135191666.414 8
  22614287.690    22614290.770   -28741323.897 8  39343308.330 9
 88  3 21  7 54 29.0800000  0  4G 3G13G12G 9
  21940040.318    21940044.531  -100390988.201 9 117593055.036 8
  20906946.454    20906951.304   -52277174.227 8  36285595.421 9
  20653590.947    20653596.348  -104915879.483 8 135220507.498 8
  22636330.474    22636335.760   -28625488.141 8  39433569.952 8
 88  3 21  7 54 59.0800000  0  4G 3G13G12G 9
  21932089.462    21932091.046  -100432781.628 8 117560488.740 8
  20912897.465    20912902.040   -52245906.263 9  36309960.067 9
  20660753.931    20660756.811  -104878249.699 8 135249829.407 8
  22658420.375    22658422.208   -28509414.886 8  39524016.665 8
 88  3 21  7 55 29.0800000  0  4G 3G13G12G 9
  21924170.548    21924173.541  -100474387.993 8 117528068.213 8
  20918874.329    20918878.587   -52214495.164 8  36334436.230 9
  20668029.549    20668034.599  -104840004.052 8 135279631.193 8
  22680551.121    22680555.503   -28393107.786 8  39614645.519 8
 88  3 21  7 55 59.0800000  0  4G 3G13G12G 9
  21916287.841    21916293.138  -100515807.507 8 117495793.263 7
  20924877.606    20924882.698   -52182941.058 9  36359023.841 8
  20675424.290    20675431.289  -104801143.270 8 135309912.313 7
  22702728.310    22702731.960   -28276569.356 8  39705454.667 8
 88  3 21  7 56 29.0800000  0  4G 3G13G12G 9
  21908441.334    21908445.522  -100557040.377 8 117463663.767 8
  20930911.165    20930915.281   -52151245.438 9  36383721.721 8
  20682936.643    20682940.841  -104761668.876 9 135340671.572 7
  22724948.720    22724951.590   -28159803.241 8  39796441.247 8
 88  3 21  7 56 59.0800000  0  4G 3G13G12G 9
  21900630.998    21900635.209  -100598087.472 8 117431679.046 8
  20936968.674    20936973.249   -52119409.637 9  36408528.838 9
  20690563.610    20690570.263  -104721582.020 8 135371908.080 7
  22747210.248    22747215.018   -28042812.369 8  39887602.937 8
 88  3 21  7 57 29.0800000  0  4G 3G13G12G 9
  21892856.084    21892860.999  -100638949.530 9 117399838.464 8
  20943053.832    20943057.262   -52087435.108 9  36433444.062 7
  20698308.643    20698313.670  -104680884.456 8 135403620.441 8
  22769514.212    22769518.781   -27925600.647 8  39978936.725 9
 88  3 21  7 57 59.0800000  0  4G 3G13G12G 9
  21885115.088    21885118.174  -100679626.695 8 117368142.008 8
  20949163.412    20949168.403   -52055322.996 8  36458466.459 9
  20706172.156    20706174.568  -104639577.260 9 135435807.855 8
  22791860.935    22791866.176   -27808171.152 7  40070440.205 8
 88  3 21  7 58 29.0800000  0  4G 3G13G12G 9
  21877408.223    21877411.777  -100720120.466 8 117336588.417 8
  20955300.610    20955304.786   -52023075.156 9  36483594.647 8
  20714146.150    20714150.777  -104597662.485 8 135468468.713 7
  22814248.549    22814253.408   -27690527.386 9  40162110.648 8
 88  3 21  7 58 59.0800000  0  4G 3G13G12G 9
  21869738.987    21869742.292  -100760431.254 8 117305177.444 8
  20961460.262    20961466.038   -51990691.742 8  36508828.465 9
  20722237.706    20722242.998  -104555141.089 7 135501602.260 8
  22836676.141    22836678.974   -27572672.679 9  40253945.468 8
 88  3 21  7 59 29.0800000  0  4G 3G13G12G 9
  21862101.461    21862105.654  -100800559.982 8 117273908.306 8
  20967650.977    20967655.307   -51958174.548 8  36534166.506 9
  20730443.995    20730449.723  -104512015.036 9 135535206.960 8
  22859142.196    22859146.041   -27454610.816 8  40345941.693 9
 88  3 21  7 59 59.0800000  0  4G 3G13G12G 9
  21854500.482    21854505.454  -100840507.512 8 117242780.358 8
  20973863.742    20973867.844   -51925524.797 9  36559607.879 9
  20738764.859    20738770.903  -104468285.834 9 135569281.651 8
  22881648.474    22881652.102   -27336344.845 9  40438096.959 8
 88  3 21  8  0 29.0800000  0  4G 3G13G12G 9
  21846931.909    21846934.314  -100880274.379 8 117211793.199 8
  20980101.333    20980107.229   -51892744.368 9  36585151.067 8
  20747202.232    20747206.560  -104423955.895 8 135603824.456 7
  22904190.987    22904195.005   -27217878.229 7  40530408.601 9
 88  3 21  8  0 59.0800000  0  4G 3G13G12G 9
  21839399.309    21839403.081  -100919861.966 8 117180945.762 8
  20986365.284    20986367.697   -51859834.230 9  36610795.322 8
  20755751.540    20755756.683  -104379026.760 8 135638834.154 8
  22926771.833    22926776.205   -27099215.384 8  40622873.144 9
 88  3 21  8  1 29.0800000  0  4G 3G13G12G 9
  21831899.786    21831903.665  -100959270.114 8 117150238.130 7
  20992652.128    20992656.361   -51826795.067 8  36636540.124 8
  20764414.570    20764419.887  -104333499.222 8 135674310.153 7
  22949387.548    22949393.017   -26980358.435 8  40715488.939 8
 88  3 21  8  1 59.0800000  0  4G 3G13G12G 9
  21824435.482    21824438.665  -100998499.801 8 117119669.562 8
  20998962.397    20998966.312   -51793628.579 8  36662384.128 8
  20773192.039    20773195.938  -104287375.091 8 135710251.021 7
  22972043.330    22972046.714   -26861311.172 8  40808253.010 8
 88  3 21  8  2 29.0800000  0  4G 3G13G12G 9
  21817003.887    21817008.168  -101037551.776 8 117089239.462 8
  21005298.450    21005303.884   -51760334.904 9  36688327.251 9
  20782082.663    20782087.428  -104240656.766 8 135746654.898 8
  22994733.113    22994737.123   -26742076.866 8  40901162.844 8
 88  3 21  8  2 59.0800000  0  4G 3G13G12G 9
  21809605.198    21809609.727  -101076426.522 8 117058947.465 8
  21011656.283    21011662.142   -51726916.304 8  36714367.702 8
  20791083.995    20791089.555  -104193345.565 9 135783520.744 8
  23017456.604    23017461.292   -26622659.213 8  40994215.530 8
 88  3 21  8  3 29.0800000  0  4G 3G13G12G 9
  21802240.825    21802244.608  -101115125.011 8 117028792.796 8
  21018039.069    21018045.990   -51693373.818 9  36740504.676 8
  20800200.482    20800205.301  -104145443.111 9 135820847.323 8
  23040216.814    23040220.287   -26503061.237 8  41087408.718 7
 88  3 21  8  3 59.0800000  0  4G 3G13G12G 9
  21794909.726    21794913.634  -101153647.670 8 116998775.173 9
  21024448.113    21024451.558   -51659707.781 8  36766737.935 9
  20809429.096    20809433.898  -104096951.143 8 135858633.266 8
  23063008.768    23063012.634   -26383286.100 8  41180739.977 8
 88  3 21  8  4 29.0800000  0  4G 3G13G12G 9
  21787613.874    21787616.832  -101191994.909 7 116968894.212 8
  21030875.374    21030880.164   -51625920.173 9  36793065.946 8
  20818766.834    20818772.719  -104047871.590 7 135896877.062 8
  23085834.284    23085837.992   -26263337.512 8  41274206.402 8
 88  3 21  8  4 59.0800000  0  4G 3G13G12G 9
  21780349.120    21780353.264  -101230168.644 8 116939148.467 8
  21037329.036    21037332.780   -51592012.596 8  36819487.444 8
  20828218.197    20828223.233  -103998207.528 8 135935576.317 8
  23108690.735    23108695.590   -26143219.531 8  41367804.805 8
 88  3 21  8  5 29.0800000  0  4G 3G13G12G 9
  21773117.599    21773121.242  -101268169.038 8 116909537.756 8
  21043804.903    21043808.519   -51557985.732 9  36846001.861 9
  20837781.058    20837785.159  -103947960.101 8 135974730.138 7
  23131580.248    23131586.468   -26022935.080 7  41461532.936 9
 88  3 21  8  5 59.0800000  0  4G 3G13G12G 9
  21765921.076    21765924.017  -101305996.262 7 116880062.023 8
  21050302.993    21050305.580   -51523840.117 9  36872608.859 8
  20847452.624    20847457.226  -103897130.649 9 136014337.492 8
  23154500.975    23154505.841   -25902487.142 8  41555388.457 8
 88  3 21  8  6 29.0800000  0  4G 3G13G12G 9
  21758754.556    21758757.748  -101343651.669 8 116850720.146 8
  21056821.046    21056825.049   -51489577.525 9  36899306.982 8
  20857236.324    20857239.764  -103845721.410 8 136054396.637 8
  23177451.783    23177456.456   -25781879.384 8  41649368.512 9
 88  3 21  8  6 59.0800000  0  4G 3G13G12G 9
  21751621.968    21751625.904  -101381136.097 9 116821511.508 8
  21063363.494    21063367.496   -51455199.216 9  36926095.268 8
  20867128.684    20867134.028  -103793734.479 9 136094905.912 7
  23200433.397    23200436.725   -25661115.423 8  41743470.292 9
 88  3 21  8  7 29.0800000  0  4G 3G13G12G 9
  21744518.987    21744524.477  -101418451.454 9 116792434.627 9
  21069928.395    21069932.213   -51420707.131 8  36952972.219 8
  20877131.241    20877135.082  -103741172.554 9 136135863.244 7
  23223443.241    23223447.177   -25540199.754 8  41837690.302 8
 88  3 21  8  7 59.0800000  0  4G 3G13G12G 9
  21737452.641    21737455.800  -101455596.899 9 116763490.138 8
  21076513.042    21076516.617   -51386101.273 9  36979937.817 8
  20887243.470    20887246.588  -103688036.714 8 136177267.799 8
  23246480.354    23246485.221   -25419134.041 8  41932027.157 9
 88  3 21  8  8 29.0800000  0  4G 3G13G12G 9
  21730417.729    21730418.965  -101492572.953 8 116734677.655 8
  21083119.067    21083123.971   -51351382.425 8  37006991.448 8
  20897463.705    20897466.968  -103634329.043 8 136219117.909 8
  23269546.134    23269551.218   -25297921.704 8  42026478.287 9
 88  3 21  8  8 59.0800000  0  4G 3G13G12G 9
  21723411.150    21723415.382  -101529380.760 8 116705996.255 8
  21089747.114    21089752.048   -51316552.610 9  37034131.548 8
  20907791.423    20907794.891  -103580052.004 9 136261411.696 8
  23292638.985    23292643.686   -25176566.833 8  42121040.482 8
 88  3 21  8  9 29.0800000  0  4G 3G13G12G 9
  21716439.416    21716443.040  -101566020.474 7 116677445.828 8
  21096396.752    21096400.468   -51281611.915 9  37061358.065 8
  20918228.486    20918233.380  -103525207.264 9 136304147.840 8
  23315758.443    23315763.845   -25055072.229 8  42215711.570 8
 88  3 21  8  9 59.0800000  0  4G 3G13G12G 9
  21709498.553    21709502.163  -101602493.551 8 116649025.246 9
  21103066.139    21103069.955   -51246561.544 9  37088670.057 8
  20928773.295    20928777.059  -103469797.333 9 136347324.386 8
  23338902.768    23338909.422   -24933441.497 7  42310488.728 8
 88  3 21  8 10 29.0800000  0  4G 3G13G12G 9
  21702589.067    21702593.968  -101638800.232 8 116620734.361 8
  21109756.731    21109760.792   -51211402.610 9  37116066.604 7
  20939423.837    20939428.954  -103413824.020 8 136390939.937 8
  23362074.743    23362079.536   -24811677.876 8  42405369.437 8
 88  3 21  8 10 59.0800000  0  4G 3G13G12G 9
  21695712.153    21695717.454  -101674940.897 8 116592572.802 8
  21116468.143    21116472.575   -51176135.822 9  37143547.223 7
  20950182.241    20950187.848  -103357289.028 9 136434993.174 8
  23385270.888    23385276.093   -24689784.211 8  42500351.482 9
 88  3 21  8 11 29.0800000  0  4G 3G13G12G 9
  21688866.258    21688869.815  -101710916.357 8 116564539.995 8
  21123198.671    21123202.618   -51140762.738 8  37171110.685 8
  20961047.977    20961050.681  -103300195.523 9 136479481.604 8
  23408490.110    23408495.451   -24567764.555 9  42595431.701 8
 88  3 21  8 11 59.0800000  0  4G 3G13G12G 9
  21682051.881    21682056.760  -101746727.315 8 116536635.361 8
  21129950.578    21129954.925   -51105283.548 8  37198756.813 8
  20972018.444    20972021.162  -103242545.072 8 136524404.022 9
  23431734.350    23431737.824   -24445621.724 8  42690607.915 7
 88  3 21  8 12 29.0800000  0  4G 3G13G12G 9
  21675268.054    21675272.145  -101782375.389 9 116508857.663 9
  21136722.891    21136726.781   -51069700.055 9  37226484.180 8
  20983093.381    20983097.668  -103184339.577 8 136569758.945 8
  23455000.862    23455004.463   -24323359.317 8  42785877.270 8
 88  3 21  8 12 59.0800000  0  4G 3G13G12G 9
  21668516.231    21668518.328  -101817861.068 7 116481206.499 8
  21143513.433    21143518.181   -51034013.455 9  37254291.918 9
  20994274.900    20994280.000  -103125582.009 9 136615544.052 8
  23478286.960    23478290.319   -24200981.082 8  42881236.921 8
 88  3 21  8 13 29.0800000  0  4G 3G13G12G 9
  21661792.879    21661796.486  -101853184.493 8 116453681.744 8
  21150323.366    21150326.666   -50998224.023 9  37282179.781 8
  21005560.075    21005564.217  -103066274.014 7 136661758.054 8
  23501596.514    23501601.582   -24078489.873 9  42976684.625 8
 88  3 21  8 13 59.0800000  0  4G 3G13G12G 9
  21655102.458    21655106.379  -101888346.028 9 116426283.136 9
  21157152.698    21157156.615   -50962332.399 9  37310147.290 7
  21016949.921    21016955.629  -103006417.899 8 136708399.169 8
  23524925.602    23524931.490   -23955888.654 9  43072218.030 7
 88  3 21  8 14 29.0800000  0  4G 3G13G12G 9
  21648441.662    21648444.998  -101923346.940 8 116399009.724 7
  21164001.893    21164006.340   -50926340.460 9  37338192.948 9
  21028444.556    21028448.781  -102946016.492 7 136755465.182 8
  23548276.315    23548281.193   -23833181.444 8  43167834.025 9
 88  3 21  8 14 59.0800000  0  4G 3G13G12G 9
  21641812.010    21641816.701  -101958187.314 8 116371861.400 9
  21170870.580    21170874.266   -50890248.405 8  37366316.611 8
  21040041.792    21040046.773  -102885071.142 8 136802955.045 8
  23571647.579    23571653.120   -23710370.529 7  43263530.790 9
 88  3 21  8 15 29.0800000  0  4G 3G13G12G 9
  21635211.763    21635216.665  -101992867.816 8 116344837.616 9
  21177756.892    21177759.333   -50854057.176 8  37394517.567 7
  21051742.170    21051748.157  -102823584.563 7 136850866.639 8
  23595035.576    23595042.333   -23587459.796 7  43359305.333 8
 88  3 21  8 15 59.0800000  0  4G 3G13G12G 9
  21628642.648    21628647.128  -102027390.302 8 116317936.972 8
  21184662.593    21184666.097   -50817768.544 8  37422794.412 8
  21063544.708    21063549.752  -102761559.947 8 136899197.506 8
  23618443.500    23618449.820   -23464453.375 8  43455154.468 9
 88  3 21  8 16 29.0800000  0  4G 3G13G12G 9
  21622104.226    21622107.340  -102061755.428 8 116291158.983 8
  21191585.441    21191591.316   -50781384.080 8  37451145.923 9
  21075450.035    21075454.801  -102698999.606 8 136947945.806 8
  23641869.754    23641874.212   -23341354.842 8  43551075.392 8
 88  3 21  8 16 59.0800000  0  4G 3G13G12G 9
  21615593.872    21615597.510  -102095963.794 8 116264503.114 9
  21198529.318    21198533.879   -50744904.177 9  37479571.813 8
  21087456.931    21087460.631  -102635906.275 8 136997109.415 9
  23665312.179    23665315.176   -23218167.030 8  43647065.872 8
 88  3 21  8 17 29.0800000  0  4G 3G13G12G 9
  21609114.628    21609118.870  -102130015.784 9 116237969.120 8
  21205487.192    21205493.755   -50708329.467 9  37508071.546 9
  21099564.592    21099567.632  -102572282.016 8 137046686.757 8
  23688769.857    23688774.883   -23094893.163 8  43743123.402 8
 88  3 21  8 17 59.0800000  0  4G 3G13G12G 9
  21602663.659    21602666.973  -102163912.195 8 116211556.331 7
  21212466.758    21212470.516   -50671660.555 8  37536644.734 9
  21111772.272    21111775.444  -102508128.795 9 137096676.272 8
  23712242.276    23712248.332   -22971536.508 8  43839245.454 7
 88  3 21  8 18 29.0800000  0  4G 3G13G12G 9
  21596243.868    21596248.181  -102197653.995 8 116185264.034 8
  21219461.149    21219466.113   -50634898.925 9  37565290.155 7
  21124080.628    21124084.627  -102443450.038 9 137147075.301 8
  23735731.509    23735736.675   -22848100.655 9  43935429.218 8
 88  3 21  8 18 59.0800000  0  4G 3G13G12G 9
  21589851.769    21589855.750  -102231241.409 8 116159092.004 9
  21226473.298    21226479.476   -50598045.018 7  37594007.470 8
  21136486.369    21136491.950  -102378247.971 8 137197882.092 7
  23759234.993    23759240.896   -22724588.927 8  44031672.103 8
 88  3 21  8 19 29.0800000  0  4G 3G13G12G 9
  21583489.923    21583493.078  -102264674.621 8 116133040.173 8
  21233503.087    21233509.409   -50561099.477 7  37622796.202 8
  21148993.815    21148999.487  -102312524.535 9 137249095.160 8
  23782753.932    23782758.365   -22601003.583 8  44127972.355 8
 88  3 21  8 19 59.0800000  0  4G 3G13G12G 9
  21577156.384    21577161.261  -102297954.952 9 116107107.454 9
  21240552.784    21240556.315   -50524063.256 8  37651655.573 8
  21161600.358    21161604.987  -102246282.347 8 137300712.425 9
  23806283.710    23806289.472   -22477348.475 8  44224326.980 8
 88  3 21  8 20 29.0800000  0  4G 3G13G12G 9
  21570852.989    21570856.793  -102331082.673 8 116081293.649 8
  21247618.491    21247622.195   -50486937.565 9  37680584.684 8
  21174303.222    21174307.672  -102179523.739 9 137352732.120 8
  23829828.201    23829832.439   -22353626.700 8  44320733.589 8
 88  3 21  8 20 59.0800000  0  4G 3G13G12G 9
  21564577.928    21564581.122  -102364058.761 9 116055598.009 8
  21254700.597    21254703.526   -50449723.025 9  37709583.033 8
  21187104.484    21187109.724  -102112251.726 8 137405151.858 8
  23853381.438    23853386.428   -22229841.602 8  44417189.518 8
 88  3 21  8 21 29.0800000  0  4G 3G13G12G 9
  21558330.128    21558334.332  -102396883.678 8 116030020.142 8
  21261797.701    21261803.120   -50412419.838 9  37738650.441 9
  21200003.845    21200008.896  -102044468.136 9 137457970.220 9
  23876948.470    23876954.214   -22105996.409 8  44513692.278 8
 88  3 21  8 21 59.0800000  0  4G 3G13G12G 9
  21552112.491    21552117.748  -102429557.974 8 116004559.648 8
  21268913.404    21268918.566   -50375029.011 8  37767786.119 8
  21212999.978    21213003.588  -101976176.155 8 137511184.740 9
  23900527.799    23900530.948   -21982094.559 8  44610239.174 9
 88  3 21  8 22 29.0800000  0  4G 3G13G12G 9
  21545923.656    21545926.911  -102462082.207 8 115979216.098 8
  21276043.919    21276050.383   -50337551.282 9  37796989.517 8
  21226091.138    21226096.382  -101907378.030 8 137564793.671 8
  23924115.844    23924120.562   -21858138.654 7  44706828.210 8
 88  3 21  8 22 59.0800000  0  4G 3G13G12G 9
  21539763.731    21539766.874  -102494457.212 8 115953988.845 8
  21283191.948    21283198.111   -50299988.114 7  37826259.500 8
  21239278.368    21239282.029  -101838076.908 9 137618794.513 8
  23947712.186    23947718.935   -21734132.434 7  44803456.423 8
 88  3 21  8 23 29.0800000  0  4G 3G13G12G 9
  21533630.138    21533634.832  -102526683.421 9 115928877.517 8
  21290357.175    21290361.120   -50262340.103 9  37855595.598 8
  21252561.670    21252565.562  -101768275.884 9 137673184.914 9
  23971319.728    23971324.330   -21610079.431 8  44900121.122 8
 88  3 21  8 23 59.0800000  0  4G 3G13G12G 9
  21527527.831    21527531.014  -102558762.137 7 115903881.117 7
  21297538.987    21297539.643   -50224607.868 9  37884997.346 8
  21265937.948    21265943.571  -101697977.257 9 137727963.045 8
  23994933.665    23994939.297   -21485982.681 7  44996819.866 9
 88  3 21  8 24 29.0800000  0  4G 3G13G12G 9
  21521449.511    21521453.232  -102590693.554 8 115878999.497 8
  21304734.151    21304738.627   -50186792.139 8  37914464.149 8
  21279410.881    21279415.570  -101627183.265 8 137783127.191 9
  24018556.330    24018562.167   -21361845.324 7  45093550.272 9
 88  3 21  8 24 59.0800000  0  4G 3G13G12G 9
  21515401.964    21515404.793  -102622478.208 8 115854232.239 8
  21311945.668    21311949.142   -50148893.593 9  37943995.477 8
  21292974.862    21292981.029  -101555896.589 8 137838675.228 8
  24042186.512    24042192.510   -21237670.556 8  45190309.808 9
 88  3 21  8 25 29.0800000  0  4G 3G13G12G 9
  21509380.060    21509384.375  -102654117.360 8 115829578.350 7
  21319173.942    21319176.773   -50110913.429 9  37973590.408 8
  21306634.377    21306639.670  -101484120.680 8 137894604.486 9
  24065822.535    24065827.706   -21113461.809 9  45287095.837 8
 88  3 21  8 25 59.0800000  0  4G 3G13G12G 9
  21503388.601    21503391.371  -102685610.627 7 115805038.165 8
  21326415.339    21326420.085   -50072851.991 8  38003248.663 9
  21320384.457    21320391.084  -101411857.749 8 137950913.226 8
  24089465.488    24089469.954   -20989222.121 9  45383905.984 8
 88  3 21  8 26 29.0800000  0  4G 3G13G12G 9
  21497424.862    21497425.392  -102716959.020 8 115780610.842 8
  21333674.363    21333678.737   -50034710.145 8  38032969.557 8
  21334228.489    21334235.021  -101339110.647 9 138007599.288 8
  24113112.204    24113117.619   -20864954.738 9  45480737.721 8
 88  3 21  8 26 59.0800000  0  4G 3G13G12G 9
  21491483.225    21491489.153  -102748164.147 8 115756295.146 7
  21340947.640    21340953.017   -49996488.855 9  38062752.345 8
  21348163.075    21348169.257  -101265882.905 8 138064659.822 8
  24136763.800    24136768.735   -20740663.351 8  45577588.150 7
 88  3 21  8 27 29.0800000  0  4G 3G13G12G 9
  21485573.809    21485577.059  -102779226.336 8 115732090.873 9
  21348236.471    21348239.916   -49958188.618 8  38092596.654 8
  21362189.928    21362193.589  -101192177.650 9 138122092.479 9
  24160420.846    24160424.467   -20616351.241 9  45674454.674 8
 88  3 21  8 27 59.0800000  0  4G 3G13G12G 9
  21479689.420    21479694.143  -102810145.775 8 115707997.803 8
  21355540.011    21355542.670   -49919809.766 8  38122502.263 7
  21376305.725    21376309.486  -101117996.955 9 138179895.590 8
  24184078.271    24184083.600   -20492021.104 8  45771335.294 8
 88  3 21  8 28 29.0800000  0  4G 3G13G12G 9
  21473833.374    21473836.688  -102840922.300 7 115684016.097 8
  21362857.231    21362860.163   -49881352.830 9  38152468.708 8
  21390511.966    21390517.059  -101043342.873 8 138238067.591 9
  24207740.720    24207745.480   -20367675.819 8  45868227.697 8
 88  3 21  8 28 59.0800000  0  4G 3G13G12G 9
  21468003.614    21468006.373  -102871557.798 8 115660144.296 8
  21370188.776    21370194.313   -49842819.722 8  38182494.491 8
  21404807.651    21404811.528  -100968219.156 9 138296605.554 8
  24231405.414    24231410.309   -20243319.055 7  45965129.005 8
 88  3 21  8 29 29.0800000  0  4G 3G13G12G 9
  21462199.312    21462202.501  -102902052.744 8 115636381.995 8
  21377537.189    21377540.478   -49804210.632 9  38212579.464 8
  21419191.099    21419195.615  -100892629.141 9 138355506.853 9
  24255070.942    24255076.519   -20118954.267 8  46062036.587 8
 88  3 21  8 29 59.0800000  0  4G 3G13G12G 9
  21456423.380    21456427.927  -102932407.164 8 115612729.201 7
  21384898.326    21384903.531   -49765525.433 9  38242723.769 8
  21433663.964    21433669.172  -100816575.319 9 138414769.553 8
  24278735.492    24278743.424   -19994584.246 7  46158948.248 9
 88  3 21  8 30 29.0800000  0  4G 3G13G12G 9
  21450674.127    21450677.438  -102962621.969 8 115589185.203 7
  21392273.915    21392278.515   -49726765.285 9  38272926.476 7
  21448224.341    21448229.664  -100740060.003 9 138474391.879 8
  24302405.047    24302410.996   -19870211.974 7  46255861.660 8
 88  3 21  8 30 59.0800000  0  4G 3G13G12G 9
  21444951.114    21444955.447  -102992697.722 7 115565749.563 8
  21399664.640    21399668.643   -49687930.867 9  38303187.058 8
  21462873.520    21462876.313  -100663086.577 8 138534371.165 9
  24326070.073    24326076.425   -19745841.055 8  46352774.051 8
 88  3 21  8 31 29.0800000  0  4G 3G13G12G 9
  21439253.832    21439257.472  -103022635.264 8 115542421.621 8
  21407068.533    21407071.588   -49649023.036 8  38333504.838 8
  21477605.564    21477610.374  -100585658.714 9 138594704.526 7
  24349737.016    24349744.639   -19621474.542 7  46449682.979 7
 88  3 21  8 31 59.0800000  0  4G 3G13G12G 9
  21433584.556    21433587.258  -103052435.220 8 115519200.888 9
  21414487.993    21414491.077   -49610042.294 9  38363879.424 8
  21492425.767    21492429.461  -100507778.751 9 138655390.213 8
  24373402.536    24373408.993   -19497115.624 7  46546586.031 7
 88  3 21  8 32 29.0800000  0  4G 3G13G12G 9
  21427937.246    21427942.733  -103082098.297 8 115496086.801 8
  21421919.613    21421922.357   -49570989.673 9  38394310.045 8
  21507331.111    21507336.421  -100429449.800 8 138716425.745 8
  24397065.809    24397070.035   -19372767.378 7  46643480.754 8
 88  3 21  8 32 59.0800000  0  4G 3G13G12G 9
  21422320.436    21422323.898  -103111624.880 9 115473079.067 7
  21429362.367    21429367.629   -49531864.795 9  38424796.947 8
  21522321.330    21522326.312  -100350674.867 8 138777808.774 8
  24420726.227    24420730.952   -19248432.763 8  46740364.849 9
 88  3 21  8 33 29.0800000  0  4G 3G13G12G 9
  21416727.969    21416732.638  -103141015.253 8 115450177.486 9
  21436820.061    21436825.696   -49492668.388 7  38455339.566 8
  21537394.691    21537401.353  -100271456.054 8 138839537.712 9
  24444383.664    24444387.213   -19124114.821 7  46837235.965 8
 88  3 21  8 33 59.0800000  0  3G 3G13G12
  21411160.807    21411162.911  -103170269.788 8 115427381.745 8
  21444294.368    21444296.868   -49453401.116 9  38485937.449 7
  21552554.910    21552559.684  -100191796.965 7 138901609.700 8
 88  3 21  8 34 29.0800000  0  3G 3G13G12
  21405619.443    21405621.106  -103199389.932 9 115404690.719 7
  21451779.507    21451784.067   -49414063.814 8  38516589.907 8
  21567796.993    21567802.256  -100111701.282 7 138964021.912 8
 88  3 21  8 34 59.0800000  0  3G 3G13G12
  21400104.310    21400107.058  -103228375.707 8 115382104.399 8
  21459277.959    21459282.100   -49374657.644 8  38547296.019 8
  21583122.069    21583127.239  -100031171.784 8 139026772.141 8
 88  3 21  8 35 29.0800000  0  3G 3G13G12
  21394611.538    21394616.878  -103257227.646 8 115359622.391 8
  21466788.647    21466794.989   -49335182.197 8  38578056.036 8
  21598527.187    21598532.460   -99950210.838 8 139089858.559 8
